[[{"header":{"parameterUnit":"m.s-1","parameterCategory":1,"la1":30.6,"la2":29.2853,"lo1":-89.7004,"lo2":-87.6739,"dy":0.0162,"dx":0.0183,"nx":112,"ny":82,"refTime":"2024-06-03T06:00:00:Z","depth":0,"parameterNumber":2,"parameterNumberName":"U-component_of_WINDS"},"data":[0.0,0.0,0.0,0.0,0.0,0.0,0.0,0.0,0.0,0.0,0.0,0.0,0.0,0.0,0.0,0.0,0.0,0.0,0.0,0.0,0.0,0.0,0.0,0.0,0.0,0.0,0.0,0.0,0.0,0.0,0.0,0.0,0.0,0.0,0.0,0.0,0.0,0.0,0.0,0.0,0.0,0.0,0.0,0.0,0.0,0.0,0.0,0.0,0.0,0.0,0.0,0.0,0.0,0.0,0.0,0.0,0.0,0.0,0.0,0.0,0.0,0.0,0.0,0.0,0.0,0.0,0.0,0.0,0.0,0.0,0.0,0.0,0.0,0.0,0.0,0.0,0.0,0.0,0.0,0.0,0.0,0.0,0.0,0.0,0.0,0.0,0.0,0.0,0.0,0.0,-1.7438,-2.1786,-2.4908,-2.6129,-2.4513,-2.4169,-2.173,-1.6128,0.0,0.0,0.0,0.0,0.0,0.0,0.0,0.0,0.0,0.0,0.0,0.0,0.0,0.0,0.0,0.0,0.0,0.0,0.0,0.0,0.0,0.0,0.0,0.0,0.0,0.0,0.0,0.0,0.0,0.0,0.0,0.0,0.0,0.0,0.0,0.0,0.0,0.0,0.0,0.0,0.0,0.0,0.0,0.0,0.0,0.0,0.0,0.0,0.0,0.0,0.0,0.0,0.0,0.0,0.0,0.0,0.0,0.0,0.0,0.0,0.0,0.0,0.0,0.0,0.0,0.0,0.0,0.0,0.0,0.0,0.0,0.0,0.0,0.0,0.0,0.0,0.0,0.0,0.0,0.0,0.0,0.0,0.0,0.0,0.0,0.0,0.0,0.0,0.0,0.0,0.0,0.0,0.0,0.0,0.0,0.0,0.0,0.0,0.0,0.0,0.0,0.0,0.0,0.0,-1.9257,-2.3629,-2.4227,-2.4227,-2.3964,-2.2958,-2.0977,-1.7779,0.0,0.0,0.0,0.0,0.0,0.0,0.0,0.0,0.0,0.0,0.0,0.0,0.0,0.0,0.0,0.0,0.0,0.0,0.0,0.0,0.0,0.0,0.0,0.0,0.0,0.0,0.0,0.0,0.0,0.0,0.0,0.0,0.0,0.0,0.0,0.0,0.0,0.0,0.0,0.0,0.0,0.0,0.0,0.0,0.0,0.0,0.0,0.0,0.0,0.0,0.0,0.0,0.0,0.0,0.0,0.0,0.0,0.0,0.0,0.0,0.0,0.0,0.0,0.0,0.0,0.0,0.0,0.0,0.0,0.0,0.0,0.0,0.0,0.0,0.0,0.0,0.0,0.0,0.0,0.0,0.0,0.0,0.0,0.0,0.0,0.0,0.0,0.0,0.0,0.0,0.0,0.0,0.0,0.0,0.0,0.0,0.0,0.0,0.0,0.0,0.0,0.0,0.0,-2.073,-2.1562,-2.3569,-2.381,-2.3667,-2.3437,-2.2512,-2.0789,-1.8182,-1.6908,0.0,0.0,0.0,0.0,0.0,0.0,0.0,0.0,0.0,0.0,0.0,0.0,0.0,0.0,0.0,0.0,0.0,0.0,0.0,0.0,0.0,0.0,0.0,0.0,0.0,0.0,0.0,0.0,0.0,0.0,0.0,0.0,0.0,0.0,0.0,0.0,0.0,0.0,0.0,0.0,0.0,0.0,0.0,0.0,0.0,0.0,0.0,0.0,0.0,0.0,0.0,0.0,0.0,0.0,0.0,0.0,0.0,0.0,0.0,0.0,0.0,0.0,0.0,0.0,0.0,0.0,0.0,0.0,0.0,0.0,0.0,0.0,0.0,0.0,0.0,0.0,0.0,0.0,0.0,0.0,0.0,0.0,0.0,0.0,0.0,0.0,0.0,0.0,0.0,0.0,0.0,0.0,0.0,0.0,0.0,0.0,0.0,0.0,0.0,0.0,0.0,0.0,-2.188,-2.2997,-2.3179,-2.3551,-2.356,-2.325,-2.2193,-2.0643,-1.8422,-1.7477,0.0,0.0,0.0,0.0,0.0,0.0,0.0,0.0,0.0,0.0,0.0,0.0,0.0,0.0,0.0,0.0,0.0,0.0,0.0,0.0,0.0,0.0,0.0,0.0,0.0,0.0,0.0,0.0,0.0,0.0,0.0,0.0,0.0,0.0,0.0,0.0,0.0,0.0,0.0,0.0,0.0,0.0,0.0,0.0,0.0,0.0,0.0,0.0,0.0,0.0,0.0,0.0,0.0,0.0,0.0,0.0,0.0,0.0,0.0,0.0,0.0,0.0,0.0,0.0,0.0,0.0,0.0,0.0,0.0,0.0,0.0,0.0,0.0,0.0,0.0,0.0,0.0,0.0,0.0,0.0,0.0,0.0,0.0,0.0,0.0,0.0,0.0,0.0,0.0,0.0,0.0,0.0,0.0,0.0,0.0,0.0,0.0,0.0,0.0,0.0,0.0,0.0,-2.1261,-2.2639,-2.3501,-2.3503,-2.3503,-2.3493,-2.1774,-2.0254,-1.9253,-1.7648,0.0,0.0,0.0,0.0,0.0,0.0,0.0,0.0,0.0,0.0,0.0,0.0,0.0,0.0,0.0,0.0,0.0,0.0,0.0,0.0,0.0,0.0,0.0,0.0,0.0,0.0,0.0,0.0,0.0,0.0,0.0,0.0,0.0,0.0,0.0,0.0,0.0,0.0,0.0,0.0,0.0,0.0,0.0,0.0,0.0,0.0,0.0,0.0,0.0,0.0,0.0,0.0,0.0,0.0,0.0,0.0,0.0,0.0,0.0,0.0,0.0,0.0,0.0,0.0,0.0,0.0,0.0,0.0,0.0,0.0,0.0,0.0,0.0,0.0,0.0,0.0,0.0,0.0,0.0,0.0,0.0,0.0,0.0,0.0,0.0,0.0,0.0,0.0,0.0,0.0,0.0,0.0,0.0,0.0,0.0,0.0,0.0,0.0,0.0,0.0,0.0,0.0,-2.1035,-2.155,-2.3152,-2.3232,-2.3016,-2.2571,-2.1595,-2.011,-1.8019,0.0,0.0,0.0,0.0,0.0,0.0,0.0,0.0,0.0,0.0,0.0,0.0,0.0,0.0,0.0,0.0,0.0,0.0,0.0,0.0,0.0,0.0,0.0,0.0,0.0,0.0,0.0,0.0,0.0,0.0,0.0,0.0,0.0,0.0,0.0,0.0,0.0,0.0,0.0,0.0,0.0,0.0,0.0,0.0,0.0,0.0,0.0,0.0,0.0,0.0,0.0,0.0,0.0,0.0,0.0,0.0,0.0,0.0,0.0,0.0,0.0,0.0,0.0,0.0,0.0,0.0,0.0,0.0,0.0,0.0,0.0,0.0,0.0,0.0,0.0,0.0,0.0,0.0,0.0,0.0,0.0,0.0,0.0,0.0,0.0,0.0,0.0,0.0,0.0,0.0,0.0,0.0,0.0,0.0,0.0,0.0,0.0,0.0,0.0,0.0,0.0,0.0,-2.0655,-2.0565,-2.0968,0.0,-2.2744,-2.2451,-2.1738,-2.1025,-1.9562,-1.713,0.0,0.0,0.0,0.0,0.0,0.0,0.0,0.0,0.0,0.0,0.0,0.0,0.0,0.0,0.0,0.0,0.0,0.0,0.0,0.0,0.0,0.0,0.0,0.0,0.0,0.0,0.0,0.0,0.0,0.0,0.0,0.0,0.0,0.0,0.0,0.0,0.0,0.0,0.0,0.0,0.0,0.0,0.0,0.0,0.0,0.0,0.0,0.0,0.0,0.0,0.0,0.0,0.0,0.0,0.0,0.0,0.0,0.0,0.0,0.0,0.0,0.0,0.0,0.0,0.0,0.0,0.0,0.0,0.0,0.0,0.0,0.0,0.0,0.0,0.0,0.0,0.0,0.0,0.0,0.0,0.0,0.0,0.0,0.0,0.0,0.0,0.0,0.0,0.0,0.0,0.0,0.0,0.0,0.0,0.0,0.0,0.0,0.0,0.0,0.0,0.0,0.0,-1.8715,-1.9925,-2.0898,-2.1787,-2.1885,-2.1709,-2.126,-2.0039,-1.8629,0.0,0.0,0.0,0.0,0.0,0.0,0.0,0.0,0.0,0.0,0.0,0.0,0.0,0.0,0.0,0.0,0.0,0.0,0.0,0.0,0.0,0.0,0.0,0.0,0.0,0.0,0.0,0.0,0.0,0.0,0.0,0.0,0.0,0.0,0.0,0.0,0.0,0.0,0.0,0.0,0.0,0.0,0.0,0.0,0.0,0.0,0.0,0.0,0.0,0.0,0.0,0.0,0.0,0.0,0.0,0.0,0.0,0.0,0.0,0.0,0.0,0.0,0.0,0.0,0.0,0.0,0.0,0.0,0.0,0.0,0.0,0.0,0.0,0.0,0.0,0.0,0.0,0.0,0.0,0.0,0.0,0.0,0.0,0.0,0.0,0.0,0.0,0.0,0.0,0.0,0.0,0.0,0.0,0.0,0.0,0.0,0.0,0.0,0.0,0.0,0.0,0.0,0.0,-1.8517,-1.9502,-2.0566,-2.1758,-2.1885,-2.1455,-2.0391,-1.9488,-1.7953,-1.5597,0.0,0.0,0.0,0.0,0.0,0.0,0.0,0.0,0.0,0.0,0.0,0.0,0.0,0.0,0.0,0.0,0.0,0.0,0.0,0.0,0.0,0.0,0.0,0.0,0.0,0.0,0.0,0.0,0.0,0.0,0.0,0.0,0.0,0.0,0.0,0.0,0.0,0.0,0.0,0.0,0.0,0.0,0.0,0.0,0.0,0.0,0.0,0.0,0.0,0.0,0.0,0.0,0.0,0.0,0.0,0.0,0.0,0.0,0.0,0.0,0.0,0.0,0.0,0.0,0.0,0.0,0.0,0.0,0.0,0.0,0.0,0.0,0.0,0.0,0.0,0.0,0.0,0.0,0.0,0.0,0.0,0.0,0.0,0.0,0.0,0.0,0.0,0.0,0.0,0.0,0.0,0.0,0.0,0.0,0.0,0.0,0.0,0.0,0.0,0.0,0.0,0.0,-1.8164,-1.9131,-2.0098,-2.124,-2.1357,-2.0898,-1.9766,-1.9052,-1.7605,-1.4941,0.0,0.0,0.0,0.0,0.0,0.0,0.0,0.0,0.0,0.0,0.0,0.0,0.0,0.0,0.0,0.0,0.0,0.0,0.0,0.0,0.0,0.0,0.0,0.0,0.0,0.0,0.0,0.0,0.0,0.0,0.0,0.0,0.0,0.0,0.0,0.0,0.0,0.0,0.0,0.0,0.0,0.0,0.0,0.0,0.0,0.0,0.0,0.0,0.0,0.0,0.0,0.0,0.0,0.0,0.0,0.0,0.0,0.0,0.0,0.0,0.0,0.0,0.0,0.0,0.0,0.0,0.0,0.0,0.0,0.0,0.0,0.0,0.0,0.0,0.0,0.0,0.0,0.0,0.0,0.0,0.0,0.0,0.0,0.0,0.0,0.0,0.0,0.0,0.0,0.0,0.0,0.0,0.0,0.0,0.0,0.0,0.0,0.0,0.0,0.0,0.0,0.0,-1.7793,-1.876,-1.9619,-2.0469,-2.0566,-2.0138,-1.9282,-1.8648,-1.7267,-1.4875,0.0,0.0,0.0,0.0,0.0,0.0,0.0,0.0,0.0,0.0,0.0,0.0,0.0,0.0,0.0,0.0,0.0,0.0,0.0,0.0,0.0,0.0,0.0,0.0,0.0,0.0,0.0,0.0,0.0,0.0,0.0,0.0,0.0,0.0,0.0,0.0,0.0,0.0,0.0,0.0,0.0,0.0,0.0,0.0,0.0,0.0,0.0,0.0,0.0,0.0,0.0,0.0,0.0,0.0,0.0,0.0,0.0,0.0,0.0,0.0,-2.1004,0.0,0.0,0.0,0.0,0.0,0.0,0.0,0.0,0.0,0.0,0.0,0.0,0.0,0.0,0.0,0.0,0.0,0.0,0.0,0.0,0.0,0.0,0.0,0.0,0.0,0.0,0.0,0.0,0.0,0.0,0.0,0.0,0.0,0.0,0.0,0.0,0.0,0.0,0.0,0.0,0.0,-1.7755,-1.876,-1.9619,-2.0469,-2.001,-1.9282,-1.8471,-1.7171,-1.5651,-1.4014,-1.2868,0.0,0.0,0.0,0.0,0.0,0.0,0.0,0.0,0.0,0.0,0.0,0.0,0.0,0.0,0.0,0.0,0.0,0.0,0.0,0.0,0.0,0.0,0.0,0.0,0.0,0.0,0.0,0.0,0.0,0.0,0.0,0.0,0.0,0.0,0.0,0.0,0.0,0.0,0.0,0.0,0.0,0.0,0.0,0.0,0.0,0.0,0.0,0.0,0.0,0.0,0.0,0.0,0.0,0.0,0.0,0.0,0.0,0.0,0.0,0.0,-2.1531,0.0,0.0,0.0,0.0,0.0,0.0,0.0,0.0,0.0,0.0,0.0,0.0,0.0,0.0,0.0,0.0,0.0,0.0,0.0,0.0,0.0,0.0,0.0,0.0,0.0,0.0,0.0,0.0,0.0,0.0,0.0,0.0,0.0,0.0,0.0,0.0,0.0,0.0,0.0,0.0,-1.7852,-1.876,-1.9461,-1.9925,-1.9539,-1.8816,-1.7707,-1.6571,-1.5447,-1.4226,-1.2863,0.0,0.0,0.0,0.0,0.0,0.0,0.0,0.0,0.0,0.0,0.0,0.0,0.0,0.0,0.0,0.0,0.0,0.0,0.0,0.0,0.0,0.0,0.0,0.0,0.0,0.0,0.0,0.0,0.0,0.0,0.0,0.0,0.0,0.0,0.0,0.0,0.0,0.0,0.0,0.0,0.0,0.0,0.0,0.0,0.0,0.0,0.0,0.0,0.0,0.0,0.0,0.0,0.0,-2.4619,-2.4958,-2.5398,-2.5398,-2.5398,-2.5347,-2.4406,-2.3477,-2.2573,0.0,0.0,0.0,0.0,0.0,0.0,0.0,0.0,0.0,0.0,0.0,0.0,0.0,0.0,0.0,0.0,0.0,0.0,0.0,0.0,0.0,0.0,0.0,0.0,0.0,-1.7394,-1.8071,0.0,0.0,0.0,0.0,0.0,0.0,0.0,0.0,0.0,0.0,0.0,0.0,-1.7939,-1.876,-1.9312,-1.9289,-1.9134,-1.8442,-1.6877,-1.6272,-1.5512,-1.4457,-1.3182,-1.2276,0.0,0.0,0.0,0.0,0.0,0.0,0.0,0.0,0.0,0.0,0.0,0.0,0.0,0.0,0.0,0.0,0.0,0.0,0.0,0.0,0.0,0.0,0.0,0.0,0.0,0.0,0.0,0.0,0.0,0.0,0.0,0.0,-1.7162,-1.809,0.0,0.0,0.0,0.0,0.0,0.0,0.0,0.0,0.0,0.0,0.0,0.0,0.0,0.0,-2.4481,-2.5511,-2.6063,-2.6219,-2.7105,-2.7607,-2.767,-2.767,-2.767,-2.767,-2.7519,0.0,-2.3766,-2.3703,0.0,0.0,0.0,0.0,0.0,0.0,0.0,0.0,0.0,0.0,0.0,0.0,0.0,0.0,0.0,0.0,0.0,0.0,0.0,0.0,0.0,0.0,-1.9928,-1.9936,-2.0123,-2.0202,0.0,-1.8745,-1.8112,-1.9652,0.0,0.0,0.0,0.0,0.0,0.0,0.0,0.0,-1.79,-1.876,-1.9312,-1.9289,-1.8647,-1.7666,-1.6371,-1.5349,-1.4384,-1.3682,-1.3259,-1.2928,-1.2613,-1.1815,0.0,0.0,0.0,0.0,0.0,0.0,0.0,0.0,0.0,0.0,0.0,0.0,0.0,0.0,0.0,0.0,0.0,0.0,0.0,0.0,0.0,0.0,0.0,0.0,0.0,0.0,0.0,0.0,0.0,-1.7005,-1.7802,-1.8442,-1.8325,-1.8469,0.0,0.0,0.0,0.0,0.0,0.0,0.0,0.0,0.0,-2.4456,-2.4833,-2.5385,-2.6201,-2.6992,-2.7544,-2.7846,-2.8335,-2.8737,-2.9051,-2.9051,-2.9051,-2.9051,-2.9051,-2.8185,-2.6691,-2.5774,-2.472,-2.3665,0.0,0.0,0.0,0.0,0.0,-2.128,-2.1771,0.0,0.0,0.0,0.0,0.0,0.0,0.0,0.0,0.0,0.0,0.0,0.0,0.0,0.0,-2.0784,-2.1332,-2.1746,-2.0779,-2.0029,-1.9421,0.0,-1.87,-1.7691,-1.5709,0.0,0.0,0.0,0.0,-1.7772,-1.8281,-1.8667,-1.8803,-1.8585,-1.7755,-1.6798,-1.5583,-1.4877,-1.4348,-1.3903,-1.3228,-1.2811,-1.2949,-1.2213,-1.1661,0.0,0.0,0.0,0.0,0.0,0.0,0.0,0.0,0.0,0.0,0.0,0.0,0.0,0.0,0.0,0.0,0.0,0.0,0.0,0.0,0.0,0.0,0.0,0.0,0.0,0.0,0.0,0.0,-1.7952,-1.8641,-1.9154,-1.9597,-1.9826,0.0,0.0,0.0,0.0,0.0,0.0,-2.3904,-2.4289,-2.5065,-2.6389,-2.6866,-2.7356,-2.7921,-2.8335,-2.875,-2.9151,-2.9151,-2.9377,-2.9792,-2.9792,-2.9792,-2.9792,-2.9792,-2.9553,-2.9026,-2.7507,-2.6314,-2.5398,-2.4845,-2.4255,-2.3729,-2.4165,-2.3655,-2.2775,-2.3467,-2.2583,-2.1468,-2.2845,0.0,-2.0642,-2.085,0.0,0.0,0.0,0.0,-1.9628,-2.2372,0.0,-2.2829,-2.1515,-2.2188,-2.2794,-2.148,-2.1225,-2.0741,0.0,-1.97,-1.9798,-1.7205,0.0,0.0,0.0,0.0,-1.833,-1.875,-1.8704,-1.8455,-1.8035,-1.7188,-1.6277,-1.5087,-1.4619,-1.4387,-1.423,-1.3177,-1.2767,-1.3223,-1.2587,-1.2026,-1.145,0.0,0.0,0.0,0.0,0.0,0.0,0.0,0.0,0.0,0.0,0.0,0.0,0.0,0.0,0.0,0.0,0.0,0.0,0.0,0.0,0.0,0.0,0.0,0.0,0.0,0.0,0.0,0.0,0.0,-2.0518,-2.1537,0.0,0.0,0.0,0.0,-2.2924,-2.3502,-2.462,-2.6269,-2.6357,-2.7112,-2.8699,-2.8787,-2.9089,-2.9666,-2.9691,-2.9729,-2.9741,-2.9741,-2.9767,-2.9792,-2.9792,-2.9792,-2.9792,-2.9792,-2.9779,-2.9654,-2.8499,-2.7682,-2.7105,-2.6553,-2.5934,-2.5264,-2.5289,-2.5078,-2.4496,-2.3461,-2.3959,-2.516,-2.6012,-2.3698,-2.0757,-2.1604,-2.225,0.0,0.0,-2.1727,-2.191,-2.2845,-2.3083,-2.3081,-2.2964,-2.3066,-2.3102,-2.2973,-2.2932,-2.2524,0.0,-2.0527,-2.0514,-2.0365,0.0,-1.8626,-1.7988,-1.8311,-1.876,-1.9199,-1.8883,-1.8455,-1.8035,-1.7188,-1.637,-1.5484,-1.4663,-1.423,-1.423,-1.3418,-1.314,-1.3461,-1.302,-1.2768,-1.2735,-1.1563,0.0,0.0,0.0,0.0,0.0,0.0,0.0,0.0,0.0,0.0,0.0,0.0,0.0,0.0,0.0,0.0,0.0,0.0,0.0,0.0,0.0,0.0,0.0,0.0,0.0,0.0,0.0,0.0,-2.2178,-2.3536,0.0,-2.3334,-2.395,-2.4772,-2.5652,-2.5987,-2.6678,-2.7984,-2.8047,-2.8499,-2.9453,-2.9829,-2.9942,-2.9792,-3.0143,-3.0143,-2.9792,-2.9792,-2.9792,-2.9792,-2.9792,-2.9792,-2.9792,-2.9792,-2.9792,-2.9767,-2.9352,-2.885,-2.831,-2.8011,-2.7466,-2.6816,-2.7046,-2.6578,-2.5858,-2.5409,-2.6586,-2.7789,-2.5137,-2.3324,-2.2261,-2.2595,-2.2837,-2.3026,-2.2713,-2.2706,-2.2739,-2.3069,-2.3068,-2.309,-2.3113,-2.314,-2.309,-2.3113,-2.3067,-2.2888,-2.2324,-2.1899,-2.1369,-2.0232,-1.9999,-1.9634,-1.8564,-1.9014,-1.929,-1.892,-1.8506,-1.7931,-1.7253,-1.6296,-1.5486,-1.4967,-1.4308,-1.3902,-1.3745,-1.3113,-1.2906,-1.3259,-1.2983,-1.2735,-1.2465,-1.2051,-1.1363,0.0,0.0,0.0,0.0,0.0,0.0,0.0,0.0,0.0,0.0,0.0,0.0,0.0,0.0,0.0,0.0,0.0,0.0,0.0,0.0,0.0,0.0,0.0,0.0,0.0,0.0,-2.2845,-2.3641,-2.5163,-2.5858,-2.5089,-2.6038,-2.7006,-2.7723,-2.8012,-2.8448,-2.9189,-2.9214,-2.9478,-3.0055,-3.0419,-3.052,-3.0331,-3.052,-3.0432,-3.0068,-2.988,-2.9792,-2.9792,-2.9792,-2.9792,-2.9792,-2.9792,-2.9792,-2.9792,-2.9792,-2.9566,-2.9214,-2.9113,-2.8762,-2.84,-2.8562,-2.825,-2.7585,-2.7272,-2.8102,-2.8786,-2.5408,-2.4196,-2.3919,-2.368,-2.3617,-2.3627,-2.3187,-2.3083,-2.308,-2.308,-2.3065,-2.3135,-2.3135,-2.3135,-2.3135,-2.3135,-2.3065,-2.308,-2.308,-2.271,-2.1935,-2.0742,-2.082,-2.0723,-1.9863,-2.0215,-2.0294,-1.9596,-1.8763,-1.789,-1.7196,-1.5899,-1.5004,-1.4789,-1.4135,-1.3653,-1.3502,-1.2859,-1.2682,-1.3033,-1.2759,-1.2552,-1.2452,-1.1866,-1.1229,-1.0444,0.0,0.0,0.0,0.0,0.0,0.0,0.0,0.0,0.0,0.0,0.0,0.0,0.0,0.0,0.0,0.0,0.0,0.0,0.0,0.0,0.0,0.0,0.0,-2.2079,-2.2776,-2.3596,-2.4814,-2.6378,-2.6892,-2.5787,-2.767,-2.895,-2.895,-2.9478,-2.9804,-2.9817,-2.9817,-3.0068,-3.062,-3.0658,-3.0896,-3.1386,-3.0884,-3.0633,-3.0608,-3.0055,-2.9792,-2.9792,-2.9792,-2.9804,-2.9817,-2.9817,-2.9817,-2.9817,-2.9817,-2.9817,-2.9792,-2.9792,-2.9792,-2.9792,-2.9792,-2.9792,-2.9677,-2.877,-2.8536,-2.8322,-2.7059,-2.6255,-2.5663,-2.4744,-2.4636,-2.4677,-2.3416,-2.3135,-2.3135,-2.3135,-2.3135,-2.3135,-2.3135,-2.3135,-2.3135,-2.3135,-2.3135,-2.3135,-2.3135,-2.2709,-2.2353,-2.2334,-2.2109,-2.1904,-2.1885,-2.1885,0.0,-2.1228,-1.9652,-1.8425,-1.7976,-1.6237,-1.5097,-1.5075,-1.4086,-1.3495,-1.3502,-1.2708,-1.2438,-1.2829,-1.2478,-1.2452,-1.2815,-1.1097,-1.02,-1.0074,0.0,0.0,0.0,0.0,0.0,0.0,0.0,0.0,0.0,0.0,0.0,0.0,0.0,0.0,0.0,0.0,0.0,0.0,0.0,0.0,0.0,0.0,-2.2046,-2.2761,-2.4029,-2.5199,-2.5965,-2.7511,-2.8197,-2.7482,-2.8712,-2.9553,-2.9553,-2.9704,-2.9967,-3.0369,-3.0394,-3.0633,-3.116,-3.1562,-3.165,-3.1386,-3.1248,-3.0984,-3.0608,-3.0055,-2.9792,-2.9792,-2.9792,-3.0018,-3.0394,-3.0394,-3.0394,-3.0394,-3.0394,-3.0156,-2.9792,-2.9792,-2.9792,-2.9792,-2.9792,-2.9792,-2.9689,-2.8766,-2.8518,-2.8148,-2.6057,-2.5583,-2.5484,-2.3983,-2.4003,-2.4444,-2.3396,-2.3135,-2.3135,-2.3135,-2.3135,-2.3135,-2.3135,-2.3135,-2.3135,-2.3135,-2.3135,-2.3135,-2.3135,-2.2969,-2.281,-2.2506,-2.2353,-2.2236,-2.1934,-2.1885,0.0,-1.9826,-1.9049,-1.8151,-1.6638,-1.5675,-1.4979,-1.4529,-1.3881,-1.3423,-1.3279,-1.2639,-1.2538,-1.306,-1.2786,-1.2735,-1.2822,-1.1867,-1.0829,0.0,0.0,0.0,0.0,0.0,0.0,0.0,0.0,0.0,0.0,0.0,0.0,0.0,0.0,0.0,0.0,0.0,0.0,0.0,0.0,0.0,0.0,-2.2531,-2.3662,-2.4515,-2.5178,-2.5933,-2.6841,-2.7923,-2.8461,-2.8134,-2.9202,-2.9869,-2.9792,-2.9869,-3.0096,-3.0583,-3.062,-3.0959,-3.1712,-3.2051,-3.2177,-3.2102,-3.1625,-3.1235,-3.0934,-3.0156,-2.9792,-2.9804,-3.003,-3.0319,0.0,-3.0846,-3.0821,-3.062,-3.062,-3.0281,0.0,0.0,0.0,0.0,0.0,-2.9689,-2.9471,-2.8827,-2.8597,-2.8203,-2.6464,-2.6075,-2.608,-2.4241,-2.4069,-2.4327,-2.3396,-2.3135,-2.3135,-2.3135,-2.3135,-2.3135,-2.3135,-2.3135,-2.3135,-2.3135,-2.3135,-2.3135,-2.3135,0.0,0.0,-2.2812,-2.2773,-2.2695,-2.2451,-2.2412,-2.1986,0.0,-1.9618,-1.8523,-1.7243,-1.6002,-1.503,-1.4552,-1.4063,0.0,0.0,0.0,-1.2726,-1.2826,-1.2779,0.0,0.0,0.0,0.0,0.0,0.0,0.0,0.0,-0.8134,-0.7565,0.0,0.0,0.0,0.0,0.0,0.0,0.0,0.0,0.0,0.0,0.0,0.0,0.0,0.0,0.0,0.0,-2.4287,-2.5344,-2.6583,-2.6138,-2.613,-2.7219,-2.7831,-2.8109,-2.8109,-2.9403,-3.0074,-2.9792,-3.0125,-3.0403,-3.0683,0.0,0.0,0.0,0.0,-3.2554,-3.3068,-3.1951,-3.1386,-3.1373,-3.0306,-2.9792,-2.9817,-3.0369,-3.0645,-3.0733,-3.126,-3.1223,-3.0796,-3.0733,-3.0344,-2.9792,-2.9792,-2.9792,-2.9792,-2.9792,-2.9471,0.0,0.0,0.0,0.0,-2.7476,-2.7267,-2.701,-2.5168,-2.4669,-2.4488,-2.3474,-2.3135,-2.3135,-2.3135,-2.3135,-2.3135,-2.3135,-2.3135,-2.3135,-2.3135,-2.3135,-2.3135,-2.3135,-2.3135,-2.3135,-2.3135,-2.3135,-2.3135,-2.3135,-2.3135,0.0,-2.2274,-2.0544,-1.9159,-1.8444,0.0,0.0,-1.4959,-1.4446,-1.3975,-1.3707,-1.342,-1.3019,-1.2478,-1.2705,-1.2726,-1.2458,-1.1903,-1.2142,-1.3048,-1.1802,-1.1537,-1.2236,-0.917,-0.8044,0.0,0.0,0.0,0.0,0.0,0.0,0.0,0.0,0.0,0.0,0.0,0.0,0.0,0.0,0.0,-2.4657,-2.5234,-2.5889,-2.717,-2.6739,-2.6408,-2.6633,-2.7703,-2.8315,-2.8109,-2.9885,-3.0635,-2.9817,-3.0846,-3.1377,-3.1235,-3.1662,0.0,-3.288,-3.2918,-3.2968,-3.3081,-3.1951,-3.1386,-3.1373,0.0,0.0,-2.9817,-3.0369,-3.0846,-3.1273,-3.1813,-3.2001,-3.1876,-3.1424,-3.067,-2.9792,-2.9792,-2.9792,-2.9792,-2.9496,-2.9279,-2.9061,-2.8682,-2.8524,-2.8378,-2.7476,-2.7684,-2.7926,-2.608,-2.5568,0.0,-2.4488,-2.3647,-2.3135,-2.3135,-2.3135,-2.3135,-2.3135,-2.3135,-2.3135,-2.3135,-2.3135,-2.3135,-2.3135,-2.3135,-2.3135,-2.3135,-2.3135,-2.3135,-2.3135,-2.3135,-2.2482,-2.0604,-1.985,-1.8715,-1.6769,-1.6036,-1.547,-1.5267,-1.464,-1.4216,-1.4001,-1.3721,-1.3507,-1.3387,-1.344,-1.344,-1.3387,-1.287,-1.2489,-1.2227,-1.3074,-1.2893,-1.1668,-1.0093,-0.9685,0.0,0.0,0.0,0.0,0.0,0.0,0.0,0.0,0.0,0.0,0.0,-2.2053,-2.318,0.0,-2.4696,-2.624,-2.6215,-2.6384,-2.7378,-2.6905,-2.669,-2.7357,-2.7997,-2.853,-2.8888,-3.0152,-3.0727,-3.0206,-3.0747,-3.122,-3.1361,-3.165,-3.219,-3.3056,-3.3081,-3.3081,-3.3081,-3.1951,-3.1386,-3.1373,-3.0306,-2.9792,-2.9817,-3.0369,-3.0896,-3.1424,-3.1976,-3.2051,-3.1738,-3.0922,-3.0269,-2.9792,-2.9792,-2.9702,-2.9599,-2.9406,-2.9147,-2.8888,-2.873,-2.8585,-2.8359,-2.7499,-2.751,-2.751,-2.5663,-2.5158,-2.4999,-2.4069,-2.3484,-2.3135,-2.3135,-2.3135,-2.3135,-2.3135,-2.3135,-2.3135,-2.3135,-2.3135,-2.3135,-2.3135,-2.3135,-2.3135,-2.3135,-2.3135,-2.3135,-2.3135,-2.2969,-2.2422,-2.0773,-1.9861,-1.87,-1.7091,-1.6164,-1.5683,-1.5386,-1.4805,-1.4381,-1.4302,-1.4028,-1.3801,-1.3654,-1.3788,-1.3868,-1.3868,-1.3592,-1.3484,-1.3372,-1.4056,-1.4001,-1.3278,-1.1759,-1.0973,0.0,0.0,0.0,0.0,0.0,0.0,0.0,-1.9251,-1.9401,-2.1606,-2.2924,-2.3961,-2.4906,-2.5955,-2.6827,-2.753,-2.7079,-2.6878,-2.7587,-2.6982,-2.6985,-2.82,-2.8447,-2.8816,-2.9593,-3.0355,-3.0766,-3.0511,-3.061,-3.08,-3.1198,-3.1336,-3.1851,-3.288,-3.2918,-3.2968,-3.3081,-3.1951,-3.1386,-3.1373,-3.0306,-2.9792,-2.9817,-3.0369,-3.0846,-3.1273,-3.1813,-3.1738,-3.1173,-3.0306,-2.9892,-2.9792,-2.9792,-2.9611,-2.9341,-2.9341,-2.9106,-2.8791,-2.8791,-2.8657,-2.8419,-2.7753,-2.751,-2.7174,-2.5505,-2.4914,-2.4573,-2.3647,-2.3222,-2.3135,-2.3135,-2.3135,-2.3135,-2.3135,-2.3135,-2.3135,-2.3135,-2.3135,-2.3135,-2.3135,-2.3135,-2.3135,-2.3135,-2.3057,-2.3057,-2.3057,-2.2882,-2.2334,-2.1025,-1.9852,-1.868,-1.7498,-1.6386,-1.5712,-1.5424,-1.4963,-1.4663,-1.4609,-1.4382,-1.4148,-1.3908,-1.4128,-1.4255,-1.4255,-1.4289,-1.4425,-1.4661,-1.4817,-1.4969,-1.5193,-1.3673,-1.2368,-1.5905,-1.6634,-1.7509,-1.8818,-1.9249,-1.9997,0.0,-2.2696,-2.2961,-2.562,-2.5533,-2.5602,-2.7514,-2.7183,-2.6984,-2.7905,-2.7578,-2.7449,-2.8105,-2.7224,-2.6998,-2.8363,-2.8614,-2.8787,-2.9178,-3.0504,-3.101,-2.9995,-3.096,-3.1394,-3.0721,-3.1135,-3.1675,-3.229,-3.2303,-3.2554,-3.3068,-3.1951,-3.1386,-3.1373,-3.0306,-2.9792,-2.9817,-3.0369,-3.0645,-3.0733,-3.126,-3.1185,-3.0696,-3.057,-3.0231,-2.9792,-2.9792,-2.9546,-2.9131,-2.9131,-2.8961,-2.8791,-2.8791,-2.8657,-2.851,-2.8566,-2.8486,-2.8179,-2.7174,-2.634,-2.5495,-2.4573,-2.3734,-2.3135,-2.3135,-2.3135,-2.3135,-2.3135,-2.3135,-2.3135,-2.3135,-2.3135,-2.3135,-2.3135,-2.3135,-2.3135,-2.3135,-2.2969,-2.2803,-2.2803,-2.2794,-2.1971,-1.9679,-1.9222,-1.8311,-1.6197,-1.592,-1.5712,-1.5424,-1.5337,-1.519,-1.493,-1.4883,-1.485,-1.4816,-1.485,-1.4863,-1.4863,-1.4897,-1.4827,-1.4661,-1.5329,-1.547,-1.52,-1.5367,-1.4316,-1.68,-1.7618,-1.8437,-1.956,-2.022,-2.1128,-2.3102,-2.3083,-2.3176,-2.5369,-2.6162,-2.6565,-2.7191,-2.7589,-2.7905,-2.8072,-2.7369,-2.7044,-2.7627,-2.7069,-2.7007,-2.7971,-2.8547,-2.915,-2.9722,-3.067,-3.106,-3.0622,-3.084,-3.0889,-3.0754,-3.0901,-3.1486,-3.2679,-3.2717,-3.3144,-3.4022,-3.293,-3.2202,-3.1851,-3.0783,-3.0105,-2.9804,-3.003,-3.0306,-3.062,-3.0846,-3.0821,-3.0595,-3.0269,-2.9993,-2.9792,-2.9792,-2.9534,-2.9131,-2.9131,-2.8895,-2.8657,-2.8657,-2.8578,-2.851,-2.8578,-2.8247,-2.7592,-2.667,-2.5746,-2.4829,-2.3897,-2.3396,-2.3135,-2.3135,-2.3135,-2.3135,-2.3135,-2.3135,-2.3135,-2.3135,-2.3135,-2.3135,-2.3135,-2.3135,-2.3135,-2.3135,-2.3057,-2.2696,-2.1872,-2.2167,-2.1624,-1.9405,-1.8956,-1.8133,-1.6015,-1.5832,-1.5778,-1.5658,-1.5491,-1.5344,-1.5224,-1.5057,-1.4963,-1.4963,-1.5124,-1.5217,-1.5217,-1.5384,-1.5464,-1.5358,-1.5691,-1.5752,-1.5551,-1.5688,-1.4883,-1.7508,-1.8363,-1.9257,-2.0372,-2.1046,-2.1889,-2.3454,-2.316,-2.3107,-2.497,-2.6037,-2.6614,-2.6637,-2.75,-2.8223,-2.8084,-2.7306,-2.7019,-2.7774,-2.717,-2.705,-2.808,-2.8634,-2.9352,-3.0198,-3.067,-3.0929,-3.0945,-3.0599,-3.0394,-3.0658,-3.0461,-3.0997,-3.2353,-3.2528,-3.3144,-3.4261,-3.3319,-3.2629,-3.2202,-3.1122,-3.0331,-2.9792,-2.9792,-3.0005,-3.0382,-3.0382,-3.0382,-3.0357,-2.9955,-2.9792,-2.9792,-2.9792,-2.9534,-2.9131,-2.9131,-2.8816,-2.851,-2.8578,-2.859,-2.851,-2.8247,-2.7753,-2.701,-2.583,-2.4988,-2.4327,-2.3396,-2.3135,-2.3135,-2.3135,-2.3135,-2.3135,-2.3135,-2.3135,-2.3135,-2.3135,-2.3135,-2.3135,-2.3135,-2.3135,-2.3135,-2.3135,-2.296,-2.2501,-2.1221,-2.1347,-2.0898,-1.8864,-1.8226,-1.7404,-1.592,-1.5832,-1.5832,-1.5832,-1.5638,-1.5518,-1.5518,-1.5317,-1.5204,-1.5204,-1.5404,-1.5518,-1.5518,-1.5718,-1.5832,-1.5832,-1.5832,-1.5832,-1.5832,-1.5843,-1.4992,-1.7654,-1.8697,-2.0035,-2.1562,-2.1971,-2.241,-2.416,-2.3682,-2.351,-2.566,-2.537,-2.5159,-2.6511,-2.6929,-2.7292,-2.8021,-2.7632,-2.7799,-2.9118,-2.7816,-2.7327,-2.8986,-2.9092,-2.9269,0.0,-3.0449,-3.0622,-3.047,-3.0228,-3.0088,-3.01,-2.9959,-3.0093,-3.067,-3.1185,-3.1976,-3.3119,-3.2541,-3.2227,-3.2202,-3.1122,-3.0331,-2.9792,-2.9792,-2.9804,-2.9817,-2.9817,-2.9817,-2.9817,-2.9804,-2.9792,-2.9792,-2.9792,-2.9534,-2.9131,-2.9131,-2.8816,-2.851,-2.8724,-2.8657,-2.8419,-2.773,-2.7406,-2.6846,-2.5084,-2.4498,-2.4327,-2.3396,-2.3135,-2.3135,-2.3135,-2.3135,-2.3135,-2.3135,-2.3135,-2.3135,-2.3135,-2.3135,-2.3135,-2.3135,-2.3135,-2.3135,-2.3135,-2.2706,-2.2069,-2.1141,-2.0602,-1.9613,-1.7598,-1.6487,-1.5825,-1.5832,-1.5832,-1.5832,-1.5832,-1.5818,-1.5812,-1.5812,-1.5805,-1.5805,-1.5805,-1.5812,-1.5812,-1.5812,-1.5825,-1.5832,-1.5832,-1.5832,-1.5832,-1.5832,-1.5843,-1.4889,-1.8698,-1.9841,-2.0921,-2.2196,-2.2924,-2.3385,-2.393,-2.3616,-2.3479,-2.4258,-2.4456,-2.4648,-2.5456,-2.6168,-2.6972,-2.7959,-2.7776,-2.7939,-2.9087,-2.8967,-2.8815,-2.9044,-2.981,0.0,0.0,0.0,0.0,-3.0823,-3.0609,-3.047,-3.047,-3.0164,-3.0605,-3.1814,-3.1933,-3.2654,-3.4161,-3.3244,-3.2591,-3.219,-3.0758,-2.9967,-2.9792,-2.9792,-2.9792,-2.9792,-2.9792,-2.9792,-2.9792,-2.9792,-2.9792,-2.9792,-2.9792,-2.9534,-2.9131,-2.9131,-2.8816,-2.851,-2.8578,-2.8578,-2.8351,-2.758,-2.6835,-2.608,-2.4829,-2.4069,-2.3474,-2.3222,-2.3135,-2.3135,-2.3135,-2.3135,-2.3135,-2.3135,-2.3135,-2.3135,-2.3135,-2.3135,-2.3135,-2.3135,-2.2969,-2.2882,-2.2882,-2.2618,-2.1793,-2.0051,-1.8964,-1.8056,-1.7419,-1.6393,-1.5832,-1.5832,-1.5832,-1.5832,-1.5832,-1.5832,-1.5832,-1.5832,-1.5832,-1.5832,-1.5832,-1.5832,-1.5832,-1.5832,-1.5629,-1.5432,-1.5432,-1.5675,-1.5797,-1.5797,-1.583,-1.4016,-1.9684,-2.0673,-2.1354,-2.2468,-2.3098,-2.3424,-2.328,-2.3113,-2.3005,-2.316,-2.3455,-2.3899,-2.438,-2.5084,-2.6131,-2.7641,-2.7556,-2.7786,-2.9244,-2.9477,-2.9593,-2.9718,-3.0272,-3.0777,0.0,0.0,0.0,-3.0999,-3.1018,-3.0905,-3.0622,-3.0305,-3.0671,-3.1776,-3.1908,-3.2629,-3.4123,-3.3219,-3.239,-3.1625,-3.0382,-2.9792,-2.9792,-2.9792,-2.9792,-2.9792,-2.9792,-2.9792,-2.9792,-2.9792,-2.9792,-2.9792,-2.9792,-2.9534,-2.9131,-2.9131,-2.8816,-2.851,-2.851,-2.851,-2.8339,-2.7092,-2.6329,-2.5568,-2.4402,-2.356,-2.3135,-2.3135,-2.3135,-2.3135,-2.3135,-2.3135,-2.3135,-2.3135,-2.3135,-2.3135,-2.3135,-2.3135,-2.3047,-2.2969,-2.2882,-2.2803,-2.2706,-2.2157,-2.115,-1.9231,-1.8056,-1.7138,-1.677,-1.6204,-1.5832,-1.5832,-1.5832,-1.5832,-1.5832,-1.5832,-1.5832,-1.5832,-1.5832,-1.5832,-1.5832,-1.5832,-1.5737,-1.5737,-1.5439,-1.5337,-1.514,-1.5382,-1.5402,-1.5293,-1.523,-1.3811,-2.0528,-2.1129,-2.1387,-2.2358,-2.2592,-2.2531,-2.2335,-2.22,-2.2139,-2.2262,-2.247,-2.2764,-2.3304,-2.3766,-2.4771,-2.7145,-2.7201,-2.7633,-2.9589,-2.9455,-2.9691,-3.0947,-3.0594,-3.0895,-3.2489,-3.2163,0.0,-3.1026,0.0,-3.1177,-3.047,-3.0254,-3.0289,-3.0595,-3.1148,-3.1951,-3.3018,-3.2453,-3.165,-3.0608,-3.0055,-2.9792,-2.9792,-2.9792,-2.9792,-2.9792,-2.9792,-2.9792,-2.9792,-2.9792,-2.9792,-2.9792,-2.9792,-2.9534,-2.9131,-2.9131,-2.8816,-2.851,-2.851,-2.851,-2.8179,-2.6412,-2.5819,-2.5495,-2.3637,-2.3135,-2.3135,-2.3135,-2.3135,-2.3135,-2.3135,-2.3135,-2.3135,-2.3135,-2.3135,-2.3135,-2.3135,-2.3135,-2.3057,-2.2794,-2.2803,-2.2706,-2.2441,-2.1418,-2.0232,-1.8972,-1.7971,-1.6951,-1.5927,-1.5832,-1.5832,-1.5832,-1.5832,-1.5832,-1.5832,-1.5832,-1.5832,-1.5832,-1.5832,-1.5832,-1.5832,-1.5832,-1.573,-1.554,-1.5445,-1.5248,-1.4765,-1.4765,-1.4657,-1.4339,-1.4316,-1.4268,-2.0819,-2.1715,-2.2394,-2.2882,-2.2798,-2.2543,-2.2421,-2.1946,-2.1548,-2.1318,-2.1366,-2.1621,-2.2186,-2.3256,-2.4645,-2.6663,-2.7678,-2.8843,-3.0827,-3.1473,-3.185,-3.2228,-3.2123,-3.2045,-3.2058,-3.1927,0.0,0.0,-3.1433,-3.1434,-3.0648,-3.092,-3.106,-3.0833,-3.1769,-3.2319,-3.2428,-3.1876,-3.1273,-3.0608,-3.0055,-2.9792,-2.9792,-2.9792,-2.9792,-2.9792,-2.9792,-2.9792,-2.9792,-2.9792,-2.9792,-2.9792,-2.9792,-2.9534,-2.9131,-2.9131,-2.8816,-2.851,-2.851,-2.851,-2.8179,-2.6412,-2.5819,-2.5495,-2.3637,-2.3135,-2.3135,-2.3135,-2.3135,-2.3135,-2.3135,-2.3135,-2.3135,-2.3135,-2.3135,-2.3135,-2.3135,-2.3135,-2.3057,-2.2794,-2.2539,-2.2185,-2.1909,-2.1633,-2.0808,-1.9063,-1.8603,-1.7777,-1.6015,-1.5832,-1.5832,-1.5832,-1.5832,-1.5832,-1.5832,-1.5832,-1.5832,-1.5832,-1.5832,-1.5832,-1.5832,-1.5832,-1.573,-1.554,-1.5267,-1.5077,-1.4682,-1.4484,-1.4388,-1.428,-1.4304,-1.4346,-2.1524,-2.2006,-2.2334,-2.275,-2.2543,-2.2053,-2.1641,-2.1428,-2.1164,-2.0241,-2.0565,-2.0998,-2.1141,-2.2474,-2.423,-2.6225,-2.7588,-2.9052,-3.0981,-3.1863,-3.2411,-3.2659,-3.2476,-3.2398,-3.2594,-3.215,-3.1705,0.0,-3.1666,-3.1434,-3.0635,-3.0906,-3.1035,-3.0754,-3.144,-3.1757,-3.1512,-3.1198,-3.0783,-3.0256,-2.9942,-2.9792,-2.9792,-2.9792,-2.9792,-2.9792,0.0,-2.9792,-2.9792,-2.9792,-2.9792,-2.9792,-2.9792,-2.9534,-2.9131,-2.9131,-2.8816,-2.851,-2.851,-2.851,-2.8179,-2.6412,-2.5819,-2.5527,-2.3877,-2.3428,-2.3428,-2.3428,-2.3428,-2.3379,-2.3184,-2.3135,-2.3135,-2.3135,-2.3135,-2.3135,-2.3135,-2.3135,-2.2969,-2.2706,-2.2264,-2.1919,-2.1741,-2.1365,-2.0538,-1.9072,-1.8427,-1.7591,-1.6015,-1.5832,-1.5832,-1.5832,-1.5832,-1.5832,-1.5832,-1.5832,-1.5832,-1.5832,-1.5832,-1.5832,-1.5832,-1.5737,-1.5547,-1.5363,-1.5077,-1.479,-1.449,-1.4394,-1.4298,-1.4298,-1.4298,-1.4322,-2.2299,-2.2087,-2.1616,-2.2359,-2.199,-2.13,-2.0542,-2.0758,-2.0629,-1.9102,-1.9817,-2.0563,-2.0042,-2.1629,-2.3687,-2.5743,-2.7117,-2.8686,-3.0843,-3.1588,-3.2163,-3.2738,-3.2306,-3.2346,-3.3378,-3.2411,-3.1731,-3.1731,-3.1731,-3.1356,-3.047,-3.0687,-3.0843,-3.0788,-3.0804,-3.0792,-3.0721,-3.0658,-3.0382,-2.9905,-2.9829,-2.9792,-2.9792,-2.9792,-2.9792,-2.9792,0.0,0.0,-2.9792,-2.9792,-2.9792,-2.9792,-2.9792,-2.9456,-2.9131,-2.9052,-2.8816,-2.851,-2.851,-2.851,-2.8179,-2.6412,-2.5819,-2.5559,-2.4097,-2.3701,-2.3701,-2.3701,-2.3701,-2.3613,-2.3242,-2.3135,-2.3135,-2.3135,-2.3135,-2.3047,-2.3057,-2.3047,-2.2882,-2.2441,-2.1998,-2.1651,-2.1553,-2.0808,-1.9886,-1.8788,-1.7878,-1.6958,-1.592,-1.5832,-1.5832,-1.5832,-1.5832,-1.5832,-1.5832,-1.5832,-1.5832,-1.5832,-1.5737,-1.573,-1.573,-1.5547,-1.5356,-1.5083,-1.479,-1.4592,-1.4298,-1.4298,-1.4298,-1.4298,-1.4298,-1.4298,-2.2137,-2.1628,-2.0974,-2.2037,-2.1526,-2.0692,-2.0318,-1.9746,-1.9045,-1.8391,-1.8643,-1.9002,-1.8916,-2.0974,-2.331,-2.5229,-2.6994,-2.8886,-3.1302,-3.2189,-3.2764,-3.3365,-3.2908,-3.262,-3.2829,-3.181,0.0,0.0,0.0,-3.1016,-3.0698,-3.1291,-3.1656,-3.1839,-3.1086,-3.0821,-3.1248,-3.0834,-3.057,-3.047,-3.0005,-2.9792,-2.9792,-2.9792,-2.9792,-2.9792,0.0,0.0,-2.9792,-2.9792,-2.9792,-2.9792,-2.9599,-2.9353,-2.9052,-2.8882,-2.8736,-2.851,-2.851,-2.851,-2.8179,-2.6412,-2.5819,-2.5505,-2.3737,-2.3252,-2.3252,-2.3252,-2.3252,-2.3232,-2.3154,-2.3135,-2.3135,-2.3135,-2.3135,-2.3047,-2.2882,-2.2539,-2.2274,-2.2185,-2.1919,-2.1463,-2.0718,-2.0439,-1.9704,-1.7878,-1.7419,-1.6958,-1.592,-1.5832,-1.5832,-1.5832,-1.5832,-1.5832,-1.5832,-1.5832,-1.5832,-1.5832,-1.5635,-1.554,-1.554,-1.5267,-1.5077,-1.479,-1.4688,-1.4592,-1.4298,-1.4298,-1.4298,-1.4298,-1.4298,-1.4298,-2.2297,-2.1651,-2.0996,-2.2137,-2.1262,-2.0114,-2.0159,-1.9424,-1.8553,-1.7722,-1.7864,-1.8191,-1.8191,-2.0122,-2.2305,-2.4214,-2.5781,-2.7647,-3.0176,-3.1261,-3.2019,-3.2607,-3.2685,-3.2581,-3.228,-3.1483,-3.0986,-3.0986,0.0,-3.0911,-3.0698,-3.0867,-3.0984,-3.1032,-3.0476,-3.0306,-3.0557,-3.0306,-3.0181,-3.0181,-2.9917,-2.9792,-2.9792,-2.9792,-2.9792,-2.9792,0.0,0.0,-2.9792,-2.9792,-2.9792,-2.9792,-2.9509,-2.9275,-2.9052,-2.8882,-2.8657,-2.851,-2.851,-2.8179,-2.7592,-2.6246,-2.5819,-2.5538,-2.3917,-2.3477,-2.3477,-2.3477,-2.3477,-2.3428,-2.3193,-2.3135,-2.3135,-2.3135,-2.3057,-2.2882,-2.2618,-2.2362,-2.2097,-2.2097,-2.1919,-2.1365,-2.0439,-1.9886,-1.8972,-1.7512,-1.6857,-1.6393,-1.5832,-1.5832,-1.5832,-1.5832,-1.5832,-1.5832,-1.5832,-1.573,-1.5635,-1.5635,-1.5452,-1.5261,-1.5261,-1.5077,-1.479,-1.4688,-1.4592,-1.4394,-1.4298,-1.4298,-1.4298,-1.4298,-1.4298,-1.4298,-2.2285,-2.1588,-2.0944,-2.2101,-2.0974,-1.9673,-1.9838,-1.9218,-1.8345,-1.7275,-1.7472,-1.781,-1.7858,-1.956,-2.1559,-2.3405,-2.4748,-2.6414,-2.8948,-3.0268,-3.1196,-3.1771,-3.2241,-3.2333,-3.1888,-3.1313,0.0,-3.0986,0.0,0.0,-3.0773,-3.0394,-3.0228,-3.0152,-2.9934,-2.9869,-2.9792,-2.9792,-2.9792,-2.9792,-2.9792,-2.9792,-2.9792,-2.9792,-2.9792,-2.9792,0.0,0.0,0.0,-2.9792,-2.9792,-2.9792,-2.9443,-2.9275,-2.9052,-2.8803,-2.8657,-2.851,-2.8259,-2.7765,-2.701,-2.5913,-2.5495,-2.5306,-2.4057,-2.3652,-2.3652,-2.3652,-2.3652,-2.3574,-2.3232,-2.3135,-2.3057,-2.3057,-2.2882,-2.2618,-2.2353,-2.2185,-2.2008,-2.2008,-2.1642,-2.1087,-2.0158,-1.9155,-1.8149,-1.7138,-1.6298,-1.5832,-1.5832,-1.5832,-1.5832,-1.5832,-1.5832,-1.5737,-1.573,-1.5635,-1.5445,-1.5452,-1.5172,-1.4987,-1.4987,-1.479,-1.4592,-1.4592,-1.4394,-1.4298,-1.4298,-1.4298,-1.4298,-1.4298,-1.4298,-1.4298,-2.169,-2.0985,-2.0226,-2.1365,-2.0613,-1.9555,-1.926,-1.8612,-1.7921,-1.7317,-1.7521,-1.7858,-1.7941,-1.9674,-2.1684,-2.3405,-2.4883,-2.6634,-2.8948,-3.0268,-3.1196,-3.1771,-3.1888,-3.1901,-3.1772,-3.1313,-3.0986,-3.0986,0.0,0.0,-3.0986,-3.0773,-3.0533,-3.0368,-3.0152,-3.0011,-2.9792,-2.9792,-2.9792,-2.9792,-2.9792,-2.9792,-2.9792,-2.9792,-2.9792,-2.9792,0.0,0.0,0.0,-2.9792,-2.9792,-2.9792,-2.93,-2.9131,-2.9052,-2.8669,-2.851,-2.8431,-2.7592,-2.7267,-2.6928,-2.5168,-2.4584,-2.4413,-2.3436,-2.3193,-2.3193,-2.3193,-2.3193,-2.3193,-2.3154,-2.3135,-2.3047,-2.2882,-2.2618,-2.2353,-2.2185,-2.1919,-2.1741,-2.1741,-2.0997,-2.0068,-1.9063,-1.8056,-1.7138,-1.6109,-1.5832,-1.5832,-1.5832,-1.5832,-1.5832,-1.5832,-1.5832,-1.573,-1.554,-1.554,-1.5356,-1.5172,-1.4885,-1.479,-1.479,-1.4496,-1.4298,-1.4298,-1.4298,-1.4298,-1.4298,-1.4298,-1.4298,-1.4298,-1.4298,-1.4298,-2.1221,-2.1123,-2.0805,-2.1135,-2.0635,-1.9953,-1.9512,-1.9149,-1.8736,-1.8046,-1.7922,-1.8041,-1.8411,-1.9358,-2.0669,-2.239,-2.3275,-2.4557,-2.687,-2.8477,-2.964,-3.0228,-3.1209,-3.1705,-3.1365,0.0,-3.0986,0.0,0.0,0.0,-3.0849,-3.0609,-3.0381,-3.0088,-2.9934,-2.9869,-2.9792,-2.9792,-2.9792,-2.9792,-2.9792,-2.9792,-2.9792,-2.9792,-2.9792,-2.9792,0.0,0.0,0.0,-2.9792,-2.9702,-2.9521,-2.9209,-2.9052,-2.8882,-2.859,-2.8179,-2.7684,-2.7348,-2.6517,-2.5421,-2.4744,-2.4155,-2.356,-2.3222,-2.3135,-2.3135,-2.3135,-2.3135,-2.3135,-2.3135,-2.3135,-2.3047,-2.2891,-2.2618,-2.2353,-2.2185,-2.1919,-2.1553,-2.0988,-2.0529,-1.9795,-1.8149,-1.7606,-1.6958,-1.592,-1.5832,-1.5832,-1.5832,-1.5832,-1.5832,-1.5832,-1.5832,-1.5737,-1.554,-1.5356,-1.5172,-1.4885,-1.4592,-1.449,-1.449,-1.4394,-1.4298,-1.4298,-1.4298,-1.4298,-1.4298,-1.4298,-1.4298,-1.4298,-1.4298,-1.4298,-2.058,-2.0957,-2.1135,-2.1083,-2.0598,-2.0083,-1.979,-1.9469,-1.9114,-1.8578,-1.8339,-1.8337,-1.8784,-1.9282,-2.0092,-2.1517,-2.2237,-2.3367,-2.5524,-2.7301,-2.866,-2.9444,-3.0751,-3.1431,-3.1026,-3.0986,-3.0986,0.0,0.0,0.0,0.0,-3.0533,-3.0305,-2.9856,-2.9934,-2.9934,-2.9792,-2.9792,-2.9792,-2.9792,-2.9792,-2.9792,-2.9792,-2.9792,-2.9792,-2.9792,0.0,0.0,0.0,-2.9792,-2.9611,-2.9341,-2.887,-2.8554,-2.8383,-2.7914,-2.7336,-2.6753,-2.6505,-2.5589,-2.4413,-2.4155,-2.3647,-2.3135,-2.3135,-2.3135,-2.3135,-2.3135,-2.3135,-2.3135,-2.3135,-2.3057,-2.2969,-2.2706,-2.253,-2.2264,-2.2008,-2.183,-2.1454,-2.0439,-2.0068,-1.9338,-1.7606,-1.7044,-1.6574,-1.5927,-1.5832,-1.5832,-1.5832,-1.5832,-1.5832,-1.5832,-1.5737,-1.5635,-1.5356,-1.5178,-1.4987,-1.4592,-1.4394,-1.4298,-1.4298,-1.4298,-1.4298,-1.4298,-1.4298,-1.4298,-1.4298,-1.4298,-1.4298,-1.4298,-1.4298,-1.4298,-1.9761,-2.0254,-2.0764,-2.1262,-2.0506,-1.97,-1.9994,-1.9368,-1.8672,-1.8619,-1.8697,-1.8846,-1.897,-1.9661,-2.0412,-2.1028,-2.2289,-2.3825,-2.5576,-2.7301,-2.8817,-2.9993,-3.0634,-3.0999,-3.0986,-3.0986,0.0,0.0,0.0,0.0,0.0,-3.0609,-3.0546,-3.0075,-3.0292,-3.0228,-2.9792,-2.9792,-2.9792,-2.9792,-2.9792,-2.9792,-2.9792,-2.9792,-2.9792,0.0,0.0,0.0,0.0,-2.9792,-2.9611,-2.925,-2.8211,-2.7718,-2.7395,-2.6235,-2.583,-2.5663,-2.4829,-2.4498,-2.4327,-2.3396,-2.3135,-2.3135,-2.3135,-2.3135,-2.3135,-2.3135,-2.3135,-2.3135,-2.3135,-2.2969,-2.2715,-2.2441,-2.2264,-2.2008,-2.1741,-2.1741,-2.1454,-2.0439,-1.9521,-1.8519,-1.7512,-1.6487,-1.5832,-1.5832,-1.5832,-1.5832,-1.5832,-1.5832,-1.5832,-1.5832,-1.5635,-1.5356,-1.5083,-1.5083,-1.4885,-1.4298,-1.4298,-1.4298,-1.4298,-1.4298,-1.4298,-1.4298,-1.4298,-1.4298,-1.4298,-1.4298,-1.4298,-1.4298,-1.4298,-1.4298,-1.8859,-1.9652,-2.0321,-1.9854,-1.9923,-2.0041,-1.9883,-1.9824,-1.9736,-1.9364,-1.9407,-1.9496,-1.9674,-1.9965,-2.0797,-2.2695,-2.3462,-2.457,-2.67,-2.815,-2.9131,-2.951,-3.0398,-3.0986,0.0,0.0,0.0,0.0,0.0,0.0,0.0,-3.0761,-3.0609,-2.9946,-3.0075,-3.0075,-2.9792,-2.9792,-2.9792,-2.9792,-2.9792,-2.9792,-2.9792,-2.9792,0.0,0.0,0.0,0.0,0.0,-2.9792,-2.9546,-2.9118,-2.8131,-2.7568,-2.7162,-2.6152,-2.5411,-2.4914,-2.4573,-2.4069,-2.3474,-2.3222,-2.3135,-2.3135,-2.3135,-2.3135,-2.3135,-2.3135,-2.2969,-2.2882,-2.2882,-2.2706,-2.253,-2.2441,-2.2264,-2.2097,-2.2008,-2.183,-2.1186,-1.9613,-1.9063,-1.8241,-1.6574,-1.6015,-1.5832,-1.5832,-1.5832,-1.5832,-1.5832,-1.5635,-1.5635,-1.5635,-1.5356,-1.5172,-1.5083,-1.4885,-1.4694,-1.4298,-1.4298,-1.4298,-1.4298,-1.4298,-1.4298,-1.4298,-1.4298,-1.4298,-1.4298,-1.4298,-1.4298,-1.4298,-1.4298,-1.4298,-1.8279,-1.9124,-1.9771,-1.9596,-1.9849,-2.0032,-1.992,-2.0005,-2.0014,-1.9679,-1.9759,-1.9926,-1.999,-2.0195,-2.0875,-2.2622,-2.3371,-2.4504,-2.6595,-2.8072,-2.9183,-2.9849,-3.0555,0.0,0.0,0.0,0.0,0.0,0.0,0.0,0.0,0.0,-3.0609,-2.9792,-3.0075,-3.0075,-2.9792,-2.9792,-2.9792,-2.9792,-2.9792,-2.9792,-2.9792,-2.9792,0.0,0.0,0.0,0.0,0.0,-2.9689,-2.9443,-2.8961,-2.7706,-2.6976,-2.6505,-2.5242,-2.4402,-2.3983,-2.3983,-2.356,-2.3135,-2.3135,-2.3135,-2.3135,-2.3135,-2.3135,-2.3135,-2.3135,-2.2969,-2.2891,-2.2803,-2.2618,-2.2353,-2.2264,-2.2097,-2.1919,-2.1919,-2.183,-2.1096,-1.9155,-1.8788,-1.8141,-1.6109,-1.5832,-1.5832,-1.5832,-1.573,-1.5737,-1.5737,-1.5452,-1.5356,-1.5356,-1.5077,-1.4987,-1.4987,-1.479,-1.4592,-1.4298,-1.4298,-1.4298,-1.4298,-1.4298,-1.4298,-1.4298,-1.4298,-1.4298,-1.4298,-1.4298,-1.4298,-1.4298,-1.4298,-1.4298,0.0,-1.8553,-1.9109,-2.0064,-1.9905,-1.9679,-1.9993,-1.9797,0.0,-1.9554,-1.9798,-2.0067,-2.0143,-2.0399,-2.0772,-2.1496,-2.2604,-2.4021,-2.5824,-2.751,-2.917,-3.079,-3.0986,0.0,-3.0986,0.0,0.0,0.0,0.0,0.0,0.0,0.0,-3.0545,-2.9729,-3.0088,-3.019,-2.9792,-2.9792,-2.9792,-2.9792,-2.9792,-2.9779,-2.9729,-2.9729,0.0,0.0,0.0,0.0,0.0,-2.9459,-2.9238,-2.8882,-2.686,-2.5964,-2.5568,-2.381,-2.3135,-2.3135,-2.3135,-2.3135,-2.3135,-2.3135,-2.3135,-2.3135,-2.3135,-2.3135,-2.3135,-2.3135,-2.3047,-2.2969,-2.2794,-2.253,-2.2264,-2.2097,-2.1919,-2.1741,-2.1741,-2.1642,-2.1087,-1.9155,-1.8703,-1.8056,-1.6109,-1.5832,-1.5832,-1.5832,-1.5635,-1.554,-1.554,-1.5267,-1.5083,-1.5083,-1.479,-1.4688,-1.4688,-1.4688,-1.4592,-1.4298,-1.4298,-1.4298,-1.4298,-1.4298,-1.4298,-1.4298,-1.4298,-1.4298,-1.4298,-1.4298,-1.4298,-1.4298,-1.4298,-1.4298,-1.7237,0.0,-1.8054,-1.8007,-1.8203,-1.8474,0.0,-1.8995,-1.9308,-1.9308,-1.9737,-2.045,-2.148,-2.1353,-2.1925,-2.438,-2.4966,-2.5968,-2.8164,-2.9575,-3.0529,-3.0934,-3.0986,-3.0986,-3.0986,0.0,0.0,0.0,0.0,0.0,0.0,0.0,-2.9789,-2.9126,-2.934,-2.9555,-2.9792,-2.9792,-2.9792,-2.9792,-2.9792,-2.9566,-2.9139,-2.9139,0.0,0.0,0.0,0.0,0.0,-2.8797,-2.8815,-2.8712,-2.6871,-2.5964,-2.5568,-2.381,-2.3135,-2.3135,-2.3135,-2.3135,-2.3135,-2.3135,-2.3135,-2.3135,-2.3135,-2.3135,-2.3135,-2.3135,-2.2872,-2.252,-2.253,-2.2176,-2.182,-2.183,-2.1741,-2.1741,-2.1741,-2.1177,-2.0257,-1.9063,-1.8149,-1.7232,-1.6015,-1.5832,-1.5832,-1.5832,-1.573,-1.5635,-1.554,-1.5267,-1.4987,-1.479,-1.4592,-1.4394,-1.4394,-1.4394,-1.4394,-1.4298,-1.4298,-1.4298,-1.4298,-1.4298,-1.4298,-1.4298,-1.4298,-1.4298,-1.4298,-1.4298,-1.4298,-1.4298,-1.4298,-1.4298,-1.6754,-1.7554,-1.8301,-1.8505,-1.8907,-1.9384,-1.9521,-1.9609,-1.9635,-1.9635,-2.0028,-2.0617,-2.1613,-2.1796,-2.2499,-2.464,-2.5694,-2.7027,-2.9353,-3.0438,-3.0986,-3.0986,-3.0986,-3.0882,0.0,0.0,0.0,0.0,0.0,0.0,0.0,0.0,-2.9138,-2.8549,-2.8758,-2.9163,-2.9779,-2.9792,-2.9792,-2.9792,-2.9528,-2.9239,-2.8925,-2.8662,0.0,0.0,0.0,0.0,-2.756,-2.7714,-2.7825,-2.7707,-2.6041,-2.5557,-2.5568,-2.381,-2.3135,-2.3135,-2.3135,-2.3135,-2.3135,-2.3135,-2.3135,-2.3135,-2.3135,-2.3057,-2.2969,-2.2969,-2.2706,-2.2353,-2.2264,-2.2087,-2.183,-2.1741,-2.1741,-2.1553,-2.1177,-2.0628,-1.9886,-1.8427,-1.7692,-1.6951,-1.6015,-1.5832,-1.5832,-1.5832,-1.5737,-1.5547,-1.5356,-1.5077,-1.479,-1.4592,-1.4394,-1.4298,-1.4298,-1.4298,-1.4298,-1.4298,-1.4298,-1.4298,-1.4298,-1.4298,-1.4298,-1.4298,-1.4298,-1.4298,-1.4298,-1.4298,-1.4298,-1.4298,-1.4298,-1.4298,-1.6735,-1.7869,-1.9121,-1.9598,-2.0207,-2.0678,-2.0707,-2.0386,-2.0105,-2.0105,-2.041,-2.0849,-2.1445,-2.2161,-2.308,-2.4308,-2.5955,-2.7785,-2.9849,-3.0555,-3.0856,-3.0856,-3.0777,0.0,0.0,0.0,0.0,0.0,0.0,0.0,0.0,0.0,0.0,-2.7984,-2.8116,-2.8609,-2.9528,-2.9528,-2.9528,-2.9528,-2.9038,-2.875,-2.8662,-2.8197,0.0,0.0,0.0,0.0,-2.6427,-2.6457,-2.6569,-2.6586,-2.4975,-2.4851,-2.5411,-2.3724,-2.3135,-2.3135,-2.3135,-2.3135,-2.3135,-2.3135,-2.3135,-2.3047,-2.3047,-2.2882,-2.2706,-2.2715,-2.253,-2.2353,-2.2185,-2.2097,-2.2008,-2.1731,-2.1553,-2.1275,-2.0439,-2.0068,-1.9338,-1.7606,-1.7138,-1.6763,-1.592,-1.5832,-1.5825,-1.573,-1.5635,-1.5356,-1.5083,-1.4885,-1.4592,-1.4298,-1.4298,-1.4298,-1.4298,-1.4298,-1.4298,-1.4298,-1.4298,-1.4298,-1.4298,-1.4298,-1.4298,-1.4298,-1.4298,-1.4298,-1.4298,-1.4298,-1.4298,-1.4298,-1.4298,-1.4196,-1.786,-1.9037,-1.9685,-1.8392,-1.8913,-1.9615,-1.9102,-1.933,-1.9697,-1.9697,-2.0588,-2.1655,-2.2711,-2.3389,-2.4387,-2.602,-2.7745,-2.917,0.0,0.0,-3.0268,-3.0268,0.0,0.0,0.0,0.0,0.0,0.0,0.0,0.0,0.0,0.0,0.0,-2.7406,-2.7477,-2.7792,-2.836,-2.836,-2.836,-2.836,-2.8273,-2.7984,-2.7532,-2.7444,-2.7155,0.0,0.0,0.0,-2.6615,-2.5769,-2.5854,-2.6268,-2.4541,-2.4231,-2.4584,-2.3474,-2.3135,-2.3135,-2.3135,-2.3135,-2.3135,-2.3135,-2.3135,-2.3057,-2.2882,-2.2706,-2.2441,-2.2274,-2.2185,-2.2185,-2.2097,-2.1919,-2.1731,-2.1741,-2.1087,-2.0439,-2.0348,-1.8972,-1.7692,-1.7326,-1.6574,-1.6015,-1.5832,-1.5832,-1.573,-1.554,-1.554,-1.535,-1.479,-1.4688,-1.4592,-1.4298,-1.4298,-1.4298,-1.4298,-1.4298,-1.4298,-1.4298,-1.4298,-1.4298,-1.4298,-1.4298,-1.4298,-1.4298,-1.4298,-1.4298,-1.4298,-1.4298,-1.4298,-1.4298,-1.4298,-1.3806,-1.7428,-1.8682,-1.969,-1.9011,-2.0396,-2.1805,-2.164,-2.1823,-2.1914,-2.1589,-2.2007,-2.2701,-2.355,-2.4439,-2.5811,-2.8164,-2.9222,-2.9836,-3.0098,-3.0137,-3.0019,0.0,0.0,0.0,0.0,0.0,0.0,0.0,0.0,0.0,0.0,0.0,0.0,0.0,-2.6841,-2.6967,-2.7218,-2.7218,-2.7519,-2.8109,-2.7808,-2.7532,-2.7268,-2.6967,-2.6703,0.0,0.0,-2.5822,-2.5385,-2.4677,-2.4534,-2.4848,-2.3619,-2.353,-2.4072,-2.3384,-2.3135,-2.3135,-2.3135,-2.3135,-2.3135,-2.3135,-2.3135,-2.3057,-2.2882,-2.2618,-2.2353,-2.2185,-2.2008,-2.1919,-2.1919,-2.182,-2.1741,-2.1741,-2.0997,-2.0158,-1.9613,-1.8334,-1.7138,-1.6574,-1.6109,-1.5832,-1.5832,-1.573,-1.5635,-1.554,-1.5356,-1.5166,-1.4783,-1.4688,-1.4592,-1.4298,-1.4298,-1.4298,-1.4298,-1.4298,-1.4298,-1.4298,-1.4298,-1.4298,-1.4298,-1.4298,-1.4298,-1.4298,-1.4298,-1.4298,-1.4298,-1.4298,-1.4298,-1.4298,-1.4298,-1.3709,-1.7401,-1.8551,-1.9755,-2.0126,-2.1771,-2.3443,-2.3962,-2.4008,-2.3851,-2.3668,-2.3733,-2.3929,-2.4256,-2.5354,-2.6987,-2.934,-2.9836,-2.9941,-2.9941,-2.981,0.0,0.0,0.0,0.0,0.0,0.0,0.0,0.0,0.0,0.0,0.0,0.0,0.0,0.0,-2.6533,-2.6533,-2.6533,-2.6533,-2.6879,-2.772,-2.7293,-2.7092,-2.708,-2.6722,-2.6396,-2.6213,-2.598,-2.5465,-2.4599,-2.3791,-2.3547,-2.3579,-2.2583,-2.2735,-2.3459,-2.3238,-2.3135,-2.3135,-2.3135,-2.3135,-2.3057,-2.3057,-2.3057,-2.2969,-2.2706,-2.2451,-2.2264,-2.2097,-2.183,-2.1741,-2.1741,-2.1741,-2.1741,-2.1741,-2.0997,-1.9977,-1.9063,-1.7971,-1.6951,-1.6015,-1.5832,-1.5825,-1.573,-1.5635,-1.5445,-1.535,-1.5172,-1.4885,-1.4688,-1.4592,-1.4496,-1.4298,-1.4298,-1.4298,-1.4298,-1.4298,-1.4298,-1.4298,-1.4298,-1.4298,-1.4298,-1.4298,-1.4298,-1.4298,-1.4298,-1.4298,-1.4298,-1.4298,-1.4298,-1.4298,-1.4004,-1.3318,-1.8926,-1.9503,-2.0061,-2.1119,-2.1551,-2.2126,-2.3746,-2.3681,-2.3576,-2.4622,-2.5262,-2.5484,-2.5001,-2.6269,-2.7641,-2.8386,-2.8974,-2.934,-2.934,0.0,0.0,0.0,0.0,0.0,0.0,0.0,0.0,0.0,0.0,0.0,0.0,0.0,0.0,0.0,0.0,-2.6533,-2.6533,-2.6533,-2.6571,-2.6647,-2.6609,-2.6584,-2.6584,-2.6546,-2.6396,-2.6213,-2.598,-2.5758,-2.5394,-2.3728,-2.3274,-2.347,-2.1919,-2.1816,-2.2644,-2.2978,-2.3135,-2.3135,-2.3135,-2.3135,-2.3057,-2.2882,-2.2803,-2.2715,-2.2274,-2.2097,-2.2097,-2.183,-2.1731,-2.1741,-2.1741,-2.1741,-2.1741,-2.1741,-2.0997,-1.9977,-1.9063,-1.7971,-1.6951,-1.6015,-1.5832,-1.573,-1.554,-1.554,-1.535,-1.4783,-1.479,-1.4592,-1.4394,-1.4298,-1.4298,-1.4298,-1.4298,-1.4298,-1.4298,-1.4298,-1.4298,-1.4298,-1.4298,-1.4298,-1.4298,-1.4298,-1.4298,-1.4298,-1.4298,-1.4298,-1.4298,-1.4298,-1.4298,-1.4298,-1.3318,-1.2242,-1.7797,-1.9097,-2.044,-2.0871,-2.1786,-2.3027,-2.4899,-2.5796,-2.6453,-2.7338,-2.7538,-2.7499,-2.7197,-2.7615,-2.8255,-2.8843,-2.9131,-2.9144,0.0,0.0,0.0,0.0,0.0,0.0,0.0,0.0,0.0,0.0,0.0,0.0,0.0,0.0,0.0,0.0,0.0,-2.6533,-2.6533,-2.6533,-2.6533,-2.6533,-2.6533,-2.6533,-2.6533,-2.6533,-2.6396,-2.6213,-2.598,-2.5758,-2.5453,-2.3694,-2.3067,-2.3113,-2.1738,-2.1758,-2.2529,-2.2685,-2.2754,-2.2783,-2.3047,-2.2969,-2.2707,-2.2804,-2.2803,-2.2715,-2.2274,-2.2097,-2.2008,-2.1741,-2.1741,-2.1741,-2.1741,-2.1741,-2.1553,-2.0988,-2.0076,-1.9063,-1.8056,-1.7037,-1.6204,-1.573,-1.5635,-1.5547,-1.5267,-1.507,-1.4975,-1.4688,-1.4592,-1.4394,-1.4298,-1.4298,-1.4298,-1.4298,-1.4298,-1.4298,-1.4298,-1.4298,-1.4298,-1.4298,-1.4298,-1.4298,-1.4298,-1.4298,-1.4298,-1.4298,-1.4298,-1.4298,-1.4298,-1.4298,-1.4298,-1.4298,-1.3902,-1.2829,-1.7759,-1.9222,-2.0791,-2.1157,-2.2271,-2.3887,-2.6126,-2.7232,-2.8013,-2.9038,-2.8955,-2.8686,-2.8536,-2.831,-2.8242,0.0,-2.8726,0.0,0.0,0.0,0.0,0.0,0.0,0.0,0.0,0.0,0.0,0.0,0.0,0.0,0.0,0.0,0.0,0.0,0.0,0.0,-2.6533,-2.6533,-2.6533,-2.6533,-2.6533,-2.6533,-2.6533,-2.6396,-2.6339,-2.6062,-2.5898,-2.5688,-2.5382,-2.3902,-2.3021,-2.2553,-2.1589,-2.1592,-2.2129,-2.2266,-2.2402,-2.2539,-2.2685,-2.2648,-2.2572,-2.2553,-2.2513,-2.2539,-2.2097,-2.2008,-2.1919,-2.1731,-2.1741,-2.1642,-2.1365,-2.1275,-2.1087,-2.0439,-1.9521,-1.8519,-1.7512,-1.677,-1.6109,-1.5635,-1.554,-1.5452,-1.5178,-1.4885,-1.4688,-1.4592,-1.4394,-1.4298,-1.4298,-1.4298,-1.4298,-1.4298,-1.4298,-1.4298,-1.4298,-1.4298,-1.4298,-1.4298,-1.4298,-1.4298,-1.4298,-1.4298,-1.4298,-1.4298,-1.4298,-1.4298,-1.4298,-1.4298,-1.4298,-1.4298,-1.3908,-1.3022,-1.9374,-2.0057,-2.0987,-2.2127,-2.2997,-2.4266,-2.7129,-2.7367,-2.7538,-2.9395,-2.9233,-2.8699,-2.8686,-2.8063,-2.7523,-2.7523,-2.7523,0.0,0.0,0.0,0.0,0.0,0.0,0.0,0.0,0.0,0.0,0.0,0.0,0.0,0.0,0.0,0.0,0.0,0.0,0.0,-2.6533,-2.6533,-2.6533,-2.6533,-2.6533,-2.6533,-2.6465,-2.627,-2.6062,-2.591,-2.5688,-2.5465,-2.5229,-2.4409,-2.3158,-2.1731,-2.1362,-2.123,-2.1289,-2.1719,-2.2139,-2.2441,-2.2031,-2.2262,-2.2717,-2.2045,-2.1936,-2.2008,-2.1741,-2.1741,-2.1741,-2.1741,-2.1741,-2.1454,-2.0529,-2.0249,-2.0249,-2.0249,-1.9521,-1.8519,-1.7505,-1.7333,-1.6951,-1.6015,-1.5635,-1.5452,-1.5178,-1.4885,-1.4592,-1.4298,-1.4298,-1.4298,-1.4298,-1.4298,-1.4298,-1.4298,-1.4298,-1.4298,-1.4298,-1.4298,-1.4298,-1.4298,-1.4298,-1.4298,-1.4298,-1.4298,-1.4298,-1.4298,-1.4298,-1.4298,-1.4298,-1.4298,-1.4298,-1.4298,-1.3221,-1.2727,-1.8299,-1.9781,-2.1446,-2.2204,-2.4105,-2.6107,-2.7499,-2.8173,-2.8879,-3.0157,-2.983,-2.9161,-2.8602,-2.7915,0.0,-2.7523,0.0,0.0,0.0,0.0,0.0,0.0,0.0,0.0,0.0,0.0,0.0,0.0,0.0,0.0,0.0,0.0,0.0,0.0,0.0,0.0,-2.6533,-2.6533,-2.6533,-2.6533,-2.6533,-2.6533,-2.6465,-2.627,-2.6062,-2.584,-2.5087,-2.4933,-2.5229,-2.3829,-2.2424,-2.0954,-2.0781,-2.0957,-2.125,-2.1387,-2.1504,-2.1549,-2.1632,-2.1771,-2.1853,-2.1674,-2.1839,-2.2008,-2.1741,-2.1741,-2.1741,-2.1741,-2.1741,-2.1454,-2.0529,-1.9795,-1.9063,-1.8334,-1.7971,-1.7505,-1.648,-1.6204,-1.6109,-1.5635,-1.5356,-1.5172,-1.4885,-1.4592,-1.4394,-1.4298,-1.4298,-1.4298,-1.4298,-1.4298,-1.4298,-1.4298,-1.4298,-1.4298,-1.4298,-1.4298,-1.4298,-1.4298,-1.4298,-1.4298,-1.4298,-1.4298,-1.4298,-1.4298,-1.4298,-1.4298,-1.4298,-1.4298,-1.3908,-1.3216,-1.2829,-1.195,-1.9136,-2.0797,-2.2737,-2.3838,-2.5406,-2.7013,-2.8251,-2.8957,-2.9629,-3.0268,-2.9737,-2.9095,-2.8602,-2.7983,0.0,0.0,0.0,0.0,0.0,0.0,0.0,0.0,0.0,0.0,0.0,0.0,0.0,0.0,0.0,0.0,0.0,0.0,0.0,0.0,0.0,0.0,-2.6533,-2.6533,-2.6533,-2.6533,-2.6533,-2.6533,-2.6465,-2.6188,-2.598,-2.5828,-2.4719,-2.4337,-2.4276,-2.3021,-2.1983,-2.1011,-2.0712,-2.0732,-2.0967,-2.0967,-2.1084,-2.116,-2.1067,-2.1154,-2.1322,-2.1221,-2.1414,-2.1669,-2.1484,-2.1484,-2.1456,-2.13,-2.1255,-2.0896,-1.9618,-1.8921,-1.8355,-1.7483,-1.6951,-1.6574,-1.592,-1.5832,-1.573,-1.554,-1.5267,-1.4987,-1.479,-1.4496,-1.4298,-1.4298,-1.4298,-1.4298,-1.4298,-1.4298,-1.4298,-1.4298,-1.4298,-1.4298,-1.4298,-1.4298,-1.4298,-1.4298,-1.4298,-1.4298,-1.4298,-1.4298,-1.4298,-1.4298,-1.4298,-1.41,-1.3709,-1.3709,-1.3125,-1.2145,-1.2145,-1.1463,-2.104,-2.2369,-2.4149,-2.6087,-2.6752,-2.7393,-2.9188,-2.9684,-2.9741,-2.9827,-2.918,-2.8673,-2.862,-2.7957,-2.7523,0.0,0.0,0.0,0.0,0.0,0.0,0.0,0.0,0.0,0.0,0.0,0.0,0.0,0.0,0.0,0.0,0.0,0.0,0.0,0.0,0.0,-2.6533,-2.6533,-2.6533,0.0,-2.6533,-2.6465,-2.6465,-2.5968,-2.5688,-2.5465,-2.442,-2.3537,-2.2734,-2.2059,-2.1766,-2.1614,-2.0867,-2.0566,-2.0566,-2.0566,-2.082,-2.1043,-2.0399,-2.0633,-2.1042,-2.0782,-2.0893,-2.1053,-2.1053,-2.1053,-2.0979,-2.0622,-2.0521,-2.0081,-1.8156,-1.7889,-1.7959,-1.7301,-1.6466,-1.5825,-1.5737,-1.5737,-1.573,-1.554,-1.5267,-1.4987,-1.479,-1.4496,-1.4298,-1.4298,-1.4298,-1.4298,-1.4298,-1.4298,-1.4298,-1.4298,-1.4298,-1.4298,-1.4298,-1.4298,-1.4298,-1.4298,-1.4298,-1.4298,-1.4298,-1.4298,-1.4292,-1.4202,-1.41,-1.3613,-1.2533,-1.2533,-1.2047,-1.1072,-1.0974,-1.0974,-2.0716,-2.1597,-2.2878,-2.5185,-2.7287,-2.8887,-2.9267,-2.9416,-2.9285,-2.9032,-2.8684,-2.8323,-2.7878,-2.7615,0.0,0.0,0.0,0.0,0.0,0.0,0.0,0.0,0.0,0.0,0.0,0.0,0.0,0.0,0.0,0.0,0.0,0.0,0.0,0.0,0.0,-2.6533,-2.6533,-2.6533,-2.6533,0.0,-2.6533,-2.6396,-2.6201,-2.5382,-2.412,-2.2723,-2.3095,-2.2424,-2.1165,-2.1614,-2.1461,-2.0867,-2.0634,-2.0566,-2.0566,-2.042,-2.04,-2.0389,-1.991,-2.0042,-2.0372,-2.0136,-2.0319,-2.0649,-2.0649,-2.0649,-2.0622,-2.0539,-2.0521,-2.009,-1.8181,-1.7795,-1.7489,-1.6141,-1.5759,-1.573,-1.5635,-1.554,-1.5445,-1.5267,-1.4981,-1.479,-1.4694,-1.4496,-1.4298,-1.4298,-1.4298,-1.4298,-1.4298,-1.4298,-1.4298,-1.4298,-1.4298,-1.4298,-1.4298,-1.4298,-1.4298,-1.4298,-1.4298,-1.4298,-1.4298,-1.4298,-1.3902,-1.3022,-1.3022,-1.2538,-1.156,-1.1268,-1.0779,-0.9899,-0.9497,-0.9011,-2.1056,-2.2127,-2.3684,-2.6478,-2.8443,-2.9614,-2.934,-2.9274,-2.9109,-2.8313,-2.8048,-2.7876,-2.7589,0.0,0.0,0.0,0.0,0.0,0.0,0.0,0.0,0.0,0.0,0.0,0.0,0.0,0.0,0.0,0.0,0.0,0.0,0.0,0.0,0.0,-2.6533,-2.6533,-2.6533,-2.6533,-2.6465,-2.6339,-2.6339,-2.5816,-2.4779,-2.4636,-2.3526,-2.1832,-2.2209,-2.1766,-2.0644,-2.1011,-2.1021,-2.0566,-2.0566,-2.0566,-2.0566,-2.0342,-2.0264,-2.0264,-1.9803,-1.9776,-1.9901,-1.9861,-2.0072,-2.0237,-2.0237,-2.0237,-2.0191,-1.9989,-1.9597,-1.9011,-1.7584,-1.7025,-1.6533,-1.5285,-1.5312,-1.5564,-1.5514,-1.554,-1.5356,-1.4981,-1.479,-1.4688,-1.4496,-1.4394,-1.4298,-1.4298,-1.4298,-1.4298,-1.4298,-1.4298,-1.4298,-1.4298,-1.4298,-1.4298,-1.4298,-1.4298,-1.4298,-1.4298,-1.4298,-1.4298,-1.4298,-1.4298,-1.3806,-1.2727,-1.2242,-1.1365,-1.0194,-1.0096,-0.9505,-0.8421,-0.8124,-0.7829,-2.1471,-2.2984,-2.5065,-2.795,-2.9256,-2.979,-2.9379,-2.9274,-2.8974,-2.7902,-2.7589,-2.7523,0.0,0.0,0.0,0.0,0.0,0.0,0.0,0.0,0.0,0.0,0.0,0.0,0.0,0.0,0.0,0.0,0.0,0.0,0.0,0.0,-2.6314,-2.6314,-2.6452,-2.6533,-2.6533,-2.6533,-2.6396,-2.6213,-2.6131,-2.5087,-2.322,-2.3891,-2.3231,-2.1614,-2.1614,-2.1242,-2.0566,-2.0566,-2.0566,-2.0566,-2.0566,-2.0566,-2.0566,-2.0342,-2.0264,-2.0186,-1.9715,-1.9557,-1.9613,-1.9714,-1.9824,-1.9824,-1.9824,-1.9824,-1.967,-1.9234,-1.8567,-1.7755,-1.678,-1.6126,-1.5605,-1.4787,-1.4995,-1.5378,-1.5386,-1.535,-1.5255,-1.4688,-1.4592,-1.4592,-1.4298,-1.4298,-1.4298,-1.4298,-1.4298,-1.4298,-1.4298,-1.4298,-1.4298,-1.4298,-1.4298,-1.4298,-1.4298,-1.4298,-1.4298,-1.4298,-1.4298,-1.4202,-1.4004,-1.3902,-1.3221,-1.2145,-1.1463,-1.0489,-0.9019,-0.892,-0.8226,-0.7238,-0.7135,-0.7039,-2.1259,-2.3229,-2.5319,-2.6857,-2.8208,-2.9197,-2.9301,-2.9274,-2.9091,0.0,-2.7863,-2.7523,0.0,0.0,0.0,0.0,0.0,0.0,0.0,0.0,0.0,0.0,0.0,0.0,0.0,0.0,0.0,0.0,0.0,0.0,0.0,-2.5075,-2.5453,-2.5453,-2.6164,-2.6533,-2.6533,-2.6533,-2.6396,-2.6213,-2.584,-2.4791,-2.322,-2.3169,-2.2285,-2.0789,-2.0789,-2.0712,-2.0566,-2.0566,-2.0566,-2.0566,-2.0566,-2.0566,-2.0566,-2.0098,-1.9942,-1.9863,-1.946,-1.9301,-1.9311,-1.9366,-1.9384,-1.9384,-1.9384,-1.9384,-1.9207,-1.8416,-1.8078,-1.7594,-1.5966,-1.5712,-1.5605,-1.4787,-1.4806,-1.5,-1.4823,-1.4783,-1.4688,-1.4394,-1.4394,-1.4298,-1.4298,-1.4298,-1.4298,-1.4298,-1.4298,-1.4298,-1.4298,-1.4298,-1.4298,-1.4298,-1.4298,-1.4298,-1.4298,-1.4298,-1.4298,-1.4298,-1.4298,-1.3902,-1.2926,-1.2047,-1.0974,-0.9702,-1.0489,-1.0096,-0.8528,-0.7537,-0.7138,-0.7238,-0.6736,-0.6639,-2.1556,-2.2993,-2.4582,-2.6429,-2.7439,-2.8257,-2.8976,-2.9203,-2.9125,-2.8331,-2.7761,0.0,0.0,0.0,0.0,0.0,0.0,0.0,0.0,0.0,0.0,0.0,0.0,0.0,0.0,0.0,0.0,0.0,0.0,0.0,-2.4108,-2.442,-2.4862,-2.5312,-2.5664,0.0,-2.6533,-2.6533,-2.6327,-2.605,-2.5758,-2.4933,-2.3672,-2.3243,-2.2134,-2.0566,-2.0566,-2.0566,-2.0566,-2.0566,-2.0566,-2.0566,-2.0566,-2.0566,-2.0566,-2.0098,-1.9863,-1.9863,-1.946,-1.9301,-1.9301,-1.9301,-1.9301,-1.9301,-1.9301,-1.8975,-1.8487,-1.8078,-1.7261,-1.637,-1.5643,-1.5128,-1.4751,-1.4436,-1.4453,-1.4534,-1.453,-1.4592,-1.4592,-1.4394,-1.4298,-1.4298,-1.4298,-1.4298,-1.4298,-1.4298,-1.4298,-1.4298,-1.4298,-1.4298,-1.4298,-1.4298,-1.4298,-1.4298,-1.4298,-1.4298,-1.4004,-1.3414,-1.3414,-1.2926,-1.1853,-1.1268,-1.0587,-0.9706,-0.9213,-0.8524,-0.754,-0.7042,-0.6742,-0.6736,-0.6537,-0.6437,-2.1481,-2.24,-2.3416,-2.5407,-2.6406,-2.724,-2.8234,-2.8673,-2.8664,0.0,0.0,0.0,0.0,0.0,0.0,0.0,0.0,0.0,0.0,0.0,0.0,0.0,0.0,0.0,0.0,0.0,0.0,0.0,0.0,0.0,-2.3537,-2.3683,-2.407,-2.4731,-2.4874,-2.537,-2.6164,-2.6314,-2.6107,-2.5606,-2.5535,-2.4945,-2.3829,-2.3243,-2.2134,-2.0566,-2.0566,-2.0566,-2.0566,-2.0566,-2.0566,-2.0566,-2.0566,-2.0489,-2.0489,-2.002,-1.9784,-1.9784,-1.9381,-1.9301,-1.9301,-1.9301,-1.9301,-1.9222,-1.9054,-1.8487,-1.7917,-1.7432,-1.637,-1.5311,-1.5061,-1.4593,-1.4235,-1.4109,-1.4235,-1.4346,-1.4256,-1.449,-1.4496,-1.4298,-1.4298,-1.4298,-1.4298,-1.4298,-1.4298,-1.4298,-1.4298,-1.4298,-1.4298,-1.4298,-1.4298,-1.4298,-1.4298,-1.4202,-1.3908,-1.3902,-1.3414,-1.2436,-1.2242,-1.1755,-1.0685,-1.0386,-0.9895,-0.9209,-0.8035,-0.7244,-0.7042,-0.6842,-0.6639,-0.6437,-0.6437,-0.6437,-2.0451,-2.1154,-2.1914,-2.3276,-2.476,-2.6146,-2.6921,0.0,-2.7508,0.0,0.0,0.0,0.0,0.0,0.0,0.0,0.0,0.0,0.0,0.0,0.0,0.0,0.0,0.0,0.0,0.0,0.0,0.0,0.0,0.0,-2.1949,-2.2628,-2.3075,-2.315,-2.3768,-2.4564,-2.5382,-2.5758,-2.5535,-2.4791,-2.5158,-2.4492,-2.3032,-2.3032,-2.2134,-2.0566,-2.0566,-2.0566,-2.0566,-2.0566,-2.0566,-2.0566,-2.042,-2.0342,-2.0264,-1.9794,-1.9645,-1.9557,-1.9381,-1.9301,-1.9301,-1.9301,-1.9301,-1.9143,-1.8318,-1.8078,-1.7674,-1.5966,-1.5477,-1.5144,-1.4068,-1.4148,-1.4488,-1.4063,-1.4285,-1.4573,-1.4394,-1.4298,-1.4298,-1.4298,-1.4298,-1.4298,-1.4298,-1.4298,-1.4298,-1.4298,-1.4298,-1.4298,-1.4298,-1.4298,-1.4298,-1.4298,-1.4298,-1.3902,-1.2829,-1.2829,-1.2339,-1.1365,-1.1072,-1.0386,-0.9312,-0.9008,-0.8315,-0.6942,-0.6842,-0.7039,-0.7531,-0.6836,-0.6437,-0.6437,-0.6437,-0.6437,-1.951,-1.9999,-2.0677,-2.1864,-2.2989,-2.4026,-2.4928,-2.5778,-2.6369,0.0,0.0,0.0,0.0,0.0,0.0,0.0,0.0,0.0,0.0,0.0,0.0,0.0,0.0,0.0,0.0,0.0,0.0,0.0,0.0,0.0,-2.1807,-2.2101,-2.2478,-2.3001,-2.3287,-2.3706,-2.4337,-2.4492,-2.4264,-2.3745,-2.442,-2.412,-2.3032,-2.3032,-2.2435,-2.1318,-2.0789,-2.0566,-2.0566,-2.0566,-2.0489,-2.042,-2.0342,-2.0186,-2.0029,-1.9715,-1.9566,-1.9557,-1.939,-1.9301,-1.9301,-1.9301,-1.8895,-1.8407,-1.8078,-1.7188,-1.6206,-1.556,-1.4901,-1.4237,-1.3822,-1.3905,-1.4151,-1.4129,-1.4254,-1.4394,-1.4298,-1.4298,-1.4298,-1.4298,-1.4298,-1.4298,-1.4298,-1.4298,-1.4298,-1.4298,-1.4298,-1.4298,-1.4298,-1.4298,-1.4298,-1.4298,-1.3709,-1.3125,-1.2727,-1.195,-1.1072,-0.9998,-0.9698,-0.9008,-0.7932,-0.763,-0.7335,-0.6845,-0.6639,-0.6637,-0.6833,-0.6537,-0.6437,-0.6437,-0.6437,-0.6437,-1.8744,-1.9133,-1.9811,-2.0928,-2.1437,-2.2014,-2.3423,-2.4109,-2.4531,0.0,0.0,0.0,0.0,0.0,0.0,0.0,0.0,0.0,0.0,0.0,0.0,0.0,0.0,0.0,0.0,0.0,0.0,0.0,0.0,0.0,-2.158,-2.158,-2.1722,-2.2155,-2.2291,-2.2426,-2.2611,-2.2972,-2.29,-2.2382,-2.3104,-2.3044,-2.2185,-2.2185,-2.1745,-2.0947,-2.0503,-2.043,-2.0566,-2.0489,-2.042,-2.0264,-2.0108,-1.9951,-1.9784,-1.9548,-1.9478,-1.9478,-1.9381,-1.9301,-1.9301,-1.9301,-1.8895,-1.8327,-1.7755,-1.6772,-1.5718,-1.5151,-1.4321,-1.3672,-1.3769,-1.378,-1.3946,-1.4195,-1.4298,-1.4274,-1.4183,-1.4165,-1.4189,-1.428,-1.4226,-1.4189,-1.428,-1.4298,-1.4298,-1.4298,-1.4298,-1.4298,-1.4298,-1.4004,-1.3806,-1.3806,-1.2829,-1.2047,-1.1658,-1.0779,-0.9805,-0.8726,-0.8322,-0.7826,-0.7138,-0.6842,-0.6642,-0.6642,-0.6537,-0.6437,-0.6437,-0.6437,-0.6437,-0.6437,-0.6437,-0.6437,0.0,0.0,0.0,-2.0326,-2.0146,0.0,-2.2342,0.0,-2.1783,0.0,0.0,0.0,0.0,0.0,0.0,0.0,0.0,0.0,0.0,0.0,0.0,0.0,0.0,0.0,0.0,0.0,0.0,0.0,0.0,-2.158,-2.1124,-2.1093,-2.0886,-2.037,-2.0836,-2.0765,-2.0165,-2.1328,-2.1527,-2.0755,-2.1387,-2.1247,-2.0481,-2.0481,-2.0053,-1.9307,-1.9717,-2.0146,-2.0547,-2.0333,-2.0264,-2.0264,-1.9803,-1.9566,-1.9557,-1.939,-1.9301,-1.9301,-1.9301,-1.9301,-1.9301,-1.9301,-1.9301,-1.8975,-1.7188,-1.6698,-1.6288,-1.458,-1.3913,-1.3717,-1.3735,-1.3857,-1.396,-1.422,-1.4292,-1.4226,-1.396,-1.39,-1.3972,-1.4226,-1.4075,-1.3984,-1.4244,-1.4292,-1.4298,-1.4298,-1.4298,-1.4292,-1.4292,-1.3318,-1.263,-1.263,-1.1755,-1.0685,-0.9706,-0.9312,-0.8726,-0.7643,-0.7045,-0.6845,-0.6745,-0.6539,-0.6437,-0.6437,-0.6437,-0.6437,-0.6437,-0.6437,-0.6437,-0.6437,-0.6437,-0.6437,-1.7714,0.0,0.0,0.0,0.0,0.0,0.0,0.0,0.0,0.0,0.0,0.0,0.0,0.0,0.0,0.0,0.0,0.0,0.0,0.0,0.0,0.0,0.0,0.0,0.0,0.0,0.0,0.0,-2.1497,-2.1104,-2.0638,-2.0483,-2.0288,-2.0073,-2.0135,-2.0063,-1.9785,-2.0135,-2.0063,-1.9713,-2.0481,-2.041,-1.964,-2.0196,-2.0053,-1.9297,-1.9414,-1.9632,-1.9898,-2.0207,-2.0186,-1.9942,-1.9715,-1.9478,-1.9381,-1.9301,-1.9301,-1.9301,-1.9301,-1.9301,-1.9301,-1.9301,-1.8895,-1.8158,-1.7017,-1.6288,-1.556,-1.4419,-1.3913,-1.3717,-1.3561,-1.3631,-1.3688,-1.3954,-1.4159,-1.4226,-1.396,-1.3755,-1.3646,-1.3719,-1.3827,-1.393,-1.4002,-1.4171,-1.4298,-1.4298,-1.3613,-1.3119,-1.3119,-1.2242,-1.1658,-1.1658,-1.0681,-0.9899,-0.9608,-0.8627,-0.7839,-0.7341,-0.6942,-0.6742,-0.6539,-0.6437,-0.6437,-0.6437,-0.6437,-0.6437,-0.6437,-0.6437,-0.6437,-0.6437,-0.6437,-0.6437,-1.7575,-1.7712,-1.8032,-1.7526,0.0,0.0,0.0,-1.747,0.0,0.0,0.0,0.0,0.0,0.0,0.0,0.0,0.0,0.0,0.0,0.0,0.0,0.0,0.0,0.0,0.0,0.0,0.0,0.0,-2.1159,-2.0626,-1.99,-1.9565,-1.9384,-1.9304,-1.9163,-1.9093,-1.9023,-1.8962,-1.8891,-1.875,-1.9234,-1.9234,-1.875,-1.9234,-1.9234,-1.876,-1.8883,-1.8952,-1.9139,-1.9411,-1.9629,-1.9784,-1.9548,-1.939,-1.9301,-1.9301,-1.9301,-1.9301,-1.9301,-1.9301,-1.9301,-1.9301,-1.8727,-1.7836,-1.6944,-1.6124,-1.5228,-1.4334,-1.3913,-1.3694,-1.3423,-1.3404,-1.3556,-1.3707,-1.3857,-1.39,-1.3634,-1.3459,-1.3387,-1.3495,-1.355,-1.3646,-1.387,-1.4032,-1.3975,-1.3692,-1.3119,-1.2533,-1.2145,-1.117,-1.0489,-1.0489,-0.9608,-0.8924,-0.8924,-0.8137,-0.7543,-0.7341,-0.7042,-0.6742,-0.6539,-0.6437,-0.6437,-0.6437,-0.6437,-0.6437,-0.6437,-0.6437,-0.6437,-0.6437,-0.6437,-0.6437,-1.7585,-1.7579,-1.7859,-1.7185,-1.6406,0.0,-1.7366,-1.6903,-1.6523,0.0,0.0,0.0,0.0,0.0,0.0,0.0,0.0,0.0,0.0,0.0,0.0,0.0,0.0,0.0,0.0,0.0,-2.1359,-2.1205,-2.0712,-2.0068,-1.9184,-1.8654,-1.8337,-1.8414,-1.8144,-1.8076,-1.8269,-1.8076,-1.8008,-1.8008,-1.8008,-1.8008,-1.8008,-1.8008,-1.8008,-1.7959,-1.8218,-1.8341,-1.8347,-1.8338,-1.8825,-1.9492,-1.9316,-1.9265,-1.9301,-1.9301,-1.9301,-1.9301,-1.9301,-1.9222,-1.9143,-1.9143,-1.8567,-1.7674,-1.6854,-1.5959,-1.5144,-1.425,-1.3919,-1.3592,-1.3254,-1.3272,-1.3471,-1.3471,-1.3495,-1.3441,-1.3181,-1.3127,-1.3181,-1.3387,-1.329,-1.3314,-1.3779,-1.3912,-1.3738,-1.2989,-1.2829,-1.2339,-1.1365,-1.0293,-0.9501,-0.9383,-0.8502,-0.8014,-0.8014,-0.772,-0.763,-0.7643,-0.7144,-0.6842,-0.6845,-0.6539,-0.6437,-0.6437,-0.6437,-0.6437,-0.6437,-0.6437,-0.6437,-0.6437,-0.6437,-0.6437,-1.7668,-1.7528,-1.7308,-1.6036,-1.6052,0.0,-1.4955,-1.4785,-1.5063,0.0,0.0,0.0,0.0,0.0,0.0,0.0,0.0,0.0,0.0,0.0,0.0,0.0,0.0,0.0,0.0,0.0,-2.1205,-2.1205,-2.0139,-1.9324,-1.8994,-1.8576,-1.8269,-1.8076,-1.8008,-1.8008,-1.8076,-1.8008,-1.8008,-1.8008,-1.8008,-1.8008,-1.8008,-1.8008,-1.793,-1.7784,-1.7802,-1.7903,-1.789,-1.7893,-1.8397,-1.9133,-1.8902,-1.9017,-1.9301,-1.9301,-1.9301,-1.9301,-1.9301,-1.8816,-1.8238,-1.8238,-1.7674,-1.678,-1.5884,-1.5387,-1.488,-1.3815,-1.3351,-1.3218,-1.3132,-1.3169,-1.32,-1.32,-1.3363,-1.3441,-1.3181,-1.3127,-1.3073,-1.2898,-1.3175,-1.3471,-1.3574,-1.3942,-1.4142,-1.3998,-1.3216,-1.2339,-1.1365,-1.0293,-0.9257,-0.8254,-0.7952,-0.7855,-0.7855,-0.7761,-0.7717,-0.764,-0.7341,-0.7039,-0.6845,-0.6539,-0.6437,-0.6437,-0.6437,-0.6437,-0.6437,-0.6437,-0.6437,-0.6437,-0.6437,-0.6437,-1.7464,-1.7207,-1.7162,-1.5849,-1.5704,0.0,0.0,-1.4727,-1.4817,-1.5703,0.0,0.0,0.0,0.0,0.0,0.0,0.0,0.0,0.0,0.0,0.0,0.0,0.0,0.0,0.0,0.0,-2.0884,-2.0579,-1.9945,-1.9308,-1.8793,-1.8567,-1.8291,-1.8018,-1.8008,-1.8008,-1.8008,-1.8008,-1.8008,-1.8008,-1.8008,-1.8008,-1.8008,-1.8008,-1.7862,-1.7706,-1.7647,-1.7565,-1.7493,-1.7422,-1.7703,-1.8267,-1.8339,-1.866,-1.899,-1.8788,-1.8962,-1.9195,-1.8592,-1.817,-1.7917,-1.7504,-1.678,-1.5959,-1.5387,-1.472,-1.4055,-1.3392,-1.3137,-1.3052,-1.2966,-1.2899,-1.2916,-1.2916,-1.3012,-1.3073,-1.2946,-1.2916,-1.2874,-1.2729,-1.3037,-1.3363,-1.3495,-1.3731,-1.3761,-1.3406,-1.256,-1.1521,-1.0356,-0.9279,-0.8474,-0.7818,-0.7746,-0.7706,-0.7706,-0.777,-0.7748,-0.7727,-0.74,-0.7138,-0.7042,-0.6637,-0.6437,-0.6437,-0.6437,-0.6437,-0.6437,-0.6437,-0.6437,-0.6437,-0.6437,-0.6437,-1.7308,-1.7044,-1.7098,-1.585,-1.5583,-1.5628,0.0,0.0,0.0,-1.5868,0.0,0.0,0.0,0.0,0.0,0.0,0.0,0.0,0.0,0.0,0.0,0.0,0.0,0.0,0.0,0.0,-2.0098,-1.9589,-1.9416,-1.9097,-1.8576,-1.8533,-1.8398,-1.8135,-1.8047,-1.8008,-1.8008,-1.8008,-1.8008,-1.8008,-1.8008,-1.8008,-1.8008,-1.794,-1.7862,-1.7647,-1.7529,-1.7314,-1.7107,-1.6978,-1.7092,-1.7422,-1.7844,-1.8247,-1.8568,-1.8094,-1.8402,-1.8752,-1.7638,-1.7342,-1.7342,-1.6609,-1.5801,-1.4977,-1.4713,-1.4055,-1.3307,-1.3052,-1.3052,-1.2966,-1.279,-1.2705,-1.2705,-1.2705,-1.2705,-1.2705,-1.2705,-1.2705,-1.2705,-1.2705,-1.2886,-1.3127,-1.3393,-1.3296,-1.3026,-1.2379,-1.1612,-1.0624,-0.9356,-0.8549,-0.7959,-0.777,-0.7641,-0.7556,-0.7556,-0.7689,-0.7784,-0.7811,-0.7458,-0.7238,-0.7238,-0.6637,-0.6437,-0.6437,-0.6437,-0.6437,-0.6437,-0.6437,-0.6437,-0.6437,-0.6437,-0.6437,-1.7695,-1.7317,0.0,0.0,-1.6321,0.0,0.0,0.0,-1.5155,-1.4482,0.0,0.0,0.0,0.0,0.0,0.0,0.0,0.0,0.0,0.0,0.0,0.0,0.0,0.0,0.0,0.0,0.0,-1.8369,-1.7719,-1.758,-1.8221,-1.8136,-1.8232,-1.8484,-1.8203,-1.8008,-1.8008,-1.8008,-1.8008,-1.8008,-1.8008,-1.8008,-1.8008,-1.7784,-1.7657,-1.7529,-1.7314,-1.7107,-1.6908,-1.6908,-1.6936,-1.7009,-1.7413,-1.7816,-1.8079,-1.7672,-1.7519,-1.7552,-1.6952,-1.6167,-1.5289,-1.5206,-1.4468,-1.3561,-1.3392,-1.3222,-1.3052,-1.279,-1.279,-1.2705,-1.2705,-1.2705,-1.2705,-1.2705,-1.2705,-1.2705,-1.2705,-1.2705,-1.2705,-1.2705,-1.2729,-1.2837,-1.3121,-1.2626,-1.2215,-1.2151,-1.1349,-1.0403,-0.9511,-0.9206,-0.8644,-0.7715,-0.7489,-0.7397,-0.7397,-0.7536,-0.7678,-0.7801,-0.7458,-0.7238,-0.7238,-0.6637,-0.6437,-0.6437,-0.6437,-0.6437,-0.6437,-0.6437,-0.6437,-0.6437,-0.6437,-0.6437,0.0,0.0,0.0,0.0,0.0,0.0,-1.5459,0.0,-1.5088,0.0,0.0,0.0,0.0,0.0,0.0,0.0,0.0,0.0,0.0,0.0,0.0,0.0,0.0,0.0,0.0,0.0,0.0,0.0,0.0,-1.6768,-1.6875,-1.7364,-1.7703,-1.7628,-1.788,-1.8008,-1.8008,-1.8008,-1.8008,-1.8008,-1.8008,-1.8008,-1.8008,-1.7784,-1.7647,-1.747,-1.7314,-1.7107,-1.6908,-1.6908,-1.6908,-1.6848,-1.6581,-1.674,-1.7075,-1.6638,-1.6447,-1.6338,-1.5413,-1.4939,-1.4721,-1.4246,-1.3724,-1.3222,-1.3137,-1.2966,-1.2875,-1.2705,-1.2705,-1.2705,-1.2705,-1.2705,-1.2705,-1.2705,-1.2705,-1.2705,-1.2705,-1.2705,-1.2705,-1.2705,-1.2272,-1.1877,-1.2071,-1.1938,-1.1642,-1.1101,-1.0388,-0.9625,-0.9132,-0.8513,-0.8015,-0.7557,-0.7329,-0.7148,-0.7062,-0.7369,-0.753,-0.7206,-0.7024,-0.6939,-0.6736,-0.6537,-0.6437,-0.6437,-0.6437,-0.6437,-0.6437,-0.6437,-0.6437,-0.6437,-0.6437,-0.6437,-1.7363,0.0,0.0,0.0,0.0,0.0,0.0,0.0,0.0,0.0,0.0,0.0,0.0,0.0,-1.4277,-1.4097,0.0,0.0,0.0,0.0,0.0,0.0,0.0,0.0,0.0,0.0,0.0,0.0,0.0,0.0,-1.5604,-1.6413,-1.6979,-1.7046,-1.7499,-1.7794,-1.8008,-1.8008,-1.8008,-1.8008,-1.8008,-1.794,-1.793,-1.7725,-1.7588,-1.7392,-1.7176,-1.7038,-1.6908,-1.6908,-1.6908,-1.683,-1.6123,-1.5845,-1.5841,-1.5466,-1.5299,-1.5103,-1.4045,-1.3895,-1.4069,-1.338,-1.3137,-1.2966,-1.2966,-1.2875,-1.2705,-1.2705,-1.2705,-1.2705,-1.2705,-1.2705,-1.2705,-1.2705,-1.2705,-1.2705,-1.2705,-1.2705,-1.2619,-1.2363,-1.1757,-1.1149,-1.0631,-1.0675,-1.0603,-0.9897,-0.9121,-0.8539,-0.8469,-0.7786,-0.7326,-0.7366,-0.7234,-0.7054,-0.6792,-0.7204,-0.7292,-0.6795,-0.6787,-0.6705,-0.6434,-0.6437,-0.6437,-0.6437,-0.6437,-0.6437,-0.6437,-0.6437,-0.6437,-0.6437,-0.6437,-0.6437,0.0,0.0,0.0,-1.6406,0.0,0.0,0.0,0.0,-1.54,0.0,0.0,0.0,0.0,-1.5059,-1.4629,-1.4145,-1.4077,0.0,0.0,0.0,0.0,0.0,0.0,0.0,0.0,0.0,0.0,0.0,0.0,0.0,-1.4791,-1.5152,-1.6051,-1.7449,-1.7153,-1.7295,-1.8008,-1.8008,-1.8008,-1.8008,-1.8008,-1.793,-1.7706,-1.7598,-1.7392,-1.7166,-1.6978,-1.6908,-1.6908,-1.6908,-1.6908,-1.683,-1.6123,-1.533,-1.4585,-1.4104,-1.3931,-1.3921,-1.34,-1.3146,-1.3023,-1.279,-1.2705,-1.2705,-1.2705,-1.2705,-1.2705,-1.2705,-1.2705,-1.2705,-1.2705,-1.2705,-1.2705,-1.2705,-1.2705,-1.2705,-1.2705,-1.2705,-1.2448,-1.1499,-1.1322,-1.0712,-0.889,-0.8636,-0.8552,-0.8552,-0.7764,-0.7207,-0.7444,-0.7241,-0.7204,-0.7356,-0.7234,-0.7054,-0.6792,-0.6931,-0.6948,-0.6728,-0.6751,-0.6614,-0.6431,-0.6437,-0.6437,-0.6437,-0.6437,-0.6437,-0.6437,-0.6437,-0.6437,-0.6437,-0.6437,-0.6437,0.0,0.0,-1.7842,-1.7119,0.0,0.0,0.0,0.0,0.0,0.0,0.0,0.0,0.0,-1.5068,-1.4736,-1.459,-1.4218,-1.3874,0.0,0.0,0.0,0.0,0.0,0.0,0.0,0.0,0.0,0.0,0.0,0.0,0.0,-1.4029,-1.5066,-1.628,-1.6657,-1.7226,-1.8008,-1.7862,-1.7862,-1.8008,-1.7862,-1.7784,-1.7706,-1.7529,-1.7392,-1.7166,-1.6968,-1.6908,-1.6908,-1.6908,-1.6621,-1.6114,-1.5321,-1.4537,-1.3833,-1.3572,-1.31,-1.2635,-1.2338,-1.239,-1.2507,-1.2444,-1.2566,-1.2705,-1.2705,-1.2705,-1.2705,-1.2705,-1.2705,-1.2705,-1.2705,-1.2705,-1.2705,-1.2705,-1.2705,-1.2705,-1.2705,-1.2186,-1.1671,-1.1322,-1.0279,-0.9235,-0.8627,-0.8017,-0.758,-0.758,-0.7316,-0.7071,-0.7039,-0.691,-0.6897,-0.6764,-0.6637,-0.6609,-0.6523,-0.6563,-0.6572,-0.6731,-0.6557,-0.6415,-0.6431,-0.6437,-0.6437,-0.6437,-0.6437,-0.6437,-0.6437,-0.6437,-0.6437,-0.6437,-0.6448,-0.6448,-1.8008,-1.8008,0.0,0.0,-1.6719,0.0,-1.5898,0.0,0.0,0.0,0.0,0.0,0.0,-1.54,-1.501,-1.4963,-1.4482,-1.3946,0.0,-1.2624,0.0,0.0,0.0,0.0,0.0,0.0,-1.2142,-1.1973,0.0,0.0,0.0,0.0,-1.3923,-1.5035,-1.5738,-1.6446,-1.7157,-1.7295,-1.7364,-1.752,-1.7588,-1.7579,-1.7501,-1.7451,-1.7254,-1.7107,-1.6968,-1.6908,-1.6908,-1.6621,-1.6263,-1.5692,-1.4609,-1.3882,-1.3317,-1.2945,-1.2365,-1.19,-1.1814,-1.2017,-1.2203,-1.231,-1.2487,-1.2705,-1.2705,-1.2705,-1.2705,-1.2705,-1.2705,-1.2705,-1.2705,-1.2705,-1.2705,-1.2705,-1.2443,-1.2186,-1.2186,-1.1488,-1.0712,-1.0366,-0.9323,-0.8368,-0.8105,-0.7539,-0.7204,-0.7149,-0.7139,-0.7054,-0.6881,-0.6884,-0.6704,-0.6523,-0.6432,-0.6343,-0.6343,-0.6158,-0.6207,-0.6406,-0.6274,-0.6255,-0.6372,-0.6415,-0.6437,-0.6437,-0.6437,-0.6437,-0.6437,-0.6437,-0.6439,-0.6445,-0.6358,-0.5952]},{"header":{"parameterUnit":"m.s-1","parameterCategory":1,"la1":30.6,"la2":29.2853,"lo1":-89.7004,"lo2":-87.6739,"dy":0.0162,"dx":0.0183,"nx":112,"ny":82,"refTime":"2024-06-03T06:00:00:Z","depth":0,"parameterNumber":3,"parameterNumberName":"V-component_of_WINDS"},"data":[0.0,0.0,0.0,0.0,0.0,0.0,0.0,0.0,0.0,0.0,0.0,0.0,0.0,0.0,0.0,0.0,0.0,0.0,0.0,0.0,0.0,0.0,0.0,0.0,0.0,0.0,0.0,0.0,0.0,0.0,0.0,0.0,0.0,0.0,0.0,0.0,0.0,0.0,0.0,0.0,0.0,0.0,0.0,0.0,0.0,0.0,0.0,0.0,0.0,0.0,0.0,0.0,0.0,0.0,0.0,0.0,0.0,0.0,0.0,0.0,0.0,0.0,0.0,0.0,0.0,0.0,0.0,0.0,0.0,0.0,0.0,0.0,0.0,0.0,0.0,0.0,0.0,0.0,0.0,0.0,0.0,0.0,0.0,0.0,0.0,0.0,0.0,0.0,0.0,0.0,-3.2624,-3.3547,-3.6583,-3.8375,-3.8109,-3.8305,-3.6706,-3.2704,0.0,0.0,0.0,0.0,0.0,0.0,0.0,0.0,0.0,0.0,0.0,0.0,0.0,0.0,0.0,0.0,0.0,0.0,0.0,0.0,0.0,0.0,0.0,0.0,0.0,0.0,0.0,0.0,0.0,0.0,0.0,0.0,0.0,0.0,0.0,0.0,0.0,0.0,0.0,0.0,0.0,0.0,0.0,0.0,0.0,0.0,0.0,0.0,0.0,0.0,0.0,0.0,0.0,0.0,0.0,0.0,0.0,0.0,0.0,0.0,0.0,0.0,0.0,0.0,0.0,0.0,0.0,0.0,0.0,0.0,0.0,0.0,0.0,0.0,0.0,0.0,0.0,0.0,0.0,0.0,0.0,0.0,0.0,0.0,0.0,0.0,0.0,0.0,0.0,0.0,0.0,0.0,0.0,0.0,0.0,0.0,0.0,0.0,0.0,0.0,0.0,0.0,0.0,0.0,-3.3693,-3.7998,-3.896,-3.9534,-4.0081,-3.8589,-3.6332,-3.3261,0.0,0.0,0.0,0.0,0.0,0.0,0.0,0.0,0.0,0.0,0.0,0.0,0.0,0.0,0.0,0.0,0.0,0.0,0.0,0.0,0.0,0.0,0.0,0.0,0.0,0.0,0.0,0.0,0.0,0.0,0.0,0.0,0.0,0.0,0.0,0.0,0.0,0.0,0.0,0.0,0.0,0.0,0.0,0.0,0.0,0.0,0.0,0.0,0.0,0.0,0.0,0.0,0.0,0.0,0.0,0.0,0.0,0.0,0.0,0.0,0.0,0.0,0.0,0.0,0.0,0.0,0.0,0.0,0.0,0.0,0.0,0.0,0.0,0.0,0.0,0.0,0.0,0.0,0.0,0.0,0.0,0.0,0.0,0.0,0.0,0.0,0.0,0.0,0.0,0.0,0.0,0.0,0.0,0.0,0.0,0.0,0.0,0.0,0.0,0.0,0.0,0.0,0.0,-3.2854,-3.4844,-3.9225,-3.9627,-3.9781,-4.0189,-3.8603,-3.6373,-3.3488,-3.2308,0.0,0.0,0.0,0.0,0.0,0.0,0.0,0.0,0.0,0.0,0.0,0.0,0.0,0.0,0.0,0.0,0.0,0.0,0.0,0.0,0.0,0.0,0.0,0.0,0.0,0.0,0.0,0.0,0.0,0.0,0.0,0.0,0.0,0.0,0.0,0.0,0.0,0.0,0.0,0.0,0.0,0.0,0.0,0.0,0.0,0.0,0.0,0.0,0.0,0.0,0.0,0.0,0.0,0.0,0.0,0.0,0.0,0.0,0.0,0.0,0.0,0.0,0.0,0.0,0.0,0.0,0.0,0.0,0.0,0.0,0.0,0.0,0.0,0.0,0.0,0.0,0.0,0.0,0.0,0.0,0.0,0.0,0.0,0.0,0.0,0.0,0.0,0.0,0.0,0.0,0.0,0.0,0.0,0.0,0.0,0.0,0.0,0.0,0.0,0.0,0.0,0.0,-3.5015,-3.6273,-3.9548,-3.9782,-3.9799,-3.9868,-3.8246,-3.6118,-3.3579,-3.1692,0.0,0.0,0.0,0.0,0.0,0.0,0.0,0.0,0.0,0.0,0.0,0.0,0.0,0.0,0.0,0.0,0.0,0.0,0.0,0.0,0.0,0.0,0.0,0.0,0.0,0.0,0.0,0.0,0.0,0.0,0.0,0.0,0.0,0.0,0.0,0.0,0.0,0.0,0.0,0.0,0.0,0.0,0.0,0.0,0.0,0.0,0.0,0.0,0.0,0.0,0.0,0.0,0.0,0.0,0.0,0.0,0.0,0.0,0.0,0.0,0.0,0.0,0.0,0.0,0.0,0.0,0.0,0.0,0.0,0.0,0.0,0.0,0.0,0.0,0.0,0.0,0.0,0.0,0.0,0.0,0.0,0.0,0.0,0.0,0.0,0.0,0.0,0.0,0.0,0.0,0.0,0.0,0.0,0.0,0.0,0.0,0.0,0.0,0.0,0.0,0.0,0.0,-3.5736,-3.8052,-3.9698,-3.9901,-3.9901,-3.9884,-3.7337,-3.5081,-3.3516,-3.0722,0.0,0.0,0.0,0.0,0.0,0.0,0.0,0.0,0.0,0.0,0.0,0.0,0.0,0.0,0.0,0.0,0.0,0.0,0.0,0.0,0.0,0.0,0.0,0.0,0.0,0.0,0.0,0.0,0.0,0.0,0.0,0.0,0.0,0.0,0.0,0.0,0.0,0.0,0.0,0.0,0.0,0.0,0.0,0.0,0.0,0.0,0.0,0.0,0.0,0.0,0.0,0.0,0.0,0.0,0.0,0.0,0.0,0.0,0.0,0.0,0.0,0.0,0.0,0.0,0.0,0.0,0.0,0.0,0.0,0.0,0.0,0.0,0.0,0.0,0.0,0.0,0.0,0.0,0.0,0.0,0.0,0.0,0.0,0.0,0.0,0.0,0.0,0.0,0.0,0.0,0.0,0.0,0.0,0.0,0.0,0.0,0.0,0.0,0.0,0.0,0.0,0.0,-3.4664,-3.6767,-3.9699,-4.0037,-3.9665,-3.8704,-3.7216,-3.5186,-3.2508,0.0,0.0,0.0,0.0,0.0,0.0,0.0,0.0,0.0,0.0,0.0,0.0,0.0,0.0,0.0,0.0,0.0,0.0,0.0,0.0,0.0,0.0,0.0,0.0,0.0,0.0,0.0,0.0,0.0,0.0,0.0,0.0,0.0,0.0,0.0,0.0,0.0,0.0,0.0,0.0,0.0,0.0,0.0,0.0,0.0,0.0,0.0,0.0,0.0,0.0,0.0,0.0,0.0,0.0,0.0,0.0,0.0,0.0,0.0,0.0,0.0,0.0,0.0,0.0,0.0,0.0,0.0,0.0,0.0,0.0,0.0,0.0,0.0,0.0,0.0,0.0,0.0,0.0,0.0,0.0,0.0,0.0,0.0,0.0,0.0,0.0,0.0,0.0,0.0,0.0,0.0,0.0,0.0,0.0,0.0,0.0,0.0,0.0,0.0,0.0,0.0,0.0,-3.2578,-3.4058,-3.5954,0.0,-3.9394,-3.8886,-3.7652,-3.6417,-3.4576,-3.1881,0.0,0.0,0.0,0.0,0.0,0.0,0.0,0.0,0.0,0.0,0.0,0.0,0.0,0.0,0.0,0.0,0.0,0.0,0.0,0.0,0.0,0.0,0.0,0.0,0.0,0.0,0.0,0.0,0.0,0.0,0.0,0.0,0.0,0.0,0.0,0.0,0.0,0.0,0.0,0.0,0.0,0.0,0.0,0.0,0.0,0.0,0.0,0.0,0.0,0.0,0.0,0.0,0.0,0.0,0.0,0.0,0.0,0.0,0.0,0.0,0.0,0.0,0.0,0.0,0.0,0.0,0.0,0.0,0.0,0.0,0.0,0.0,0.0,0.0,0.0,0.0,0.0,0.0,0.0,0.0,0.0,0.0,0.0,0.0,0.0,0.0,0.0,0.0,0.0,0.0,0.0,0.0,0.0,0.0,0.0,0.0,0.0,0.0,0.0,0.0,0.0,0.0,-3.1931,-3.4165,-3.6197,-3.7736,-3.7905,-3.7601,-3.6823,-3.4709,-3.2927,0.0,0.0,0.0,0.0,0.0,0.0,0.0,0.0,0.0,0.0,0.0,0.0,0.0,0.0,0.0,0.0,0.0,0.0,0.0,0.0,0.0,0.0,0.0,0.0,0.0,0.0,0.0,0.0,0.0,0.0,0.0,0.0,0.0,0.0,0.0,0.0,0.0,0.0,0.0,0.0,0.0,0.0,0.0,0.0,0.0,0.0,0.0,0.0,0.0,0.0,0.0,0.0,0.0,0.0,0.0,0.0,0.0,0.0,0.0,0.0,0.0,0.0,0.0,0.0,0.0,0.0,0.0,0.0,0.0,0.0,0.0,0.0,0.0,0.0,0.0,0.0,0.0,0.0,0.0,0.0,0.0,0.0,0.0,0.0,0.0,0.0,0.0,0.0,0.0,0.0,0.0,0.0,0.0,0.0,0.0,0.0,0.0,0.0,0.0,0.0,0.0,0.0,0.0,-3.1911,-3.3778,-3.5622,-3.7686,-3.7905,-3.7161,-3.5318,-3.4798,-3.3412,-3.0611,0.0,0.0,0.0,0.0,0.0,0.0,0.0,0.0,0.0,0.0,0.0,0.0,0.0,0.0,0.0,0.0,0.0,0.0,0.0,0.0,0.0,0.0,0.0,0.0,0.0,0.0,0.0,0.0,0.0,0.0,0.0,0.0,0.0,0.0,0.0,0.0,0.0,0.0,0.0,0.0,0.0,0.0,0.0,0.0,0.0,0.0,0.0,0.0,0.0,0.0,0.0,0.0,0.0,0.0,0.0,0.0,0.0,0.0,0.0,0.0,0.0,0.0,0.0,0.0,0.0,0.0,0.0,0.0,0.0,0.0,0.0,0.0,0.0,0.0,0.0,0.0,0.0,0.0,0.0,0.0,0.0,0.0,0.0,0.0,0.0,0.0,0.0,0.0,0.0,0.0,0.0,0.0,0.0,0.0,0.0,0.0,0.0,0.0,0.0,0.0,0.0,0.0,-3.1461,-3.3136,-3.481,-3.6789,-3.6992,-3.6197,-3.4235,-3.4727,-3.364,-3.0132,0.0,0.0,0.0,0.0,0.0,0.0,0.0,0.0,0.0,0.0,0.0,0.0,0.0,0.0,0.0,0.0,0.0,0.0,0.0,0.0,0.0,0.0,0.0,0.0,0.0,0.0,0.0,0.0,0.0,0.0,0.0,0.0,0.0,0.0,0.0,0.0,0.0,0.0,0.0,0.0,0.0,0.0,0.0,0.0,0.0,0.0,0.0,0.0,0.0,0.0,0.0,0.0,0.0,0.0,0.0,0.0,0.0,0.0,0.0,0.0,0.0,0.0,0.0,0.0,0.0,0.0,0.0,0.0,0.0,0.0,0.0,0.0,0.0,0.0,0.0,0.0,0.0,0.0,0.0,0.0,0.0,0.0,0.0,0.0,0.0,0.0,0.0,0.0,0.0,0.0,0.0,0.0,0.0,0.0,0.0,0.0,0.0,0.0,0.0,0.0,0.0,0.0,-3.0818,-3.2493,-3.3981,-3.5453,-3.5622,-3.5057,-3.3567,-3.4524,-3.3706,-3.0164,0.0,0.0,0.0,0.0,0.0,0.0,0.0,0.0,0.0,0.0,0.0,0.0,0.0,0.0,0.0,0.0,0.0,0.0,0.0,0.0,0.0,0.0,0.0,0.0,0.0,0.0,0.0,0.0,0.0,0.0,0.0,0.0,0.0,0.0,0.0,0.0,0.0,0.0,0.0,0.0,0.0,0.0,0.0,0.0,0.0,0.0,0.0,0.0,0.0,0.0,0.0,0.0,0.0,0.0,0.0,0.0,0.0,0.0,0.0,0.0,-2.5031,0.0,0.0,0.0,0.0,0.0,0.0,0.0,0.0,0.0,0.0,0.0,0.0,0.0,0.0,0.0,0.0,0.0,0.0,0.0,0.0,0.0,0.0,0.0,0.0,0.0,0.0,0.0,0.0,0.0,0.0,0.0,0.0,0.0,0.0,0.0,0.0,0.0,0.0,0.0,0.0,0.0,-3.0908,-3.2493,-3.3981,-3.5453,-3.5915,-3.5513,-3.402,-3.4629,-3.3755,-3.0574,-2.995,0.0,0.0,0.0,0.0,0.0,0.0,0.0,0.0,0.0,0.0,0.0,0.0,0.0,0.0,0.0,0.0,0.0,0.0,0.0,0.0,0.0,0.0,0.0,0.0,0.0,0.0,0.0,0.0,0.0,0.0,0.0,0.0,0.0,0.0,0.0,0.0,0.0,0.0,0.0,0.0,0.0,0.0,0.0,0.0,0.0,0.0,0.0,0.0,0.0,0.0,0.0,0.0,0.0,0.0,0.0,0.0,0.0,0.0,0.0,0.0,-2.5659,0.0,0.0,0.0,0.0,0.0,0.0,0.0,0.0,0.0,0.0,0.0,0.0,0.0,0.0,0.0,0.0,0.0,0.0,0.0,0.0,0.0,0.0,0.0,0.0,0.0,0.0,0.0,0.0,0.0,0.0,0.0,0.0,0.0,0.0,0.0,0.0,0.0,0.0,0.0,0.0,-3.092,-3.2493,-3.405,-3.5761,-3.6174,-3.5762,-3.438,-3.5136,-3.4492,-3.1765,-3.0864,0.0,0.0,0.0,0.0,0.0,0.0,0.0,0.0,0.0,0.0,0.0,0.0,0.0,0.0,0.0,0.0,0.0,0.0,0.0,0.0,0.0,0.0,0.0,0.0,0.0,0.0,0.0,0.0,0.0,0.0,0.0,0.0,0.0,0.0,0.0,0.0,0.0,0.0,0.0,0.0,0.0,0.0,0.0,0.0,0.0,0.0,0.0,0.0,0.0,0.0,0.0,0.0,0.0,-2.934,-2.9744,-3.0268,-3.0268,-3.0268,-3.0208,-2.9086,-2.7979,-2.6901,0.0,0.0,0.0,0.0,0.0,0.0,0.0,0.0,0.0,0.0,0.0,0.0,0.0,0.0,0.0,0.0,0.0,0.0,0.0,0.0,0.0,0.0,0.0,0.0,0.0,-3.2714,-3.2769,0.0,0.0,0.0,0.0,0.0,0.0,0.0,0.0,0.0,0.0,0.0,0.0,-3.0915,-3.2493,-3.4134,-3.6086,-3.6367,-3.6,-3.499,-3.5705,-3.5254,-3.3051,-3.2022,-3.1165,0.0,0.0,0.0,0.0,0.0,0.0,0.0,0.0,0.0,0.0,0.0,0.0,0.0,0.0,0.0,0.0,0.0,0.0,0.0,0.0,0.0,0.0,0.0,0.0,0.0,0.0,0.0,0.0,0.0,0.0,0.0,0.0,-2.0453,-1.9742,0.0,0.0,0.0,0.0,0.0,0.0,0.0,0.0,0.0,0.0,0.0,0.0,0.0,0.0,-2.9175,-3.0402,-3.1061,-3.1108,-3.2302,-3.2901,-3.2976,-3.2976,-3.2976,-3.2976,-3.2796,0.0,-2.8323,-2.8248,0.0,0.0,0.0,0.0,0.0,0.0,0.0,0.0,0.0,0.0,0.0,0.0,0.0,0.0,0.0,0.0,0.0,0.0,0.0,0.0,0.0,0.0,-3.4344,-3.488,-3.4162,-3.3456,0.0,-3.1823,-2.9995,-2.9691,0.0,0.0,0.0,0.0,0.0,0.0,0.0,0.0,-3.1004,-3.2493,-3.4134,-3.6086,-3.6597,-3.6626,-3.6132,-3.5942,-3.516,-3.3442,-3.3234,-3.2819,-3.2019,-3.0381,0.0,0.0,0.0,0.0,0.0,0.0,0.0,0.0,0.0,0.0,0.0,0.0,0.0,0.0,0.0,0.0,0.0,0.0,0.0,0.0,0.0,0.0,0.0,0.0,0.0,0.0,0.0,0.0,0.0,-2.1188,-2.1216,-2.0662,-2.1361,-2.134,0.0,0.0,0.0,0.0,0.0,0.0,0.0,0.0,0.0,-2.9146,-2.9594,-3.0253,-3.1225,-3.2168,-3.2826,-3.3185,-3.3769,-3.4247,-3.4622,-3.4622,-3.4622,-3.4622,-3.4622,-3.3589,-3.1809,-3.0717,-2.946,-2.8203,0.0,0.0,0.0,0.0,0.0,-2.8498,-2.9155,0.0,0.0,0.0,0.0,0.0,0.0,0.0,0.0,0.0,0.0,0.0,0.0,0.0,0.0,-3.6735,-3.6397,-3.6014,-3.6356,-3.4692,-3.2807,0.0,-3.1122,-3.0335,-2.834,0.0,0.0,0.0,0.0,-3.0627,-3.1664,-3.3332,-3.4995,-3.6475,-3.7017,-3.7075,-3.6712,-3.614,-3.5512,-3.4848,-3.3582,-3.3158,-3.3733,-3.2237,-3.0984,0.0,0.0,0.0,0.0,0.0,0.0,0.0,0.0,0.0,0.0,0.0,0.0,0.0,0.0,0.0,0.0,0.0,0.0,0.0,0.0,0.0,0.0,0.0,0.0,0.0,0.0,0.0,0.0,-2.1777,-2.2118,-2.1649,-2.2844,-2.3111,0.0,0.0,0.0,0.0,0.0,0.0,-2.8487,-2.8314,-2.9218,-3.145,-3.2018,-3.2602,-3.3275,-3.3769,-3.4262,-3.4741,-3.4741,-3.5011,-3.5504,-3.5504,-3.5504,-3.5504,-3.5504,-3.522,-3.4592,-3.2781,-3.136,-3.0268,-2.9609,-2.9034,-2.8658,-2.9185,-2.9474,-2.9816,-3.0861,-3.1369,-3.153,-3.1734,0.0,-3.1634,-3.0911,0.0,0.0,0.0,0.0,-3.4516,-3.5629,0.0,-3.7253,-3.8027,-3.8046,-3.7936,-3.8159,-3.7136,-3.5566,0.0,-3.3278,-3.2627,-3.0255,0.0,0.0,0.0,0.0,-3.1749,-3.2476,-3.4093,-3.5642,-3.6773,-3.7283,-3.7435,-3.7341,-3.6413,-3.5833,-3.5895,-3.4105,-3.3698,-3.5133,-3.389,-3.2598,-3.1458,0.0,0.0,0.0,0.0,0.0,0.0,0.0,0.0,0.0,0.0,0.0,0.0,0.0,0.0,0.0,0.0,0.0,0.0,0.0,0.0,0.0,0.0,0.0,0.0,0.0,0.0,0.0,0.0,0.0,-2.2788,-2.4885,0.0,0.0,0.0,0.0,-2.732,-2.8008,-2.9212,-3.1168,-3.1273,-3.2169,-3.4203,-3.4307,-3.4666,-3.5355,-3.5385,-3.5429,-3.5444,-3.5444,-3.5474,-3.5504,-3.5504,-3.5504,-3.5504,-3.5504,-3.5489,-3.534,-3.3963,-3.2991,-3.2302,-3.1644,-3.1321,-3.1338,-3.1369,-3.1811,-3.2507,-3.259,-3.2977,-3.3693,-3.5153,-3.5467,-3.5239,-3.5255,-3.4758,0.0,0.0,-3.5454,-3.6645,-3.6738,-3.7302,-3.8037,-3.8791,-3.8388,-3.807,-3.8807,-3.8355,-3.7301,0.0,-3.4331,-3.315,-3.2276,0.0,-3.1938,-3.1157,-3.1715,-3.2493,-3.3254,-3.4418,-3.5642,-3.6773,-3.7283,-3.765,-3.8086,-3.6753,-3.5895,-3.5895,-3.5184,-3.5143,-3.6003,-3.5292,-3.4844,-3.4752,-3.177,0.0,0.0,0.0,0.0,0.0,0.0,0.0,0.0,0.0,0.0,0.0,0.0,0.0,0.0,0.0,0.0,0.0,0.0,0.0,0.0,0.0,0.0,0.0,0.0,0.0,0.0,0.0,0.0,-2.5853,-2.7801,0.0,-2.6842,-2.8166,-2.9262,-2.964,-3.0562,-3.1794,-3.335,-3.3425,-3.3963,-3.51,-3.5549,-3.5684,-3.5504,-3.5923,-3.5923,-3.5504,-3.5504,-3.5504,-3.5504,-3.5504,-3.5504,-3.5504,-3.5504,-3.5504,-3.5474,-3.4981,-3.4382,-3.3739,-3.3531,-3.3171,-3.2821,-3.2809,-3.3264,-3.3851,-3.3873,-3.4029,-3.4471,-3.5568,-3.6436,-3.7049,-3.7053,-3.6904,-3.6671,-3.6705,-3.7419,-3.822,-3.8204,-3.8774,-3.9396,-3.9632,-3.948,-3.9396,-3.9632,-3.916,-3.8472,-3.7898,-3.6992,-3.574,-3.4007,-3.4122,-3.3837,-3.2154,-3.2933,-3.3922,-3.4487,-3.555,-3.6562,-3.721,-3.7703,-3.7853,-3.7515,-3.6557,-3.5982,-3.6042,-3.484,-3.4751,-3.6182,-3.543,-3.4752,-3.4247,-3.3109,-3.1219,0.0,0.0,0.0,0.0,0.0,0.0,0.0,0.0,0.0,0.0,0.0,0.0,0.0,0.0,0.0,0.0,0.0,0.0,0.0,0.0,0.0,0.0,0.0,0.0,0.0,0.0,-2.7106,-2.7558,-2.9724,-3.0544,-2.8862,-3.0622,-3.1901,-3.2032,-3.2943,-3.3903,-3.4786,-3.4816,-3.513,-3.5818,-3.6252,-3.6372,-3.6148,-3.6372,-3.6267,-3.5833,-3.5609,-3.5504,-3.5504,-3.5504,-3.5504,-3.5504,-3.5504,-3.5504,-3.5504,-3.5504,-3.5235,-3.4816,-3.485,-3.4583,-3.4147,-3.419,-3.4423,-3.4834,-3.4906,-3.5171,-3.5548,-3.6118,-3.7081,-3.8093,-3.8266,-3.8351,-3.8367,-3.8589,-3.8992,-3.9379,-3.9379,-3.975,-4.007,-4.007,-4.007,-4.007,-4.007,-3.975,-3.9379,-3.9379,-3.8554,-3.7424,-3.5926,-3.6062,-3.5893,-3.4404,-3.5013,-3.5688,-3.572,-3.6626,-3.7298,-3.7301,-3.7915,-3.8089,-3.7544,-3.6583,-3.6035,-3.6113,-3.4623,-3.4376,-3.5807,-3.5055,-3.4486,-3.4211,-3.3508,-3.1931,-2.9494,0.0,0.0,0.0,0.0,0.0,0.0,0.0,0.0,0.0,0.0,0.0,0.0,0.0,0.0,0.0,0.0,0.0,0.0,0.0,0.0,0.0,0.0,0.0,-2.4955,-2.655,-2.775,-2.7802,-3.0613,-3.2048,-3.0731,-3.2976,-3.4502,-3.4502,-3.513,-3.5519,-3.5534,-3.5534,-3.5833,-3.6492,-3.6537,-3.6821,-3.7404,-3.6806,-3.6507,-3.6477,-3.5818,-3.5504,-3.5504,-3.5504,-3.5519,-3.5534,-3.5534,-3.5534,-3.5534,-3.5534,-3.5534,-3.5504,-3.5504,-3.5504,-3.5504,-3.5504,-3.5504,-3.5524,-3.5687,-3.6198,-3.6909,-3.7074,-3.7671,-3.8407,-3.9028,-3.9235,-3.9301,-3.9952,-4.007,-4.007,-4.007,-4.007,-4.007,-4.007,-4.007,-4.007,-4.007,-4.007,-4.007,-4.007,-3.894,-3.7949,-3.7915,-3.7911,-3.7939,-3.7905,-3.7905,0.0,-3.6954,-3.7551,-3.7777,-3.7062,-3.7792,-3.8325,-3.8271,-3.6936,-3.6095,-3.6113,-3.4679,-3.4174,-3.5009,-3.4284,-3.4211,-3.4972,-3.2926,-3.1392,-3.055,0.0,0.0,0.0,0.0,0.0,0.0,0.0,0.0,0.0,0.0,0.0,0.0,0.0,0.0,0.0,0.0,0.0,0.0,0.0,0.0,0.0,0.0,-2.6273,-2.6768,-2.851,-2.9899,-3.0401,-3.2497,-3.3604,-3.2751,-3.4218,-3.522,-3.522,-3.54,-3.5714,-3.6193,-3.6222,-3.6507,-3.7135,-3.7614,-3.7719,-3.7404,-3.724,-3.6926,-3.6477,-3.5818,-3.5504,-3.5504,-3.5504,-3.5774,-3.6222,-3.6222,-3.6222,-3.6222,-3.6222,-3.5938,-3.5504,-3.5504,-3.5504,-3.5504,-3.5504,-3.5504,-3.5539,-3.5841,-3.6337,-3.7017,-3.7737,-3.8107,-3.8502,-3.9523,-3.9556,-3.9309,-3.9918,-4.007,-4.007,-4.007,-4.007,-4.007,-4.007,-4.007,-4.007,-4.007,-4.007,-4.007,-4.007,-3.9783,-3.931,-3.8787,-3.8717,-3.8514,-3.799,-3.7905,0.0,-3.8495,-3.8842,-3.8925,-3.8726,-3.9041,-3.8769,-3.7603,-3.6638,-3.6142,-3.6237,-3.4724,-3.4449,-3.5881,-3.5128,-3.4752,-3.499,-3.328,-3.213,0.0,0.0,0.0,0.0,0.0,0.0,0.0,0.0,0.0,0.0,0.0,0.0,0.0,0.0,0.0,0.0,0.0,0.0,0.0,0.0,0.0,0.0,-2.6732,-2.795,-2.8326,-2.961,-3.0634,-3.1013,-3.2839,-3.3918,-3.3529,-3.4648,-3.5439,-3.5504,-3.5439,-3.5708,-3.6447,-3.6492,-3.6896,-3.7793,-3.8197,-3.8347,-3.8257,-3.7689,-3.7225,-3.6866,-3.5938,-3.5504,-3.5519,-3.5789,-3.6133,0.0,-3.6761,-3.6731,-3.6492,-3.6492,-3.6088,0.0,0.0,0.0,0.0,0.0,-3.5539,-3.5593,-3.5917,-3.6275,-3.6754,-3.762,-3.7939,-3.8124,-3.9365,-3.947,-3.9312,-3.9918,-4.007,-4.007,-4.007,-4.007,-4.007,-4.007,-4.007,-4.007,-4.007,-4.007,-4.007,-4.007,0.0,0.0,-3.9512,-3.9445,-3.9309,-3.8886,-3.8819,-3.886,0.0,-3.9563,-3.9722,-3.9421,-3.9857,-3.967,-3.841,-3.7613,0.0,0.0,0.0,-3.4963,-3.5238,-3.511,0.0,0.0,0.0,0.0,0.0,0.0,0.0,0.0,-3.4543,-3.5592,0.0,0.0,0.0,0.0,0.0,0.0,0.0,0.0,0.0,0.0,0.0,0.0,0.0,0.0,0.0,0.0,-2.8187,-2.9674,-2.9653,-3.0201,-3.0594,-3.063,-3.23,-3.3499,-3.3499,-3.4579,-3.5368,-3.5504,-3.5428,-3.5755,-3.6567,0.0,0.0,0.0,0.0,-3.8796,-3.9409,-3.8078,-3.7404,-3.7389,-3.6118,-3.5504,-3.5534,-3.6193,-3.6522,-3.6626,-3.7255,-3.721,-3.6701,-3.6626,-3.6163,-3.5504,-3.5504,-3.5504,-3.5504,-3.5504,-3.5593,0.0,0.0,0.0,0.0,-3.7131,-3.7358,-3.7519,-3.8756,-3.9098,-3.9189,-3.985,-4.007,-4.007,-4.007,-4.007,-4.007,-4.007,-4.007,-4.007,-4.007,-4.007,-4.007,-4.007,-4.007,-4.007,-4.007,-4.007,-4.007,-4.007,-4.007,0.0,-3.937,-4.0103,-4.0394,-3.978,0.0,0.0,-4.001,-3.9158,-3.8395,-3.7661,-3.6872,-3.5771,-3.4284,-3.4908,-3.4963,-3.4229,-3.5066,-3.5769,-3.6342,-3.6868,-3.7443,-3.7939,-3.6442,-3.7047,0.0,0.0,0.0,0.0,0.0,0.0,0.0,0.0,0.0,0.0,0.0,0.0,0.0,0.0,0.0,-2.9385,-3.0073,-3.0312,-3.0308,-3.0895,-3.1332,-3.1321,-3.2436,-3.33,-3.3499,-3.4836,-3.5711,-3.5534,-3.6276,-3.6901,-3.7225,-3.7734,0.0,-3.9185,-3.923,-3.929,-3.9424,-3.8078,-3.7404,-3.7389,0.0,0.0,-3.5534,-3.6193,-3.6761,-3.727,-3.7913,-3.8138,-3.7988,-3.7449,-3.6552,-3.5504,-3.5504,-3.5504,-3.5504,-3.5623,-3.5676,-3.5728,-3.6058,-3.6183,-3.6322,-3.7131,-3.7074,-3.6892,-3.8124,-3.8446,0.0,-3.9189,-3.9747,-4.007,-4.007,-4.007,-4.007,-4.007,-4.007,-4.007,-4.007,-4.007,-4.007,-4.007,-4.007,-4.007,-4.007,-4.007,-4.007,-4.007,-4.007,-4.0351,-4.1101,-4.1384,-4.1546,-4.1506,-4.1774,-4.1653,-4.0833,-3.942,-3.8535,-3.8469,-3.7698,-3.711,-3.678,-3.6927,-3.6927,-3.678,-3.6343,-3.6269,-3.6544,-3.7968,-3.8813,-3.9076,-3.9028,-3.9956,0.0,0.0,0.0,0.0,0.0,0.0,0.0,0.0,0.0,0.0,0.0,-2.5935,-2.787,0.0,-2.8788,-3.0319,-3.083,-3.0891,-3.054,-3.1087,-3.1528,-3.1471,-3.2492,-3.3553,-3.4427,-3.4993,-3.5503,-3.5998,-3.6,-3.6393,-3.7375,-3.7719,-3.8362,-3.9394,-3.9424,-3.9424,-3.9424,-3.8078,-3.7404,-3.7389,-3.6118,-3.5504,-3.5534,-3.6193,-3.6821,-3.7449,-3.8108,-3.8197,-3.7823,-3.6851,-3.6073,-3.5504,-3.5504,-3.5554,-3.5589,-3.5672,-3.5834,-3.5993,-3.6119,-3.6259,-3.6461,-3.7163,-3.7178,-3.7178,-3.8407,-3.8739,-3.8865,-3.947,-3.9867,-4.007,-4.007,-4.007,-4.007,-4.007,-4.007,-4.007,-4.007,-4.007,-4.007,-4.007,-4.007,-4.007,-4.007,-4.007,-4.007,-4.007,-4.0188,-4.0451,-4.1213,-4.1639,-4.2002,-4.2303,-4.2665,-4.2512,-4.1705,-4.013,-3.9245,-3.9294,-3.8542,-3.7918,-3.7514,-3.7881,-3.8102,-3.8102,-3.8118,-3.8343,-3.8836,-3.9694,-4.0376,-4.0866,-4.1349,-4.2049,0.0,0.0,0.0,0.0,0.0,0.0,0.0,-2.4094,-2.4173,-2.5978,-2.6371,-2.7202,-2.9813,-3.0256,-3.0456,-3.0981,-3.1427,-3.1471,-3.0773,-3.1176,-3.1456,-3.1456,-3.2438,-3.3591,-3.4803,-3.492,-3.5236,-3.6201,-3.5681,-3.5904,-3.718,-3.7345,-3.7958,-3.9185,-3.923,-3.929,-3.9424,-3.8078,-3.7404,-3.7389,-3.6118,-3.5504,-3.5534,-3.6193,-3.6761,-3.727,-3.7913,-3.7823,-3.715,-3.6118,-3.5624,-3.5504,-3.5504,-3.5604,-3.5752,-3.5752,-3.5943,-3.6196,-3.6196,-3.6352,-3.6538,-3.6997,-3.7178,-3.7401,-3.8535,-3.892,-3.9135,-3.9747,-4.002,-4.007,-4.007,-4.007,-4.007,-4.007,-4.007,-4.007,-4.007,-4.007,-4.007,-4.007,-4.007,-4.007,-4.007,-4.0138,-4.0138,-4.0138,-4.0238,-4.05,-4.1041,-4.1621,-4.2203,-4.277,-4.325,-4.3167,-4.2378,-4.1111,-4.0286,-4.0139,-3.9515,-3.8872,-3.8212,-3.8817,-3.9166,-3.9166,-3.9798,-4.0454,-4.1117,-4.1268,-4.1691,-4.2316,-4.3036,-4.349,-2.1396,-2.1776,-2.211,-2.2327,-2.2241,-2.2702,0.0,-2.4768,-2.4948,-2.7116,-2.8233,-2.9322,-3.1099,-3.2109,-3.2734,-3.3109,-3.2721,-3.2139,-3.1489,-3.1456,-3.1471,-3.1362,-3.2343,-3.297,-3.2835,-3.4478,-3.5516,-3.5589,-3.641,-3.6758,-3.6611,-3.7105,-3.7749,-3.8482,-3.8497,-3.8796,-3.9409,-3.8078,-3.7404,-3.7389,-3.6118,-3.5504,-3.5534,-3.6193,-3.6522,-3.6626,-3.7255,-3.7165,-3.6582,-3.6432,-3.6028,-3.5504,-3.5504,-3.5683,-3.5973,-3.5973,-3.6085,-3.6196,-3.6196,-3.6352,-3.6492,-3.6399,-3.6461,-3.6723,-3.7401,-3.7969,-3.8518,-3.9135,-3.9696,-4.007,-4.007,-4.007,-4.007,-4.007,-4.007,-4.007,-4.007,-4.007,-4.007,-4.007,-4.007,-4.007,-4.007,-4.0188,-4.0305,-4.0305,-4.0288,-4.0676,-4.1725,-4.1937,-4.2364,-4.3321,-4.3444,-4.3167,-4.2378,-4.2139,-4.1735,-4.102,-4.0891,-4.0799,-4.0708,-4.0799,-4.0836,-4.0836,-4.0928,-4.1015,-4.1117,-4.1831,-4.2216,-4.2334,-4.3395,-4.4061,-2.1796,-2.2248,-2.2667,-2.2901,-2.357,-2.4412,-2.5322,-2.5524,-2.5966,-2.7324,-2.8928,-3.0425,-3.1279,-3.2302,-3.3109,-3.3455,-3.2617,-3.1945,-3.2063,-3.1693,-3.1205,-3.0794,-3.1984,-3.3094,-3.3891,-3.4514,-3.5107,-3.5696,-3.5792,-3.6007,-3.6328,-3.6664,-3.7524,-3.8945,-3.899,-3.9499,-4.0546,-3.9245,-3.8377,-3.7958,-3.6686,-3.5878,-3.5519,-3.5789,-3.6118,-3.6492,-3.6761,-3.6731,-3.6462,-3.6073,-3.5744,-3.5504,-3.5504,-3.5668,-3.5973,-3.5973,-3.6163,-3.6352,-3.6352,-3.6414,-3.6492,-3.6414,-3.6646,-3.7118,-3.7738,-3.8351,-3.8974,-3.9575,-3.9918,-4.007,-4.007,-4.007,-4.007,-4.007,-4.007,-4.007,-4.007,-4.007,-4.007,-4.007,-4.007,-4.007,-4.007,-4.0138,-4.032,-4.0707,-4.0614,-4.0884,-4.1853,-4.208,-4.2462,-4.341,-4.3497,-4.3351,-4.302,-4.2561,-4.2158,-4.1827,-4.1368,-4.1111,-4.1111,-4.1552,-4.1809,-4.1809,-4.2268,-4.2488,-4.2485,-4.2821,-4.2986,-4.3018,-4.3695,-4.4161,-2.2011,-2.2576,-2.3257,-2.3748,-2.497,-2.5971,-2.5821,-2.6293,-2.6935,-2.761,-2.9172,-3.0616,-3.1188,-3.2198,-3.3045,-3.3469,-3.2542,-3.1916,-3.2375,-3.1812,-3.1117,-3.051,-3.1801,-3.3176,-3.4435,-3.4514,-3.4806,-3.5598,-3.52,-3.5274,-3.5896,-3.6141,-3.6941,-3.8556,-3.8766,-3.9499,-4.0831,-3.9709,-3.8886,-3.8377,-3.709,-3.6148,-3.5504,-3.5504,-3.5759,-3.6207,-3.6207,-3.6207,-3.6178,-3.5699,-3.5504,-3.5504,-3.5504,-3.5668,-3.5973,-3.5973,-3.6226,-3.6492,-3.6414,-3.6429,-3.6492,-3.6646,-3.6997,-3.7519,-3.8294,-3.8849,-3.9312,-3.9918,-4.007,-4.007,-4.007,-4.007,-4.007,-4.007,-4.007,-4.007,-4.007,-4.007,-4.007,-4.007,-4.007,-4.007,-4.007,-4.0171,-4.0385,-4.0984,-4.1007,-4.1237,-4.2121,-4.2422,-4.2808,-4.3444,-4.3497,-4.3497,-4.3497,-4.2965,-4.2635,-4.2635,-4.2084,-4.1772,-4.1772,-4.2323,-4.2635,-4.2635,-4.3185,-4.3497,-4.3497,-4.3497,-4.3497,-4.3497,-4.3826,-4.4165,-2.2095,-2.2884,-2.3983,-2.4914,-2.5953,-2.6707,-2.6366,-2.7004,-2.7771,-2.825,-2.9057,-2.9983,-3.104,-3.2093,-3.2961,-3.3395,-3.2931,-3.2405,-3.2338,-3.1718,-3.116,-3.0813,-3.1887,-3.2937,0.0,-3.4266,-3.4765,-3.4898,-3.5082,-3.5228,-3.5243,-3.5389,-3.5863,-3.6552,-3.7165,-3.8108,-3.9469,-3.8781,-3.8407,-3.8377,-3.709,-3.6148,-3.5504,-3.5504,-3.5519,-3.5534,-3.5534,-3.5534,-3.5534,-3.5519,-3.5504,-3.5504,-3.5504,-3.5668,-3.5973,-3.5973,-3.6226,-3.6492,-3.6274,-3.6352,-3.6538,-3.6966,-3.7207,-3.7637,-3.881,-3.9206,-3.9312,-3.9918,-4.007,-4.007,-4.007,-4.007,-4.007,-4.007,-4.007,-4.007,-4.007,-4.007,-4.007,-4.007,-4.007,-4.007,-4.007,-4.0337,-4.0645,-4.1047,-4.1321,-4.1821,-4.275,-4.3232,-4.3479,-4.3497,-4.3497,-4.3497,-4.3497,-4.3461,-4.3442,-4.3442,-4.3424,-4.3424,-4.3424,-4.3442,-4.3442,-4.3442,-4.3479,-4.3497,-4.3497,-4.3497,-4.3497,-4.3497,-4.3826,-4.4179,-2.3933,-2.4722,-2.5379,-2.576,-2.6371,-2.6901,-2.6811,-2.7167,-2.749,-2.7539,-2.8762,-2.99,-2.9937,-3.1049,-3.2287,-3.332,-3.281,-3.2568,-3.3461,-3.3176,-3.2713,-3.2115,-3.3108,0.0,0.0,0.0,0.0,-3.4534,-3.475,-3.4898,-3.4898,-3.5162,-3.5993,-3.758,-3.7888,-3.8916,-4.0711,-3.9619,-3.8841,-3.8362,-3.6656,-3.5714,-3.5504,-3.5504,-3.5504,-3.5504,-3.5504,-3.5504,-3.5504,-3.5504,-3.5504,-3.5504,-3.5504,-3.5668,-3.5973,-3.5973,-3.6226,-3.6492,-3.6414,-3.6414,-3.6616,-3.7103,-3.7621,-3.8124,-3.8974,-3.947,-3.985,-4.002,-4.007,-4.007,-4.007,-4.007,-4.007,-4.007,-4.007,-4.007,-4.007,-4.007,-4.007,-4.007,-4.0188,-4.0238,-4.0238,-4.0387,-4.0772,-4.1569,-4.2098,-4.2537,-4.2844,-4.3268,-4.3497,-4.3497,-4.3497,-4.3497,-4.3497,-4.3497,-4.3497,-4.3497,-4.3497,-4.3497,-4.3497,-4.3497,-4.3497,-4.3497,-4.3529,-4.3579,-4.3579,-4.3658,-4.3697,-4.3697,-4.3789,-4.4116,-2.5195,-2.5757,-2.6136,-2.6658,-2.7045,-2.7306,-2.7378,-2.7545,-2.766,-2.7479,-2.8454,-2.9251,-2.9184,-2.9894,-3.1004,-3.2796,-3.2407,-3.239,-3.379,-3.3612,-3.3302,-3.3296,-3.3769,-3.4182,0.0,0.0,0.0,-3.4428,-3.4753,-3.4932,-3.4765,-3.5016,-3.5911,-3.7535,-3.7859,-3.8886,-4.0666,-3.9589,-3.8601,-3.7689,-3.6207,-3.5504,-3.5504,-3.5504,-3.5504,-3.5504,-3.5504,-3.5504,-3.5504,-3.5504,-3.5504,-3.5504,-3.5504,-3.5668,-3.5973,-3.5973,-3.6226,-3.6492,-3.6492,-3.6492,-3.66,-3.746,-3.7953,-3.8446,-3.9242,-3.9799,-4.007,-4.007,-4.007,-4.007,-4.007,-4.007,-4.007,-4.007,-4.007,-4.007,-4.007,-4.007,-4.0121,-4.0188,-4.0238,-4.0305,-4.0337,-4.0597,-4.1065,-4.1955,-4.2537,-4.2957,-4.3123,-4.3339,-4.3497,-4.3497,-4.3497,-4.3497,-4.3497,-4.3497,-4.3497,-4.3497,-4.3497,-4.3497,-4.3497,-4.3497,-4.3532,-4.3532,-4.3597,-4.3612,-4.366,-4.3741,-4.3796,-4.3793,-4.3919,-4.414,-2.5923,-2.6092,-2.6411,-2.761,-2.7898,-2.7947,-2.8079,-2.8161,-2.8209,-2.8112,-2.7997,-2.8111,-2.8779,-2.8703,-2.9391,-3.1783,-3.1708,-3.1929,-3.3592,-3.3293,-3.3267,-3.437,-3.3978,-3.4312,-3.6083,-3.572,0.0,-3.4457,0.0,-3.5395,-3.4898,-3.5111,-3.5621,-3.6462,-3.712,-3.8078,-3.9349,-3.8676,-3.7719,-3.6477,-3.5818,-3.5504,-3.5504,-3.5504,-3.5504,-3.5504,-3.5504,-3.5504,-3.5504,-3.5504,-3.5504,-3.5504,-3.5504,-3.5668,-3.5973,-3.5973,-3.6226,-3.6492,-3.6492,-3.6492,-3.6723,-3.7895,-3.8278,-3.8518,-3.9731,-4.007,-4.007,-4.007,-4.007,-4.007,-4.007,-4.007,-4.007,-4.007,-4.007,-4.007,-4.007,-4.007,-4.0138,-4.0288,-4.0305,-4.0337,-4.0485,-4.0926,-4.1481,-4.2115,-4.2595,-4.3032,-4.3463,-4.3497,-4.3497,-4.3497,-4.3497,-4.3497,-4.3497,-4.3497,-4.3497,-4.3497,-4.3497,-4.3497,-4.3497,-4.3497,-4.3513,-4.3582,-4.3615,-4.3664,-4.3809,-4.3809,-4.3804,-4.3806,-4.4061,-4.424,-2.7009,-2.73,-2.7531,-2.7635,-2.778,-2.7963,-2.8061,-2.7839,-2.758,-2.7783,-2.7103,-2.6699,-2.7397,-2.8086,-2.9241,-3.1218,-3.2122,-3.3181,-3.4844,-3.5263,-3.5529,-3.5793,-3.5677,-3.559,-3.5604,-3.5459,0.0,0.0,-3.5063,-3.5219,-3.4794,-3.5257,-3.5731,-3.6261,-3.7362,-3.8176,-3.8646,-3.7988,-3.727,-3.6477,-3.5818,-3.5504,-3.5504,-3.5504,-3.5504,-3.5504,-3.5504,-3.5504,-3.5504,-3.5504,-3.5504,-3.5504,-3.5504,-3.5668,-3.5973,-3.5973,-3.6226,-3.6492,-3.6492,-3.6492,-3.6723,-3.7895,-3.8278,-3.8518,-3.9731,-4.007,-4.007,-4.007,-4.007,-4.007,-4.007,-4.007,-4.007,-4.007,-4.007,-4.007,-4.007,-4.007,-4.0138,-4.0288,-4.0453,-4.0648,-4.0776,-4.0901,-4.1283,-4.2074,-4.2279,-4.2655,-4.341,-4.3497,-4.3497,-4.3497,-4.3497,-4.3497,-4.3497,-4.3497,-4.3497,-4.3497,-4.3497,-4.3497,-4.3497,-4.3497,-4.3513,-4.3582,-4.3719,-4.3786,-4.3878,-4.3923,-4.3955,-4.3949,-4.4023,-4.4153,-2.7674,-2.804,-2.8204,-2.7845,-2.7963,-2.8227,-2.8077,-2.7674,-2.7211,-2.6983,-2.644,-2.6047,-2.6107,-2.7263,-2.8749,-3.0436,-3.1736,-3.3128,-3.4864,-3.5543,-3.5996,-3.6272,-3.6069,-3.5981,-3.6199,-3.5706,-3.5212,0.0,-3.5169,-3.5219,-3.4779,-3.5087,-3.5545,-3.6328,-3.6975,-3.7347,-3.7554,-3.718,-3.6686,-3.6058,-3.5684,-3.5504,-3.5504,-3.5504,-3.5504,-3.5504,0.0,-3.5504,-3.5504,-3.5504,-3.5504,-3.5504,-3.5504,-3.5668,-3.5973,-3.5973,-3.6226,-3.6492,-3.6492,-3.6492,-3.6723,-3.7895,-3.8278,-3.8567,-4.0134,-4.0578,-4.0578,-4.0578,-4.0578,-4.0493,-4.0155,-4.007,-4.007,-4.007,-4.007,-4.007,-4.007,-4.007,-4.0188,-4.0337,-4.0583,-4.0793,-4.0888,-4.1041,-4.1418,-4.2092,-4.2378,-4.2732,-4.341,-4.3497,-4.3497,-4.3497,-4.3497,-4.3497,-4.3497,-4.3497,-4.3497,-4.3497,-4.3497,-4.3497,-4.3497,-4.3532,-4.36,-4.3686,-4.3786,-4.3883,-4.3942,-4.3974,-4.4005,-4.4005,-4.4005,-4.4079,-2.8033,-2.8398,-2.8685,-2.811,-2.84,-2.8654,-2.8144,-2.7547,-2.6884,-2.6052,-2.571,-2.5394,-2.4861,-2.6238,-2.798,-2.9613,-3.1058,-3.2566,-3.4254,-3.5082,-3.572,-3.6359,-3.588,-3.5923,-3.707,-3.5996,-3.5241,-3.5241,-3.5241,-3.5132,-3.4898,-3.4838,-3.5324,-3.6529,-3.6388,-3.6373,-3.6611,-3.6537,-3.6207,-3.5639,-3.5549,-3.5504,-3.5504,-3.5504,-3.5504,-3.5504,0.0,0.0,-3.5504,-3.5504,-3.5504,-3.5504,-3.5504,-3.5733,-3.5973,-3.6037,-3.6226,-3.6492,-3.6492,-3.6492,-3.6723,-3.7895,-3.8278,-3.8616,-4.0503,-4.1052,-4.1052,-4.1052,-4.1052,-4.0899,-4.0257,-4.007,-4.007,-4.007,-4.007,-4.0121,-4.0138,-4.0121,-4.0238,-4.0485,-4.0728,-4.0935,-4.0965,-4.1283,-4.1692,-4.2198,-4.2634,-4.305,-4.3444,-4.3497,-4.3497,-4.3497,-4.3497,-4.3497,-4.3497,-4.3497,-4.3497,-4.3497,-4.3532,-4.3513,-4.3513,-4.36,-4.3667,-4.3804,-4.3883,-4.3929,-4.4005,-4.4005,-4.4005,-4.4005,-4.4005,-4.4005,-2.8334,-2.8701,-2.9134,-2.8462,-2.8826,-2.9143,-2.8354,-2.7178,-2.6093,-2.5313,-2.4296,-2.3466,-2.336,-2.5107,-2.7172,-2.8895,-3.0646,-3.265,-3.4918,-3.5749,-3.6388,-3.7056,-3.6548,-3.6228,-3.646,-3.5328,0.0,0.0,0.0,-3.4598,-3.4698,-3.5059,-3.578,-3.6788,-3.6558,-3.6731,-3.724,-3.6746,-3.6432,-3.6312,-3.5759,-3.5504,-3.5504,-3.5504,-3.5504,-3.5504,0.0,0.0,-3.5504,-3.5504,-3.5504,-3.5504,-3.5589,-3.5767,-3.6037,-3.6148,-3.6289,-3.6492,-3.6492,-3.6492,-3.6723,-3.7895,-3.8278,-3.8535,-3.9899,-4.0273,-4.0273,-4.0273,-4.0273,-4.024,-4.0104,-4.007,-4.007,-4.007,-4.007,-4.0121,-4.0238,-4.0453,-4.06,-4.0648,-4.0793,-4.1012,-4.1328,-4.1445,-4.1778,-4.2634,-4.2844,-4.305,-4.3444,-4.3497,-4.3497,-4.3497,-4.3497,-4.3497,-4.3497,-4.3497,-4.3497,-4.3497,-4.3548,-4.3582,-4.3582,-4.3719,-4.3786,-4.3883,-4.3897,-4.3929,-4.4005,-4.4005,-4.4005,-4.4005,-4.4005,-4.4005,-2.8284,-2.8732,-2.9166,-2.8334,-2.8997,-2.9403,-2.7747,-2.6735,-2.5654,-2.406,-2.3072,-2.2464,-2.2464,-2.4088,-2.6001,-2.7733,-2.9268,-3.1112,-3.3514,-3.4719,-3.5561,-3.6214,-3.6301,-3.6185,-3.5851,-3.4965,-3.4414,-3.4414,0.0,-3.4481,-3.4698,-3.5043,-3.5486,-3.6014,-3.6,-3.6118,-3.6417,-3.6118,-3.5968,-3.5968,-3.5654,-3.5504,-3.5504,-3.5504,-3.5504,-3.5504,0.0,0.0,-3.5504,-3.5504,-3.5504,-3.5504,-3.5638,-3.5831,-3.6037,-3.6148,-3.6352,-3.6492,-3.6492,-3.6723,-3.7118,-3.801,-3.8278,-3.8583,-4.0201,-4.0663,-4.0663,-4.0663,-4.0663,-4.0578,-4.0172,-4.007,-4.007,-4.007,-4.0138,-4.0238,-4.0387,-4.0551,-4.0697,-4.0697,-4.0793,-4.1041,-4.1445,-4.1692,-4.2115,-4.2806,-4.3069,-4.3268,-4.3497,-4.3497,-4.3497,-4.3497,-4.3497,-4.3497,-4.3497,-4.3513,-4.3548,-4.3548,-4.3634,-4.3701,-4.3701,-4.3786,-4.3883,-4.3897,-4.3929,-4.3974,-4.4005,-4.4005,-4.4005,-4.4005,-4.4005,-4.4005,-2.8268,-2.8779,-2.9227,-2.8288,-2.9134,-2.9583,-2.7304,-2.633,-2.525,-2.303,-2.2263,-2.1994,-2.1955,-2.331,-2.502,-2.6806,-2.8096,-2.9725,-3.215,-3.3616,-3.4646,-3.5285,-3.5807,-3.5909,-3.5415,-3.4777,0.0,-3.4414,0.0,0.0,-3.4631,-3.4964,-3.5082,-3.5148,-3.5359,-3.5439,-3.5504,-3.5504,-3.5504,-3.5504,-3.5504,-3.5504,-3.5504,-3.5504,-3.5504,-3.5504,0.0,0.0,0.0,-3.5504,-3.5504,-3.5504,-3.5718,-3.5831,-3.6037,-3.6211,-3.6352,-3.6492,-3.6662,-3.7013,-3.7519,-3.8238,-3.8518,-3.8782,-4.0436,-4.0967,-4.0967,-4.0967,-4.0967,-4.0832,-4.024,-4.007,-4.0138,-4.0138,-4.0238,-4.0387,-4.0534,-4.0648,-4.0745,-4.0745,-4.0918,-4.1163,-4.1561,-4.2032,-4.2498,-4.2957,-4.3304,-4.3497,-4.3497,-4.3497,-4.3497,-4.3497,-4.3497,-4.3532,-4.3513,-4.3548,-4.3615,-4.3634,-4.3753,-4.3837,-4.3837,-4.3883,-4.3929,-4.3929,-4.3974,-4.4005,-4.4005,-4.4005,-4.4005,-4.4005,-4.4005,-4.4005,-2.8654,-2.915,-2.9705,-2.8873,-2.9438,-2.9685,-2.7763,-2.6213,-2.4665,-2.2876,-2.2225,-2.1955,-2.1862,-2.3137,-2.4835,-2.6806,-2.8002,-2.9581,-3.215,-3.3616,-3.4646,-3.5285,-3.5415,-3.543,-3.5441,-3.4777,-3.4414,-3.4414,0.0,0.0,-3.4414,-3.4631,-3.4817,-3.4935,-3.5148,-3.5294,-3.5504,-3.5504,-3.5504,-3.5504,-3.5504,-3.5504,-3.5504,-3.5504,-3.5504,-3.5504,0.0,0.0,0.0,-3.5504,-3.5504,-3.5504,-3.5861,-3.5973,-3.6037,-3.6367,-3.6492,-3.6554,-3.7118,-3.7358,-3.7578,-3.8756,-3.9152,-3.9259,-3.9986,-4.0172,-4.0172,-4.0172,-4.0172,-4.0172,-4.0104,-4.007,-4.0121,-4.0238,-4.0387,-4.0534,-4.0648,-4.0793,-4.0888,-4.0888,-4.1209,-4.1604,-4.2074,-4.2537,-4.2957,-4.3375,-4.3497,-4.3497,-4.3497,-4.3497,-4.3497,-4.3497,-4.3497,-4.3513,-4.3582,-4.3582,-4.3667,-4.3753,-4.3851,-4.3883,-4.3883,-4.3961,-4.4005,-4.4005,-4.4005,-4.4005,-4.4005,-4.4005,-4.4005,-4.4005,-4.4005,-4.4005,-2.8809,-2.9074,-2.9303,-2.909,-2.947,-2.9442,-2.7609,-2.6235,-2.4864,-2.3203,-2.233,-2.1982,-2.2335,-2.2765,-2.3672,-2.5644,-2.6192,-2.7273,-2.9842,-3.1627,-3.2919,-3.3572,-3.4661,-3.5212,-3.4835,0.0,-3.4414,0.0,0.0,0.0,-3.4563,-3.475,-3.4949,-3.5228,-3.5359,-3.5439,-3.5504,-3.5504,-3.5504,-3.5504,-3.5504,-3.5504,-3.5504,-3.5504,-3.5504,-3.5504,0.0,0.0,0.0,-3.5504,-3.5554,-3.5653,-3.591,-3.6037,-3.6148,-3.6429,-3.6723,-3.7074,-3.7298,-3.787,-3.859,-3.9028,-3.9418,-3.9799,-4.002,-4.007,-4.007,-4.007,-4.007,-4.007,-4.007,-4.007,-4.0121,-4.0255,-4.0387,-4.0534,-4.0648,-4.0793,-4.0965,-4.1192,-4.1401,-4.1735,-4.2498,-4.2768,-4.305,-4.3444,-4.3497,-4.3497,-4.3497,-4.3497,-4.3497,-4.3497,-4.3497,-4.3532,-4.3582,-4.3667,-4.3753,-4.3851,-4.3929,-4.3942,-4.3942,-4.3974,-4.4005,-4.4005,-4.4005,-4.4005,-4.4005,-4.4005,-4.4005,-4.4005,-4.4005,-4.4005,-2.8719,-2.8978,-2.909,-2.9152,-2.9281,-2.895,-2.7363,-2.6072,-2.4797,-2.3356,-2.2546,-2.2244,-2.2686,-2.2676,-2.3113,-2.4643,-2.5024,-2.5952,-2.8347,-3.0321,-3.183,-3.2701,-3.4153,-3.4907,-3.4457,-3.4414,-3.4414,0.0,0.0,0.0,0.0,-3.4817,-3.5016,-3.5424,-3.5359,-3.5359,-3.5504,-3.5504,-3.5504,-3.5504,-3.5504,-3.5504,-3.5504,-3.5504,-3.5504,-3.5504,0.0,0.0,0.0,-3.5504,-3.5604,-3.5752,-3.6133,-3.6383,-3.6492,-3.6876,-3.7282,-3.7679,-3.7854,-3.8479,-3.9259,-3.9418,-3.9747,-4.007,-4.007,-4.007,-4.007,-4.007,-4.007,-4.007,-4.007,-4.0138,-4.0188,-4.0337,-4.0436,-4.0583,-4.0745,-4.084,-4.0995,-4.1445,-4.1604,-4.1948,-4.2768,-4.2995,-4.3178,-4.3463,-4.3497,-4.3497,-4.3497,-4.3497,-4.3497,-4.3497,-4.3532,-4.3548,-4.3667,-4.3771,-4.3837,-4.3929,-4.3974,-4.4005,-4.4005,-4.4005,-4.4005,-4.4005,-4.4005,-4.4005,-4.4005,-4.4005,-4.4005,-4.4005,-4.4005,-4.4005,-2.8222,-2.8926,-2.938,-2.8997,-2.8748,-2.8265,-2.702,-2.5586,-2.4225,-2.3198,-2.2884,-2.2761,-2.2709,-2.302,-2.3481,-2.4084,-2.5082,-2.646,-2.8405,-3.0321,-3.2004,-3.3311,-3.4022,-3.4428,-3.4414,-3.4414,0.0,0.0,0.0,0.0,0.0,-3.475,-3.4831,-3.5213,-3.5001,-3.5082,-3.5504,-3.5504,-3.5504,-3.5504,-3.5504,-3.5504,-3.5504,-3.5504,-3.5504,0.0,0.0,0.0,0.0,-3.5504,-3.5604,-3.58,-3.66,-3.6951,-3.7191,-3.7994,-3.8294,-3.8407,-3.8974,-3.9206,-3.9312,-3.9918,-4.007,-4.007,-4.007,-4.007,-4.007,-4.007,-4.007,-4.007,-4.007,-4.0188,-4.0355,-4.0485,-4.0583,-4.0745,-4.0888,-4.0888,-4.0995,-4.1445,-4.1864,-4.2338,-4.2806,-4.3232,-4.3497,-4.3497,-4.3497,-4.3497,-4.3497,-4.3497,-4.3497,-4.3497,-4.3548,-4.3667,-4.3804,-4.3804,-4.3851,-4.4005,-4.4005,-4.4005,-4.4005,-4.4005,-4.4005,-4.4005,-4.4005,-4.4005,-4.4005,-4.4005,-4.4005,-4.4005,-4.4005,-4.4005,-2.6684,-2.7173,-2.7337,-2.6954,-2.7048,-2.6961,-2.6029,-2.5259,-2.4481,-2.3701,-2.3438,-2.3338,-2.324,-2.3274,-2.3924,-2.5766,-2.6287,-2.7287,-2.9653,-3.1264,-3.2353,-3.2774,-3.3761,-3.4414,0.0,0.0,0.0,0.0,0.0,0.0,0.0,-3.4616,-3.475,-3.5374,-3.5213,-3.5213,-3.5504,-3.5504,-3.5504,-3.5504,-3.5504,-3.5504,-3.5504,-3.5504,0.0,0.0,0.0,0.0,0.0,-3.5504,-3.5683,-3.5958,-3.6662,-3.7087,-3.7385,-3.8051,-3.8574,-3.892,-3.9135,-3.947,-3.985,-4.002,-4.007,-4.007,-4.007,-4.007,-4.007,-4.007,-4.0188,-4.0238,-4.0238,-4.0337,-4.0436,-4.0485,-4.0583,-4.0697,-4.0745,-4.084,-4.1134,-4.1821,-4.2074,-4.2458,-4.3178,-4.341,-4.3497,-4.3497,-4.3497,-4.3497,-4.3497,-4.3548,-4.3548,-4.3548,-4.3667,-4.3753,-4.3804,-4.3851,-4.3915,-4.4005,-4.4005,-4.4005,-4.4005,-4.4005,-4.4005,-4.4005,-4.4005,-4.4005,-4.4005,-4.4005,-4.4005,-4.4005,-4.4005,-4.4005,-2.5274,-2.5963,-2.6236,-2.6123,-2.6103,-2.5988,-2.5382,-2.4815,-2.4279,-2.3872,-2.3653,-2.3538,-2.3509,-2.3334,-2.3803,-2.557,-2.6185,-2.7215,-2.9537,-3.1177,-3.2411,-3.3151,-3.3935,0.0,0.0,0.0,0.0,0.0,0.0,0.0,0.0,0.0,-3.475,-3.5504,-3.5213,-3.5213,-3.5504,-3.5504,-3.5504,-3.5504,-3.5504,-3.5504,-3.5504,-3.5504,0.0,0.0,0.0,0.0,0.0,-3.5539,-3.5718,-3.6085,-3.6935,-3.7472,-3.7854,-3.8684,-3.9242,-3.9523,-3.9523,-3.9799,-4.007,-4.007,-4.007,-4.007,-4.007,-4.007,-4.007,-4.007,-4.0188,-4.0255,-4.0305,-4.0387,-4.0534,-4.0583,-4.0697,-4.0793,-4.0793,-4.084,-4.118,-4.2032,-4.2198,-4.248,-4.3375,-4.3497,-4.3497,-4.3497,-4.3513,-4.3532,-4.3532,-4.3634,-4.3667,-4.3667,-4.3786,-4.3837,-4.3837,-4.3883,-4.3929,-4.4005,-4.4005,-4.4005,-4.4005,-4.4005,-4.4005,-4.4005,-4.4005,-4.4005,-4.4005,-4.4005,-4.4005,-4.4005,-4.4005,-4.4005,0.0,-2.5073,-2.5707,-2.5914,-2.5592,-2.5075,-2.48,-2.423,0.0,-2.3721,-2.3595,-2.3495,-2.3584,-2.3363,-2.3478,-2.4297,-2.5325,-2.6678,-2.8681,-3.0553,-3.2396,-3.4196,-3.4414,0.0,-3.4414,0.0,0.0,0.0,0.0,0.0,0.0,0.0,-3.4677,-3.5429,-3.5073,-3.5037,-3.5504,-3.5504,-3.5504,-3.5504,-3.5504,-3.5489,-3.5429,-3.5429,0.0,0.0,0.0,0.0,0.0,-3.5578,-3.5785,-3.6148,-3.7483,-3.8133,-3.8446,-3.9627,-4.007,-4.007,-4.007,-4.007,-4.007,-4.007,-4.007,-4.007,-4.007,-4.007,-4.007,-4.007,-4.0121,-4.0188,-4.0288,-4.0436,-4.0583,-4.0697,-4.0793,-4.0888,-4.0888,-4.0918,-4.1163,-4.2032,-4.2257,-4.2537,-4.3375,-4.3497,-4.3497,-4.3497,-4.3548,-4.3582,-4.3582,-4.3719,-4.3804,-4.3804,-4.3883,-4.3897,-4.3897,-4.3897,-4.3929,-4.4005,-4.4005,-4.4005,-4.4005,-4.4005,-4.4005,-4.4005,-4.4005,-4.4005,-4.4005,-4.4005,-4.4005,-4.4005,-4.4005,-4.4005,-2.1477,0.0,-2.2799,-2.2237,-2.2379,-2.2612,0.0,-2.2637,-2.2807,-2.2807,-2.3109,-2.3629,-2.4493,-2.4241,-2.4674,-2.7195,-2.785,-2.884,-3.1279,-3.2846,-3.3906,-3.4356,-3.4414,-3.4414,-3.4414,0.0,0.0,0.0,0.0,0.0,0.0,0.0,-3.4118,-3.4711,-3.4505,-3.4758,-3.5504,-3.5504,-3.5504,-3.5504,-3.5504,-3.5235,-3.4726,-3.4726,0.0,0.0,0.0,0.0,0.0,-3.4934,-3.5425,-3.6258,-3.7499,-3.8133,-3.8446,-3.9627,-4.007,-4.007,-4.007,-4.007,-4.007,-4.007,-4.007,-4.007,-4.007,-4.007,-4.007,-4.007,-4.0221,-4.0419,-4.0436,-4.0631,-4.0823,-4.084,-4.0888,-4.0888,-4.0888,-4.1117,-4.1534,-4.2074,-4.2498,-4.292,-4.341,-4.3497,-4.3497,-4.3497,-4.3513,-4.3548,-4.3582,-4.3719,-4.3837,-4.3883,-4.3929,-4.3974,-4.3974,-4.3974,-4.3974,-4.4005,-4.4005,-4.4005,-4.4005,-4.4005,-4.4005,-4.4005,-4.4005,-4.4005,-4.4005,-4.4005,-4.4005,-4.4005,-4.4005,-4.4005,-2.0234,-2.1295,-2.2299,-2.2054,-2.2532,-2.2999,-2.2857,-2.2859,-2.2888,-2.2888,-2.3039,-2.351,-2.4429,-2.4528,-2.5209,-2.7486,-2.8536,-3.0016,-3.26,-3.3804,-3.4414,-3.4414,-3.4414,-3.4298,0.0,0.0,0.0,0.0,0.0,0.0,0.0,0.0,-3.352,-3.4023,-3.3821,-3.4297,-3.5489,-3.5504,-3.5504,-3.5504,-3.519,-3.4846,-3.4472,-3.4158,0.0,0.0,0.0,0.0,-3.4804,-3.5155,-3.5614,-3.6273,-3.789,-3.843,-3.8446,-3.9627,-4.007,-4.007,-4.007,-4.007,-4.007,-4.007,-4.007,-4.007,-4.007,-4.0138,-4.0188,-4.0188,-4.0337,-4.0534,-4.0583,-4.068,-4.084,-4.0888,-4.0888,-4.0965,-4.1117,-4.1373,-4.1692,-4.2378,-4.2711,-4.3032,-4.341,-4.3497,-4.3497,-4.3497,-4.3532,-4.36,-4.3667,-4.3786,-4.3883,-4.3929,-4.3974,-4.4005,-4.4005,-4.4005,-4.4005,-4.4005,-4.4005,-4.4005,-4.4005,-4.4005,-4.4005,-4.4005,-4.4005,-4.4005,-4.4005,-4.4005,-4.4005,-4.4005,-4.4005,-4.4005,-1.9944,-2.1389,-2.2888,-2.2946,-2.3555,-2.4104,-2.382,-2.3452,-2.3128,-2.3128,-2.3171,-2.3462,-2.4239,-2.483,-2.5633,-2.6997,-2.8826,-3.0858,-3.3151,-3.3935,-3.4269,-3.4269,-3.4182,0.0,0.0,0.0,0.0,0.0,0.0,0.0,0.0,0.0,0.0,-3.335,-3.3212,-3.3794,-3.519,-3.519,-3.519,-3.519,-3.4607,-3.4262,-3.4158,-3.3604,0.0,0.0,0.0,0.0,-3.4596,-3.543,-3.5907,-3.6258,-3.8275,-3.8821,-3.8574,-3.9679,-4.007,-4.007,-4.007,-4.007,-4.007,-4.007,-4.007,-4.0121,-4.0121,-4.0238,-4.0337,-4.0355,-4.0436,-4.0534,-4.0648,-4.0697,-4.0745,-4.0871,-4.0965,-4.1088,-4.1445,-4.1604,-4.1948,-4.2768,-4.2957,-4.3105,-4.3444,-4.3497,-4.3479,-4.3513,-4.3548,-4.3667,-4.3804,-4.3851,-4.3929,-4.4005,-4.4005,-4.4005,-4.4005,-4.4005,-4.4005,-4.4005,-4.4005,-4.4005,-4.4005,-4.4005,-4.4005,-4.4005,-4.4005,-4.4005,-4.4005,-4.4005,-4.4005,-4.4005,-4.4005,-4.4017,-2.0911,-2.2191,-2.2845,-2.1252,-2.1757,-2.2466,-2.1877,-2.2041,-2.2264,-2.2264,-2.3067,-2.4156,-2.5334,-2.609,-2.7084,-2.8898,-3.0814,-3.2396,0.0,0.0,-3.3616,-3.3616,0.0,0.0,0.0,0.0,0.0,0.0,0.0,0.0,0.0,0.0,0.0,-3.2662,-3.2602,-3.2975,-3.3799,-3.3799,-3.3799,-3.3799,-3.3694,-3.335,-3.2811,-3.2706,-3.2362,0.0,0.0,0.0,-3.331,-3.4042,-3.51,-3.6489,-3.7789,-3.859,-3.9152,-3.985,-4.007,-4.007,-4.007,-4.007,-4.007,-4.007,-4.007,-4.0138,-4.0238,-4.0337,-4.0485,-4.06,-4.0648,-4.0648,-4.0697,-4.0793,-4.0871,-4.0888,-4.1163,-4.1445,-4.149,-4.2115,-4.2711,-4.2882,-4.3178,-4.341,-4.3497,-4.3497,-4.3513,-4.3582,-4.3582,-4.3649,-4.3883,-4.3897,-4.3929,-4.4005,-4.4005,-4.4005,-4.4005,-4.4005,-4.4005,-4.4005,-4.4005,-4.4005,-4.4005,-4.4005,-4.4005,-4.4005,-4.4005,-4.4005,-4.4005,-4.4005,-4.4005,-4.4005,-4.4005,-4.4121,-2.0226,-2.1491,-2.2452,-2.1489,-2.3054,-2.4754,-2.4352,-2.4451,-2.4553,-2.4189,-2.4549,-2.5212,-2.6155,-2.7142,-2.8666,-3.1279,-3.2454,-3.3137,-3.3427,-3.347,-3.334,0.0,0.0,0.0,0.0,0.0,0.0,0.0,0.0,0.0,0.0,0.0,0.0,0.0,-3.1988,-3.2138,-3.2437,-3.2437,-3.2796,-3.3499,-3.314,-3.2811,-3.2497,-3.2138,-3.1824,0.0,0.0,-3.2318,-3.3082,-3.4121,-3.5038,-3.5819,-3.7798,-3.8587,-3.8712,-3.9699,-4.007,-4.007,-4.007,-4.007,-4.007,-4.007,-4.007,-4.0138,-4.0238,-4.0387,-4.0534,-4.0648,-4.0745,-4.0793,-4.0793,-4.0823,-4.0888,-4.0888,-4.1209,-4.1561,-4.1821,-4.2418,-4.2957,-4.3178,-4.3375,-4.3497,-4.3497,-4.3513,-4.3548,-4.3582,-4.3667,-4.3734,-4.3865,-4.3897,-4.3929,-4.4005,-4.4005,-4.4005,-4.4005,-4.4005,-4.4005,-4.4005,-4.4005,-4.4005,-4.4005,-4.4005,-4.4005,-4.4005,-4.4005,-4.4005,-4.4005,-4.4005,-4.4005,-4.4005,-4.4005,-4.4151,-2.0017,-2.1061,-2.2134,-2.2352,-2.4393,-2.6382,-2.673,-2.6663,-2.6489,-2.6286,-2.6358,-2.6576,-2.6939,-2.8158,-2.9972,-3.2585,-3.3137,-3.3253,-3.3253,-3.3108,0.0,0.0,0.0,0.0,0.0,0.0,0.0,0.0,0.0,0.0,0.0,0.0,0.0,0.0,-3.1482,-3.1482,-3.1482,-3.1482,-3.2033,-3.3036,-3.2527,-3.2287,-3.2273,-3.1706,-3.1597,-3.1799,-3.194,-3.2302,-3.2942,-3.4294,-3.491,-3.5289,-3.7585,-3.8404,-3.847,-3.9649,-4.007,-4.007,-4.007,-4.007,-4.0138,-4.0138,-4.0138,-4.0188,-4.0337,-4.0502,-4.0583,-4.0697,-4.084,-4.0888,-4.0888,-4.0888,-4.0888,-4.0888,-4.1209,-4.1648,-4.2074,-4.2595,-4.3032,-4.341,-4.3497,-4.3479,-4.3513,-4.3548,-4.3615,-4.3649,-4.3753,-4.3851,-4.3897,-4.3929,-4.3961,-4.4005,-4.4005,-4.4005,-4.4005,-4.4005,-4.4005,-4.4005,-4.4005,-4.4005,-4.4005,-4.4005,-4.4005,-4.4005,-4.4005,-4.4005,-4.4005,-4.4005,-4.4005,-4.4005,-4.4079,-4.425,-2.1772,-2.2044,-2.228,-2.3455,-2.3934,-2.4573,-2.6373,-2.63,-2.6184,-2.7345,-2.8057,-2.8303,-2.7766,-2.9174,-3.0698,-3.1526,-3.2179,-3.2585,-3.2585,0.0,0.0,0.0,0.0,0.0,0.0,0.0,0.0,0.0,0.0,0.0,0.0,0.0,0.0,0.0,0.0,-3.1482,-3.1482,-3.1482,-3.1526,-3.1616,-3.1571,-3.1541,-3.1541,-3.1497,-3.1597,-3.1799,-3.194,-3.2094,-3.2358,-3.3575,-3.4505,-3.5291,-3.648,-3.7787,-3.9023,-3.98,-4.007,-4.007,-4.007,-4.007,-4.0138,-4.0238,-4.0305,-4.0355,-4.06,-4.0697,-4.0697,-4.084,-4.0871,-4.0888,-4.0888,-4.0888,-4.0888,-4.0888,-4.1209,-4.1648,-4.2074,-4.2595,-4.3032,-4.341,-4.3497,-4.3513,-4.3582,-4.3582,-4.3649,-4.3865,-4.3883,-4.3929,-4.3974,-4.4005,-4.4005,-4.4005,-4.4005,-4.4005,-4.4005,-4.4005,-4.4005,-4.4005,-4.4005,-4.4005,-4.4005,-4.4005,-4.4005,-4.4005,-4.4005,-4.4005,-4.4005,-4.4005,-4.4005,-4.4005,-4.425,-4.4519,-2.0294,-2.1491,-2.2701,-2.318,-2.4196,-2.5575,-2.7411,-2.8152,-2.8742,-2.9574,-3.0053,-3.0274,-3.0073,-3.0669,-3.138,-3.2034,-3.2353,-3.2367,0.0,0.0,0.0,0.0,0.0,0.0,0.0,0.0,0.0,0.0,0.0,0.0,0.0,0.0,0.0,0.0,0.0,-3.1482,-3.1482,-3.1482,-3.1482,-3.1482,-3.1482,-3.1482,-3.1482,-3.1482,-3.1597,-3.1799,-3.194,-3.2094,-3.2287,-3.3527,-3.4198,-3.459,-3.6178,-3.7686,-3.9022,-3.9292,-3.9411,-3.9462,-3.9918,-3.9783,-3.9528,-4.0102,-4.0305,-4.0355,-4.06,-4.0697,-4.0745,-4.0888,-4.0888,-4.0888,-4.0888,-4.0888,-4.0965,-4.1192,-4.1622,-4.2074,-4.2537,-4.2976,-4.3339,-4.3513,-4.3548,-4.36,-4.3719,-4.3767,-4.38,-4.3897,-4.3929,-4.3974,-4.4005,-4.4005,-4.4005,-4.4005,-4.4005,-4.4005,-4.4005,-4.4005,-4.4005,-4.4005,-4.4005,-4.4005,-4.4005,-4.4005,-4.4005,-4.4005,-4.4005,-4.4005,-4.4005,-4.4005,-4.4005,-4.4005,-4.4091,-4.4374,-2.025,-2.1537,-2.2989,-2.3395,-2.4626,-2.6298,-2.8512,-2.9459,-3.0172,-3.114,-3.1323,-3.1305,-3.1416,-3.1304,-3.1366,0.0,-3.1903,0.0,0.0,0.0,0.0,0.0,0.0,0.0,0.0,0.0,0.0,0.0,0.0,0.0,0.0,0.0,0.0,0.0,0.0,0.0,-3.1482,-3.1482,-3.1482,-3.1482,-3.1482,-3.1482,-3.1482,-3.1597,-3.167,-3.1898,-3.1981,-3.215,-3.2342,-3.3355,-3.3969,-3.4399,-3.6108,-3.7398,-3.8328,-3.8565,-3.8802,-3.9039,-3.9292,-3.9427,-3.9493,-3.9863,-4.0199,-4.0453,-4.0697,-4.0745,-4.0793,-4.0871,-4.0888,-4.0918,-4.1041,-4.1088,-4.1163,-4.1445,-4.1864,-4.2338,-4.2806,-4.3123,-4.3375,-4.3548,-4.3582,-4.3634,-4.3771,-4.3851,-4.3897,-4.3929,-4.3974,-4.4005,-4.4005,-4.4005,-4.4005,-4.4005,-4.4005,-4.4005,-4.4005,-4.4005,-4.4005,-4.4005,-4.4005,-4.4005,-4.4005,-4.4005,-4.4005,-4.4005,-4.4005,-4.4005,-4.4005,-4.4005,-4.4005,-4.4005,-4.4109,-4.4318,-2.2287,-2.2571,-2.3207,-2.4467,-2.5207,-2.6481,-2.9606,-2.9865,-2.9921,-3.1661,-3.1625,-3.132,-3.1305,-3.0895,-3.0568,-3.0568,-3.0568,0.0,0.0,0.0,0.0,0.0,0.0,0.0,0.0,0.0,0.0,0.0,0.0,0.0,0.0,0.0,0.0,0.0,0.0,0.0,-3.1482,-3.1482,-3.1482,-3.1482,-3.1482,-3.1482,-3.1539,-3.1727,-3.1898,-3.1996,-3.215,-3.2302,-3.2437,-3.2986,-3.3853,-3.4947,-3.6266,-3.6772,-3.6874,-3.7618,-3.8345,-3.887,-3.8159,-3.895,-4.0152,-3.9566,-3.9983,-4.0745,-4.0888,-4.0888,-4.0888,-4.0888,-4.0888,-4.0995,-4.1401,-4.1516,-4.1516,-4.1516,-4.1864,-4.2338,-4.2788,-4.29,-4.3032,-4.341,-4.3548,-4.3634,-4.3771,-4.3851,-4.3929,-4.4005,-4.4005,-4.4005,-4.4005,-4.4005,-4.4005,-4.4005,-4.4005,-4.4005,-4.4005,-4.4005,-4.4005,-4.4005,-4.4005,-4.4005,-4.4005,-4.4005,-4.4005,-4.4005,-4.4005,-4.4005,-4.4005,-4.4005,-4.4005,-4.4005,-4.4279,-4.4383,-2.0866,-2.2163,-2.3818,-2.466,-2.6654,-2.8741,-3.0009,-3.0344,-3.0834,-3.2339,-3.227,-3.1824,-3.1488,-3.1003,0.0,-3.0568,0.0,0.0,0.0,0.0,0.0,0.0,0.0,0.0,0.0,0.0,0.0,0.0,0.0,0.0,0.0,0.0,0.0,0.0,0.0,0.0,-3.1482,-3.1482,-3.1482,-3.1482,-3.1482,-3.1482,-3.1539,-3.1727,-3.1898,-3.2053,-3.2547,-3.2641,-3.2437,-3.3407,-3.4366,-3.5396,-3.5814,-3.6299,-3.6806,-3.7043,-3.7246,-3.7513,-3.7848,-3.8286,-3.8823,-3.9303,-4.0014,-4.0745,-4.0888,-4.0888,-4.0888,-4.0888,-4.0888,-4.0995,-4.1401,-4.1735,-4.2074,-4.2418,-4.2595,-4.2788,-4.3214,-4.3339,-4.3375,-4.3548,-4.3667,-4.3753,-4.3851,-4.3929,-4.3974,-4.4005,-4.4005,-4.4005,-4.4005,-4.4005,-4.4005,-4.4005,-4.4005,-4.4005,-4.4005,-4.4005,-4.4005,-4.4005,-4.4005,-4.4005,-4.4005,-4.4005,-4.4005,-4.4005,-4.4005,-4.4005,-4.4005,-4.4005,-4.4109,-4.426,-4.4374,-4.4599,-2.1821,-2.3403,-2.5363,-2.6474,-2.8216,-2.987,-3.083,-3.1189,-3.1496,-3.2316,-3.217,-3.1752,-3.1488,-3.0942,0.0,0.0,0.0,0.0,0.0,0.0,0.0,0.0,0.0,0.0,0.0,0.0,0.0,0.0,0.0,0.0,0.0,0.0,0.0,0.0,0.0,0.0,-3.1482,-3.1482,-3.1482,-3.1482,-3.1482,-3.1482,-3.1539,-3.1769,-3.194,-3.2038,-3.2803,-3.3039,-3.3108,-3.3969,-3.4673,-3.5316,-3.5515,-3.591,-3.6315,-3.6315,-3.6518,-3.6835,-3.7046,-3.758,-3.8269,-3.8883,-3.9645,-4.0328,-4.0405,-4.0405,-4.0353,-4.006,-3.9974,-4.0141,-4.0672,-4.128,-4.1962,-4.2734,-4.3032,-4.3178,-4.3444,-4.3497,-4.3513,-4.3582,-4.3719,-4.3837,-4.3883,-4.3961,-4.4005,-4.4005,-4.4005,-4.4005,-4.4005,-4.4005,-4.4005,-4.4005,-4.4005,-4.4005,-4.4005,-4.4005,-4.4005,-4.4005,-4.4005,-4.4005,-4.4005,-4.4005,-4.4005,-4.4005,-4.4005,-4.4048,-4.4151,-4.4151,-4.4308,-4.4546,-4.4546,-4.4726,-2.4204,-2.5507,-2.7296,-2.9101,-2.9711,-3.029,-3.1853,-3.2112,-3.2033,-3.1846,-3.1567,-3.1291,-3.1233,-3.0913,-3.0568,0.0,0.0,0.0,0.0,0.0,0.0,0.0,0.0,0.0,0.0,0.0,0.0,0.0,0.0,0.0,0.0,0.0,0.0,0.0,0.0,0.0,-3.1482,-3.1482,-3.1482,0.0,-3.1482,-3.1539,-3.1539,-3.1925,-3.215,-3.2302,-3.3002,-3.3614,-3.4185,-3.4625,-3.4833,-3.4927,-3.5424,-3.5622,-3.5622,-3.5622,-3.6062,-3.6632,-3.6055,-3.6842,-3.8157,-3.8277,-3.8883,-3.9595,-3.9595,-3.9595,-3.9457,-3.8784,-3.8594,-3.8781,-3.9611,-4.0417,-4.1303,-4.2555,-4.3178,-4.3479,-4.3532,-4.3532,-4.3513,-4.3582,-4.3719,-4.3837,-4.3883,-4.3961,-4.4005,-4.4005,-4.4005,-4.4005,-4.4005,-4.4005,-4.4005,-4.4005,-4.4005,-4.4005,-4.4005,-4.4005,-4.4005,-4.4005,-4.4005,-4.4005,-4.4005,-4.4005,-4.3986,-4.4036,-4.4048,-4.4181,-4.4438,-4.4438,-4.4572,-4.4825,-4.4849,-4.4849,-2.4148,-2.5065,-2.6203,-2.8466,-3.0438,-3.1942,-3.2362,-3.2384,-3.224,-3.1545,-3.144,-3.1319,-3.0826,-3.0669,0.0,0.0,0.0,0.0,0.0,0.0,0.0,0.0,0.0,0.0,0.0,0.0,0.0,0.0,0.0,0.0,0.0,0.0,0.0,0.0,0.0,-3.1482,-3.1482,-3.1482,-3.1482,0.0,-3.1482,-3.1597,-3.1784,-3.2342,-3.3198,-3.4169,-3.3919,-3.4366,-3.5224,-3.4927,-3.5021,-3.5424,-3.556,-3.5622,-3.5622,-3.5728,-3.5875,-3.6038,-3.6104,-3.6722,-3.7521,-3.7671,-3.8215,-3.8836,-3.8836,-3.8836,-3.8784,-3.8629,-3.8594,-3.8799,-3.9665,-3.9968,-4.0464,-4.2047,-4.3004,-4.3513,-4.3548,-4.3582,-4.3615,-4.3719,-4.3818,-4.3883,-4.3915,-4.3961,-4.4005,-4.4005,-4.4005,-4.4005,-4.4005,-4.4005,-4.4005,-4.4005,-4.4005,-4.4005,-4.4005,-4.4005,-4.4005,-4.4005,-4.4005,-4.4005,-4.4005,-4.4005,-4.4091,-4.4318,-4.4318,-4.4457,-4.4701,-4.4776,-4.4896,-4.5118,-4.5165,-4.5304,-2.4654,-2.5794,-2.7366,-3.006,-3.1868,-3.289,-3.2585,-3.2513,-3.2188,-3.117,-3.1014,-3.0959,-3.064,0.0,0.0,0.0,0.0,0.0,0.0,0.0,0.0,0.0,0.0,0.0,0.0,0.0,0.0,0.0,0.0,0.0,0.0,0.0,0.0,0.0,-3.1482,-3.1482,-3.1482,-3.1482,-3.1539,-3.167,-3.167,-3.2023,-3.2734,-3.2841,-3.3598,-3.4769,-3.4529,-3.4833,-3.5577,-3.5316,-3.5333,-3.5622,-3.5622,-3.5622,-3.5622,-3.5773,-3.5817,-3.5817,-3.6096,-3.6423,-3.6844,-3.7353,-3.7749,-3.806,-3.806,-3.806,-3.7974,-3.7594,-3.7646,-3.7923,-3.8584,-3.9154,-3.9914,-4.1431,-4.2356,-4.3054,-4.3508,-4.3582,-4.3667,-4.3818,-4.3883,-4.3897,-4.3961,-4.3974,-4.4005,-4.4005,-4.4005,-4.4005,-4.4005,-4.4005,-4.4005,-4.4005,-4.4005,-4.4005,-4.4005,-4.4005,-4.4005,-4.4005,-4.4005,-4.4005,-4.4005,-4.4005,-4.4121,-4.4383,-4.4519,-4.4751,-4.5052,-4.5074,-4.5203,-4.5437,-4.5491,-4.5563,-2.525,-2.6911,-2.9089,-3.1731,-3.2922,-3.3231,-3.2629,-3.2513,-3.2179,-3.0988,-3.064,-3.0568,0.0,0.0,0.0,0.0,0.0,0.0,0.0,0.0,0.0,0.0,0.0,0.0,0.0,0.0,0.0,0.0,0.0,0.0,0.0,0.0,-3.164,-3.164,-3.1524,-3.1482,-3.1482,-3.1482,-3.1597,-3.1799,-3.1841,-3.2547,-3.3786,-3.3339,-3.3802,-3.4927,-3.4927,-3.5178,-3.5622,-3.5622,-3.5622,-3.5622,-3.5622,-3.5622,-3.5622,-3.5773,-3.5817,-3.5861,-3.6122,-3.6208,-3.6311,-3.7077,-3.7284,-3.7284,-3.7284,-3.7284,-3.7189,-3.6558,-3.6638,-3.7017,-3.7469,-3.8455,-3.9615,-4.0905,-4.1765,-4.254,-4.345,-4.3649,-4.3682,-4.3897,-4.3929,-4.3929,-4.4005,-4.4005,-4.4005,-4.4005,-4.4005,-4.4005,-4.4005,-4.4005,-4.4005,-4.4005,-4.4005,-4.4005,-4.4005,-4.4005,-4.4005,-4.4005,-4.4005,-4.4036,-4.4079,-4.4091,-4.4279,-4.4546,-4.4726,-4.4985,-4.5342,-4.5362,-4.5493,-4.57,-4.5696,-4.5731,-2.5224,-2.7318,-2.9514,-3.0896,-3.2024,-3.2713,-3.2542,-3.2513,-3.2309,0.0,-3.0945,-3.0568,0.0,0.0,0.0,0.0,0.0,0.0,0.0,0.0,0.0,0.0,0.0,0.0,0.0,0.0,0.0,0.0,0.0,0.0,0.0,-3.2532,-3.2287,-3.2287,-3.1739,-3.1482,-3.1482,-3.1482,-3.1597,-3.1799,-3.2053,-3.2749,-3.3786,-3.3869,-3.448,-3.547,-3.547,-3.5515,-3.5622,-3.5622,-3.5622,-3.5622,-3.5622,-3.5622,-3.5622,-3.5888,-3.5975,-3.6019,-3.6216,-3.6301,-3.6318,-3.6422,-3.6456,-3.6456,-3.6456,-3.6456,-3.6506,-3.6736,-3.686,-3.7094,-3.7844,-3.8647,-3.9615,-4.0905,-4.1811,-4.2654,-4.3666,-4.3865,-4.3897,-4.3974,-4.3974,-4.4005,-4.4005,-4.4005,-4.4005,-4.4005,-4.4005,-4.4005,-4.4005,-4.4005,-4.4005,-4.4005,-4.4005,-4.4005,-4.4005,-4.4005,-4.4005,-4.4005,-4.4005,-4.4091,-4.4346,-4.4572,-4.4849,-4.5161,-4.4985,-4.5074,-4.5457,-4.5651,-4.5715,-4.57,-4.5757,-4.5791,-2.5689,-2.716,-2.8655,-3.0672,-3.1426,-3.1798,-3.2465,-3.2576,-3.2489,-3.2591,-3.2077,0.0,0.0,0.0,0.0,0.0,0.0,0.0,0.0,0.0,0.0,0.0,0.0,0.0,0.0,0.0,0.0,0.0,0.0,0.0,-3.3182,-3.3002,-3.2695,-3.2398,-3.212,0.0,-3.1482,-3.1482,-3.1655,-3.1883,-3.2094,-3.2641,-3.3495,-3.3818,-3.4577,-3.5622,-3.5622,-3.5622,-3.5622,-3.5622,-3.5622,-3.5622,-3.5622,-3.5622,-3.5622,-3.5888,-3.6019,-3.6019,-3.6216,-3.6301,-3.6301,-3.6301,-3.6301,-3.6301,-3.6301,-3.6451,-3.6678,-3.686,-3.7228,-3.765,-3.8,-3.89,-3.9983,-4.1051,-4.1976,-4.2815,-4.3743,-4.3929,-4.3929,-4.3974,-4.4005,-4.4005,-4.4005,-4.4005,-4.4005,-4.4005,-4.4005,-4.4005,-4.4005,-4.4005,-4.4005,-4.4005,-4.4005,-4.4005,-4.4005,-4.4005,-4.4079,-4.4221,-4.4221,-4.4346,-4.4624,-4.4776,-4.4962,-4.518,-4.5283,-4.5438,-4.5671,-4.575,-4.5795,-4.5757,-4.5786,-4.58,-2.56,-2.646,-2.7416,-2.9748,-3.0511,-3.0925,-3.2053,-3.2551,-3.2974,0.0,0.0,0.0,0.0,0.0,0.0,0.0,0.0,0.0,0.0,0.0,0.0,0.0,0.0,0.0,0.0,0.0,0.0,0.0,0.0,0.0,-3.3614,-3.3511,-3.3282,-3.2819,-3.2711,-3.2327,-3.1739,-3.164,-3.1811,-3.2191,-3.2247,-3.2656,-3.3407,-3.3818,-3.4577,-3.5622,-3.5622,-3.5622,-3.5622,-3.5622,-3.5622,-3.5622,-3.5622,-3.5667,-3.5667,-3.5932,-3.6062,-3.6062,-3.6259,-3.6301,-3.6301,-3.6301,-3.6301,-3.6343,-3.6409,-3.6678,-3.6939,-3.717,-3.765,-3.8135,-3.8234,-3.9292,-4.048,-4.1268,-4.2236,-4.3187,-4.3875,-4.3942,-4.3961,-4.4005,-4.4005,-4.4005,-4.4005,-4.4005,-4.4005,-4.4005,-4.4005,-4.4005,-4.4005,-4.4005,-4.4005,-4.4005,-4.4005,-4.4036,-4.4109,-4.4091,-4.4221,-4.4465,-4.4519,-4.465,-4.4938,-4.4988,-4.5099,-4.5264,-4.5566,-4.5738,-4.575,-4.5781,-4.5791,-4.58,-4.58,-4.58,-2.4373,-2.5211,-2.6001,-2.7253,-2.899,-3.0478,-3.097,0.0,-3.3819,0.0,0.0,0.0,0.0,0.0,0.0,0.0,0.0,0.0,0.0,0.0,0.0,0.0,0.0,0.0,0.0,0.0,0.0,0.0,0.0,0.0,-3.4787,-3.4349,-3.405,-3.4,-3.3475,-3.2895,-3.2342,-3.2094,-3.2247,-3.2749,-3.2492,-3.2949,-3.3986,-3.3986,-3.4577,-3.5622,-3.5622,-3.5622,-3.5622,-3.5622,-3.5622,-3.5622,-3.5728,-3.5773,-3.5817,-3.6079,-3.6182,-3.6208,-3.6259,-3.6301,-3.6301,-3.6301,-3.6301,-3.6385,-3.6741,-3.686,-3.7055,-3.7844,-3.8068,-3.8201,-3.8652,-3.9952,-4.1199,-4.1428,-4.2693,-4.3873,-4.3974,-4.4005,-4.4005,-4.4005,-4.4005,-4.4005,-4.4005,-4.4005,-4.4005,-4.4005,-4.4005,-4.4005,-4.4005,-4.4005,-4.4005,-4.4005,-4.4005,-4.4091,-4.4374,-4.4374,-4.4493,-4.4751,-4.4825,-4.4988,-4.5263,-4.5285,-4.5417,-4.5765,-4.5781,-4.5731,-4.5613,-4.5742,-4.58,-4.58,-4.58,-4.58,-2.3251,-2.3834,-2.4642,-2.5941,-2.7036,-2.8256,-2.9973,-3.155,-3.2856,0.0,0.0,0.0,0.0,0.0,0.0,0.0,0.0,0.0,0.0,0.0,0.0,0.0,0.0,0.0,0.0,0.0,0.0,0.0,0.0,0.0,-3.4899,-3.4691,-3.4448,-3.4101,-3.3882,-3.3543,-3.3039,-3.2949,-3.3093,-3.3443,-3.3002,-3.3198,-3.3986,-3.3986,-3.4382,-3.5131,-3.547,-3.5622,-3.5622,-3.5622,-3.5667,-3.5728,-3.5773,-3.5861,-3.5949,-3.6122,-3.6225,-3.6208,-3.6276,-3.6301,-3.6301,-3.6301,-3.6492,-3.6719,-3.686,-3.7283,-3.7721,-3.8034,-3.8318,-3.859,-3.8762,-4.0099,-4.1687,-4.2848,-4.3547,-4.3974,-4.4005,-4.4005,-4.4005,-4.4005,-4.4005,-4.4005,-4.4005,-4.4005,-4.4005,-4.4005,-4.4005,-4.4005,-4.4005,-4.4005,-4.4005,-4.4005,-4.4151,-4.4308,-4.4383,-4.4599,-4.4825,-4.5096,-4.5142,-4.5285,-4.5565,-4.5596,-4.5665,-4.58,-4.5791,-4.5771,-4.5723,-4.5786,-4.58,-4.58,-4.58,-4.58,-2.2338,-2.2802,-2.361,-2.4941,-2.5661,-2.6705,-2.9185,-3.0859,-3.226,0.0,0.0,0.0,0.0,0.0,0.0,0.0,0.0,0.0,0.0,0.0,0.0,0.0,0.0,0.0,0.0,0.0,0.0,0.0,0.0,0.0,-3.4535,-3.4535,-3.4261,-3.3632,-3.3519,-3.3405,-3.3209,-3.296,-3.301,-3.334,-3.2844,-3.291,-3.3518,-3.3518,-3.3806,-3.4351,-3.4981,-3.5385,-3.5622,-3.5667,-3.5728,-3.5817,-3.5905,-3.5993,-3.6062,-3.6191,-3.6251,-3.6251,-3.6259,-3.6301,-3.6301,-3.6301,-3.6492,-3.6759,-3.7017,-3.7451,-3.7948,-3.8219,-3.8559,-3.8877,-3.9153,-4.0596,-4.2291,-4.3689,-4.4005,-4.3931,-4.3652,-4.3596,-4.367,-4.3949,-4.3782,-4.367,-4.3949,-4.4005,-4.4005,-4.4005,-4.4005,-4.4005,-4.4005,-4.4079,-4.4121,-4.4121,-4.4374,-4.4572,-4.4676,-4.4896,-4.5159,-4.5419,-4.5455,-4.5543,-4.5715,-4.5781,-4.581,-4.581,-4.5786,-4.58,-4.58,-4.58,-4.58,-4.58,-4.58,-4.58,0.0,0.0,0.0,-2.4223,-2.4878,0.0,-2.8596,0.0,-3.2142,0.0,0.0,0.0,0.0,0.0,0.0,0.0,0.0,0.0,0.0,0.0,0.0,0.0,0.0,0.0,0.0,0.0,0.0,0.0,0.0,-3.4535,-3.3806,-3.3756,-3.3425,-3.2757,-3.2393,-3.2438,-3.2907,-3.2071,-3.1915,-3.2422,-3.2008,-3.2101,-3.2618,-3.2618,-3.2884,-3.344,-3.415,-3.4895,-3.5588,-3.5756,-3.5817,-3.5817,-3.6096,-3.6225,-3.6208,-3.6276,-3.6301,-3.6301,-3.6301,-3.6301,-3.6301,-3.6301,-3.6301,-3.6451,-3.7283,-3.7505,-3.7685,-3.8483,-3.875,-3.9006,-3.9889,-4.1415,-4.2965,-4.3763,-4.3986,-4.3782,-4.2965,-4.2779,-4.3002,-4.3782,-4.3318,-4.3039,-4.3838,-4.3986,-4.4005,-4.4005,-4.4005,-4.3986,-4.3986,-4.425,-4.4411,-4.4411,-4.465,-4.4938,-4.518,-4.5263,-4.5419,-4.5673,-4.577,-4.58,-4.5815,-4.5805,-4.58,-4.58,-4.58,-4.58,-4.58,-4.58,-4.58,-4.58,-4.58,-4.58,-2.1111,0.0,0.0,0.0,0.0,0.0,0.0,0.0,0.0,0.0,0.0,0.0,0.0,0.0,0.0,0.0,0.0,0.0,0.0,0.0,0.0,0.0,0.0,0.0,0.0,0.0,0.0,0.0,-3.4402,-3.3773,-3.3027,-3.3101,-3.3106,-3.2917,-3.2857,-3.29,-3.3091,-3.2857,-3.29,-3.3134,-3.2618,-3.2663,-3.3177,-3.2796,-3.2884,-3.3423,-3.3626,-3.4176,-3.4992,-3.5535,-3.5861,-3.5975,-3.6122,-3.6251,-3.6259,-3.6301,-3.6301,-3.6301,-3.6301,-3.6301,-3.6301,-3.6301,-3.6492,-3.6821,-3.734,-3.7685,-3.8034,-3.8564,-3.875,-3.9006,-3.9949,-4.1037,-4.2129,-4.2946,-4.3578,-4.3782,-4.2965,-4.2333,-4.1999,-4.2222,-4.2556,-4.2872,-4.3095,-4.3615,-4.4005,-4.4005,-4.4181,-4.4289,-4.4289,-4.4519,-4.4676,-4.4676,-4.4919,-4.5118,-4.5201,-4.5438,-4.562,-4.5703,-4.5765,-4.5795,-4.5805,-4.58,-4.58,-4.58,-4.58,-4.58,-4.58,-4.58,-4.58,-4.58,-4.58,-4.58,-2.1606,-2.1872,-2.2467,-2.284,0.0,0.0,0.0,-2.6146,0.0,0.0,0.0,0.0,0.0,0.0,0.0,0.0,0.0,0.0,0.0,0.0,0.0,0.0,0.0,0.0,0.0,0.0,0.0,0.0,-3.4359,-3.3494,-3.2474,-3.2243,-3.2101,-3.2127,-3.2211,-3.2253,-3.2294,-3.2352,-3.2394,-3.2476,-3.2169,-3.2169,-3.2476,-3.2169,-3.2169,-3.2493,-3.2872,-3.3328,-3.3828,-3.4661,-3.5412,-3.6062,-3.6191,-3.6276,-3.6301,-3.6301,-3.6301,-3.6301,-3.6301,-3.6301,-3.6301,-3.6301,-3.6557,-3.6978,-3.7395,-3.7756,-3.8168,-3.8596,-3.9019,-3.949,-4.0118,-4.0948,-4.172,-4.2184,-4.2649,-4.2779,-4.1962,-4.1423,-4.12,-4.1534,-4.1702,-4.1999,-4.2686,-4.3188,-4.3658,-4.4095,-4.4289,-4.4438,-4.4546,-4.48,-4.4985,-4.4985,-4.5201,-4.5381,-4.5381,-4.5568,-4.569,-4.5703,-4.575,-4.5795,-4.5805,-4.58,-4.58,-4.58,-4.58,-4.58,-4.58,-4.58,-4.58,-4.58,-4.58,-4.58,-2.2917,-2.3118,-2.3593,-2.3872,-2.3871,0.0,-2.5745,-2.6028,-2.6571,0.0,0.0,0.0,0.0,0.0,0.0,0.0,0.0,0.0,0.0,0.0,0.0,0.0,0.0,0.0,0.0,0.0,-3.5198,-3.5291,-3.4471,-3.3399,-3.2085,-3.1355,-3.0975,-3.0952,-3.1112,-3.1151,-3.1015,-3.1151,-3.119,-3.119,-3.119,-3.119,-3.119,-3.119,-3.119,-3.1263,-3.2038,-3.2417,-3.2593,-3.3425,-3.4672,-3.6088,-3.6138,-3.6232,-3.6301,-3.6301,-3.6301,-3.6301,-3.6301,-3.6343,-3.6385,-3.6385,-3.6638,-3.7055,-3.7414,-3.7826,-3.8201,-3.8627,-3.9307,-4.0041,-4.0195,-4.0847,-4.146,-4.146,-4.1534,-4.1367,-4.0568,-4.0401,-4.0568,-4.12,-4.0903,-4.0977,-4.2407,-4.2816,-4.3241,-4.4205,-4.4374,-4.4493,-4.4751,-4.503,-4.5184,-4.5109,-4.5323,-4.5451,-4.5451,-4.5522,-4.5596,-4.5673,-4.5754,-4.5781,-4.58,-4.5805,-4.58,-4.58,-4.58,-4.58,-4.58,-4.58,-4.58,-4.58,-4.58,-4.58,-2.4655,-2.4802,-2.4718,-2.3886,-2.4601,0.0,-2.405,-2.4246,-2.4946,0.0,0.0,0.0,0.0,0.0,0.0,0.0,0.0,0.0,0.0,0.0,0.0,0.0,0.0,0.0,0.0,0.0,-3.5291,-3.5291,-3.3517,-3.232,-3.2085,-3.1379,-3.1015,-3.1151,-3.119,-3.119,-3.1151,-3.119,-3.119,-3.119,-3.119,-3.119,-3.119,-3.119,-3.1213,-3.1274,-3.1465,-3.1969,-3.2779,-3.2956,-3.3882,-3.5238,-3.5363,-3.5766,-3.6301,-3.6301,-3.6301,-3.6301,-3.6301,-3.6533,-3.6781,-3.6781,-3.7055,-3.7469,-3.7879,-3.8083,-3.8263,-3.8743,-3.905,-3.9219,-3.9248,-3.9935,-4.0624,-4.0624,-4.1126,-4.1367,-4.0568,-4.0401,-4.0234,-3.9695,-4.055,-4.146,-4.1776,-4.2909,-4.385,-4.406,-4.426,-4.4493,-4.4751,-4.503,-4.4995,-4.4534,-4.453,-4.4547,-4.4547,-4.4583,-4.4908,-4.5654,-4.5703,-4.5731,-4.58,-4.5805,-4.58,-4.58,-4.58,-4.58,-4.58,-4.58,-4.58,-4.58,-4.58,-4.58,-2.5891,-2.5875,-2.5929,-2.5241,-2.5378,0.0,0.0,-2.451,-2.466,-2.6133,0.0,0.0,0.0,0.0,0.0,0.0,0.0,0.0,0.0,0.0,0.0,0.0,0.0,0.0,0.0,0.0,-3.5278,-3.4936,-3.3859,-3.2942,-3.2225,-3.1837,-3.1523,-3.1207,-3.119,-3.119,-3.119,-3.119,-3.119,-3.119,-3.119,-3.119,-3.119,-3.119,-3.1252,-3.1295,-3.1351,-3.1688,-3.2217,-3.2256,-3.2947,-3.3997,-3.449,-3.5094,-3.5714,-3.5335,-3.5663,-3.6291,-3.6099,-3.6444,-3.6939,-3.7114,-3.7469,-3.7826,-3.8083,-3.8346,-3.8615,-3.8892,-3.8979,-3.9007,-3.9036,-3.9407,-3.9751,-3.9751,-4.0048,-4.0234,-3.9844,-3.9751,-3.9621,-3.9175,-4.0123,-4.1126,-4.1534,-4.2259,-4.2988,-4.3509,-4.4167,-4.455,-4.4414,-4.4611,-4.4632,-4.4335,-4.3932,-4.3701,-4.3701,-4.4066,-4.4506,-4.4966,-4.5436,-4.5715,-4.575,-4.5771,-4.58,-4.58,-4.58,-4.58,-4.58,-4.58,-4.58,-4.58,-4.58,-4.58,-2.73,-2.7143,-2.7363,-2.6774,-2.6455,-2.6269,0.0,0.0,0.0,-2.6672,0.0,0.0,0.0,0.0,0.0,0.0,0.0,0.0,0.0,0.0,0.0,0.0,0.0,0.0,0.0,0.0,-3.481,-3.4449,-3.4143,-3.3583,-3.2666,-3.2263,-3.1867,-3.141,-3.1258,-3.119,-3.119,-3.119,-3.119,-3.119,-3.119,-3.119,-3.119,-3.123,-3.1252,-3.1351,-3.1462,-3.1559,-3.1671,-3.1763,-3.2145,-3.2766,-3.3559,-3.4318,-3.4921,-3.4575,-3.5163,-3.6214,-3.6162,-3.6564,-3.719,-3.7524,-3.7913,-3.8267,-3.8328,-3.8615,-3.8921,-3.9007,-3.9007,-3.9036,-3.9073,-3.9101,-3.9101,-3.9101,-3.9101,-3.9101,-3.9101,-3.9101,-3.9101,-3.9101,-3.9658,-4.0401,-4.1219,-4.1537,-4.195,-4.2817,-4.3718,-4.425,-4.4017,-4.3981,-4.4013,-4.4066,-4.3335,-4.2854,-4.2854,-4.3605,-4.4143,-4.4297,-4.517,-4.57,-4.57,-4.5771,-4.58,-4.58,-4.58,-4.58,-4.58,-4.58,-4.58,-4.58,-4.58,-4.58,-2.9743,-2.9694,0.0,0.0,-2.8127,0.0,0.0,0.0,-2.6117,-2.5084,0.0,0.0,0.0,0.0,0.0,0.0,0.0,0.0,0.0,0.0,0.0,0.0,0.0,0.0,0.0,0.0,0.0,-3.4008,-3.2805,-3.2548,-3.3733,-3.2219,-3.1579,-3.2178,-3.1529,-3.119,-3.119,-3.119,-3.119,-3.119,-3.119,-3.119,-3.119,-3.1274,-3.1368,-3.1462,-3.1559,-3.1671,-3.18,-3.18,-3.1852,-3.199,-3.2748,-3.3507,-3.4362,-3.5252,-3.572,-3.5987,-3.6984,-3.7631,-3.808,-3.8114,-3.8442,-3.8833,-3.8892,-3.895,-3.9007,-3.9073,-3.9073,-3.9101,-3.9101,-3.9101,-3.9101,-3.9101,-3.9101,-3.9101,-3.9101,-3.9101,-3.9101,-3.9101,-3.9175,-3.951,-4.0383,-4.1297,-4.1908,-4.2029,-4.2353,-4.2917,-4.3804,-4.331,-4.2967,-4.3203,-4.247,-4.195,-4.195,-4.2739,-4.3547,-4.4239,-4.517,-4.57,-4.57,-4.5771,-4.58,-4.58,-4.58,-4.58,-4.58,-4.58,-4.58,-4.58,-4.58,-4.58,0.0,0.0,0.0,0.0,0.0,0.0,-2.6776,0.0,-2.6133,0.0,0.0,0.0,0.0,0.0,0.0,0.0,0.0,0.0,0.0,0.0,0.0,0.0,0.0,0.0,0.0,0.0,0.0,0.0,0.0,-3.2732,-3.2941,-3.2486,-3.2102,-3.1965,-3.1443,-3.119,-3.119,-3.119,-3.119,-3.119,-3.119,-3.119,-3.119,-3.1274,-3.1351,-3.1517,-3.1559,-3.1671,-3.18,-3.18,-3.18,-3.1854,-3.2367,-3.3032,-3.3694,-3.3738,-3.4481,-3.5439,-3.5659,-3.6515,-3.7612,-3.8358,-3.8755,-3.895,-3.8979,-3.9036,-3.9045,-3.9101,-3.9101,-3.9101,-3.9101,-3.9101,-3.9101,-3.9101,-3.9101,-3.9101,-3.9101,-3.9101,-3.9101,-3.9101,-3.9219,-3.9462,-3.9791,-4.0626,-4.128,-4.1429,-4.2056,-4.2538,-4.2507,-4.2316,-4.2215,-4.2319,-4.1566,-4.1062,-4.1097,-4.2332,-4.3256,-4.3647,-4.4982,-4.5746,-4.5757,-4.5786,-4.58,-4.58,-4.58,-4.58,-4.58,-4.58,-4.58,-4.58,-4.58,-4.58,-3.0074,0.0,0.0,0.0,0.0,0.0,0.0,0.0,0.0,0.0,0.0,0.0,0.0,0.0,-2.4729,-2.454,0.0,0.0,0.0,0.0,0.0,0.0,0.0,0.0,0.0,0.0,0.0,0.0,0.0,0.0,-3.2351,-3.2387,-3.2271,-3.2059,-3.1568,-3.1291,-3.119,-3.119,-3.119,-3.119,-3.119,-3.123,-3.1213,-3.1329,-3.1406,-3.1538,-3.1634,-3.1709,-3.18,-3.18,-3.18,-3.1819,-3.2161,-3.2669,-3.3212,-3.2979,-3.3766,-3.4942,-3.4981,-3.5964,-3.7381,-3.8586,-3.8979,-3.9036,-3.9036,-3.9045,-3.9101,-3.9101,-3.9101,-3.9101,-3.9101,-3.9101,-3.9101,-3.9101,-3.9101,-3.9101,-3.9101,-3.9101,-3.9129,-3.921,-3.9376,-3.9532,-3.9675,-4.0188,-4.0632,-4.0829,-4.157,-4.1972,-4.1628,-4.1502,-4.1546,-4.1777,-4.1027,-4.0523,-4.0588,-4.1925,-4.2999,-4.3516,-4.4742,-4.5544,-4.578,-4.58,-4.58,-4.58,-4.58,-4.58,-4.58,-4.58,-4.58,-4.58,-4.58,-4.58,0.0,0.0,0.0,-2.8416,0.0,0.0,0.0,0.0,-2.6674,0.0,0.0,0.0,0.0,-2.6082,-2.5338,-2.4625,-2.4506,0.0,0.0,0.0,0.0,0.0,0.0,0.0,0.0,0.0,0.0,0.0,0.0,0.0,-3.2645,-3.1767,-3.1673,-3.2817,-3.209,-3.1524,-3.119,-3.119,-3.119,-3.119,-3.119,-3.1213,-3.1295,-3.1423,-3.1538,-3.1617,-3.1763,-3.18,-3.18,-3.18,-3.18,-3.1819,-3.2161,-3.2504,-3.2952,-3.405,-3.448,-3.4673,-3.5839,-3.6867,-3.7821,-3.8785,-3.9101,-3.9101,-3.9101,-3.9101,-3.9101,-3.9101,-3.9101,-3.9101,-3.9101,-3.9101,-3.9101,-3.9101,-3.9101,-3.9101,-3.9101,-3.9101,-3.9183,-3.9452,-3.9483,-3.9632,-4.0101,-4.0196,-4.0234,-4.0234,-4.0413,-4.0873,-4.1684,-4.1066,-4.0854,-4.172,-4.1027,-4.0523,-4.0588,-4.1416,-4.2661,-4.4356,-4.451,-4.4926,-4.5761,-4.58,-4.58,-4.58,-4.58,-4.58,-4.58,-4.58,-4.58,-4.58,-4.58,-4.58,0.0,0.0,-3.0903,-2.9651,0.0,0.0,0.0,0.0,0.0,0.0,0.0,0.0,0.0,-2.6099,-2.5524,-2.527,-2.4876,-2.4397,0.0,0.0,0.0,0.0,0.0,0.0,0.0,0.0,0.0,0.0,0.0,0.0,0.0,-3.151,-3.1764,-3.2476,-3.1998,-3.1562,-3.119,-3.1252,-3.1252,-3.119,-3.1252,-3.1274,-3.1295,-3.1462,-3.1538,-3.1617,-3.1746,-3.18,-3.18,-3.18,-3.1929,-3.2144,-3.2486,-3.2844,-3.319,-3.3592,-3.3905,-3.4248,-3.5329,-3.6241,-3.7109,-3.8015,-3.8674,-3.9101,-3.9101,-3.9101,-3.9101,-3.9101,-3.9101,-3.9101,-3.9101,-3.9101,-3.9101,-3.9101,-3.9101,-3.9101,-3.9101,-3.9245,-3.9401,-3.9483,-3.9747,-4.0002,-4.0158,-4.0304,-4.0408,-4.0408,-4.0457,-4.062,-4.0962,-4.0746,-4.0669,-4.0969,-4.0752,-4.0579,-4.0612,-4.1437,-4.27,-4.4375,-4.4539,-4.4935,-4.5761,-4.58,-4.58,-4.58,-4.58,-4.58,-4.58,-4.58,-4.58,-4.58,-4.5877,-4.5877,-3.119,-3.119,0.0,0.0,-2.8958,0.0,-2.7537,0.0,0.0,0.0,0.0,0.0,0.0,-2.6674,-2.5998,-2.6047,-2.5467,-2.4649,0.0,-2.4123,0.0,0.0,0.0,0.0,0.0,0.0,-2.8604,-2.8378,0.0,0.0,0.0,0.0,-3.1643,-3.206,-3.2091,-3.1932,-3.16,-3.1524,-3.1487,-3.1445,-3.1406,-3.1389,-3.1411,-3.1483,-3.1614,-3.1671,-3.1746,-3.18,-3.18,-3.1929,-3.2091,-3.2352,-3.2813,-3.3105,-3.3379,-3.3504,-3.3743,-3.4076,-3.5055,-3.5914,-3.6737,-3.7607,-3.8432,-3.9101,-3.9101,-3.9101,-3.9101,-3.9101,-3.9101,-3.9101,-3.9101,-3.9101,-3.9101,-3.9101,-3.9165,-3.9245,-3.9245,-3.9414,-3.9632,-3.9724,-3.9982,-4.0233,-4.0286,-4.0674,-4.0854,-4.0546,-4.0489,-4.0523,-4.0573,-4.0592,-4.0603,-4.0612,-4.0607,-4.0621,-4.0621,-4.1202,-4.2163,-4.3515,-4.3949,-4.4504,-4.5336,-4.5645,-4.58,-4.58,-4.58,-4.58,-4.58,-4.58,-4.5819,-4.5858,-4.5969,-4.5984]}]]